<?xml version="1.0" encoding="UTF-8" standalone="no" ?>
<gpx xmlns="http://www.topografix.com/GPX/1/1" xmlns:xsi="http://www.w3.org/2001/XMLSchema-instance" xsi:schemaLocation="http://www.topografix.com/GPX/1/1 http://www.topografix.com/GPX/1/1/gpx.xsd" version="1.1" creator="VisuGPX - https://www.visugpx.com">
  <metadata>
    <name>Reco - raccourcie - du Trail des Glières</name>
    <desc><![CDATA[Reconnaissance du trail des Glières (23 km) mais tronquée vue la météo]]></desc>
  </metadata>
  <trk>
    <name><![CDATA[Reco - raccourcie - du Trail des Glières_1]]></name>
    <trkseg>
      <trkpt lat="45.99707" lon="6.24967">
        <ele>698.53497314453</ele>
        <time>2013-09-15T06:32:43.000Z</time>
      </trkpt>
      <trkpt lat="45.99717" lon="6.24976">
        <ele>698.53497314453</ele>
        <time>2013-09-15T06:32:48.000Z</time>
      </trkpt>
      <trkpt lat="45.99726" lon="6.24983">
        <ele>699.49597167969</ele>
        <time>2013-09-15T06:32:52.000Z</time>
      </trkpt>
      <trkpt lat="45.99729" lon="6.24984">
        <ele>698.53497314453</ele>
        <time>2013-09-15T06:32:53.000Z</time>
      </trkpt>
      <trkpt lat="45.9974" lon="6.24992">
        <ele>698.05401611328</ele>
        <time>2013-09-15T06:32:58.000Z</time>
      </trkpt>
      <trkpt lat="45.99751" lon="6.25">
        <ele>697.09301757812</ele>
        <time>2013-09-15T06:33:03.000Z</time>
      </trkpt>
      <trkpt lat="45.99763" lon="6.25008">
        <ele>695.16998291016</ele>
        <time>2013-09-15T06:33:08.000Z</time>
      </trkpt>
      <trkpt lat="45.99776" lon="6.25013">
        <ele>693.72900390625</ele>
        <time>2013-09-15T06:33:13.000Z</time>
      </trkpt>
      <trkpt lat="45.99778" lon="6.25015">
        <ele>694.69000244141</ele>
        <time>2013-09-15T06:33:14.000Z</time>
      </trkpt>
      <trkpt lat="45.99792" lon="6.25022">
        <ele>690.36401367188</ele>
        <time>2013-09-15T06:33:19.000Z</time>
      </trkpt>
      <trkpt lat="45.99803" lon="6.25025">
        <ele>689.40301513672</ele>
        <time>2013-09-15T06:33:23.000Z</time>
      </trkpt>
      <trkpt lat="45.99812" lon="6.25027">
        <ele>689.40301513672</ele>
        <time>2013-09-15T06:33:27.000Z</time>
      </trkpt>
      <trkpt lat="45.99822" lon="6.25031">
        <ele>693.24798583984</ele>
        <time>2013-09-15T06:33:32.000Z</time>
      </trkpt>
      <trkpt lat="45.99835" lon="6.25035">
        <ele>690.84399414062</ele>
        <time>2013-09-15T06:33:37.000Z</time>
      </trkpt>
      <trkpt lat="45.99848" lon="6.25037">
        <ele>689.40301513672</ele>
        <time>2013-09-15T06:33:42.000Z</time>
      </trkpt>
      <trkpt lat="45.99858" lon="6.25042">
        <ele>689.40301513672</ele>
        <time>2013-09-15T06:33:46.000Z</time>
      </trkpt>
      <trkpt lat="45.99867" lon="6.25047">
        <ele>689.88299560547</ele>
        <time>2013-09-15T06:33:50.000Z</time>
      </trkpt>
      <trkpt lat="45.99882" lon="6.25049">
        <ele>690.36401367188</ele>
        <time>2013-09-15T06:33:56.000Z</time>
      </trkpt>
      <trkpt lat="45.99892" lon="6.25051">
        <ele>691.80603027344</ele>
        <time>2013-09-15T06:34:01.000Z</time>
      </trkpt>
      <trkpt lat="45.99903" lon="6.25056">
        <ele>691.32501220703</ele>
        <time>2013-09-15T06:34:06.000Z</time>
      </trkpt>
      <trkpt lat="45.99911" lon="6.25061">
        <ele>692.28698730469</ele>
        <time>2013-09-15T06:34:10.000Z</time>
      </trkpt>
      <trkpt lat="45.99918" lon="6.25069">
        <ele>695.65100097656</ele>
        <time>2013-09-15T06:34:14.000Z</time>
      </trkpt>
      <trkpt lat="45.99929" lon="6.25073">
        <ele>694.208984375</ele>
        <time>2013-09-15T06:34:19.000Z</time>
      </trkpt>
      <trkpt lat="45.99937" lon="6.25078">
        <ele>695.16998291016</ele>
        <time>2013-09-15T06:34:23.000Z</time>
      </trkpt>
      <trkpt lat="45.99947" lon="6.25085">
        <ele>697.57397460938</ele>
        <time>2013-09-15T06:34:28.000Z</time>
      </trkpt>
      <trkpt lat="45.99959" lon="6.25095">
        <ele>700.4580078125</ele>
        <time>2013-09-15T06:34:34.000Z</time>
      </trkpt>
      <trkpt lat="45.99969" lon="6.25101">
        <ele>700.4580078125</ele>
        <time>2013-09-15T06:34:39.000Z</time>
      </trkpt>
      <trkpt lat="45.99982" lon="6.25105">
        <ele>699.97698974609</ele>
        <time>2013-09-15T06:34:44.000Z</time>
      </trkpt>
      <trkpt lat="45.99992" lon="6.25107">
        <ele>699.01599121094</ele>
        <time>2013-09-15T06:34:48.000Z</time>
      </trkpt>
      <trkpt lat="46.00005" lon="6.25112">
        <ele>699.49597167969</ele>
        <time>2013-09-15T06:34:53.000Z</time>
      </trkpt>
      <trkpt lat="46.00017" lon="6.25118">
        <ele>701.90002441406</ele>
        <time>2013-09-15T06:34:59.000Z</time>
      </trkpt>
      <trkpt lat="46.00027" lon="6.25124">
        <ele>705.26397705078</ele>
        <time>2013-09-15T06:35:04.000Z</time>
      </trkpt>
      <trkpt lat="46.00042" lon="6.25134">
        <ele>705.74499511719</ele>
        <time>2013-09-15T06:35:11.000Z</time>
      </trkpt>
      <trkpt lat="46.00055" lon="6.2515">
        <ele>708.62902832031</ele>
        <time>2013-09-15T06:35:18.000Z</time>
      </trkpt>
      <trkpt lat="46.00063" lon="6.2516">
        <ele>707.66802978516</ele>
        <time>2013-09-15T06:35:23.000Z</time>
      </trkpt>
      <trkpt lat="46.00072" lon="6.25174">
        <ele>705.74499511719</ele>
        <time>2013-09-15T06:35:29.000Z</time>
      </trkpt>
      <trkpt lat="46.00075" lon="6.25184">
        <ele>705.74499511719</ele>
        <time>2013-09-15T06:35:33.000Z</time>
      </trkpt>
      <trkpt lat="46.00079" lon="6.25199">
        <ele>705.74499511719</ele>
        <time>2013-09-15T06:35:38.000Z</time>
      </trkpt>
      <trkpt lat="46.00079" lon="6.25221">
        <ele>707.66802978516</ele>
        <time>2013-09-15T06:35:44.000Z</time>
      </trkpt>
      <trkpt lat="46.00082" lon="6.25242">
        <ele>709.59002685547</ele>
        <time>2013-09-15T06:35:51.000Z</time>
      </trkpt>
      <trkpt lat="46.00084" lon="6.25259">
        <ele>710.07098388672</ele>
        <time>2013-09-15T06:35:56.000Z</time>
      </trkpt>
      <trkpt lat="46.00085" lon="6.25271">
        <ele>709.59002685547</ele>
        <time>2013-09-15T06:36:00.000Z</time>
      </trkpt>
      <trkpt lat="46.00087" lon="6.2529">
        <ele>710.07098388672</ele>
        <time>2013-09-15T06:36:06.000Z</time>
      </trkpt>
      <trkpt lat="46.00089" lon="6.25304">
        <ele>711.99401855469</ele>
        <time>2013-09-15T06:36:11.000Z</time>
      </trkpt>
      <trkpt lat="46.0009" lon="6.25326">
        <ele>713.43597412109</ele>
        <time>2013-09-15T06:36:18.000Z</time>
      </trkpt>
      <trkpt lat="46.00091" lon="6.25346">
        <ele>713.916015625</ele>
        <time>2013-09-15T06:36:24.000Z</time>
      </trkpt>
      <trkpt lat="46.00091" lon="6.25368">
        <ele>714.39697265625</ele>
        <time>2013-09-15T06:36:31.000Z</time>
      </trkpt>
      <trkpt lat="46.0009" lon="6.25394">
        <ele>716.32000732422</ele>
        <time>2013-09-15T06:36:39.000Z</time>
      </trkpt>
      <trkpt lat="46.00089" lon="6.25414">
        <ele>717.28100585938</ele>
        <time>2013-09-15T06:36:45.000Z</time>
      </trkpt>
      <trkpt lat="46.00085" lon="6.25426">
        <ele>715.83898925781</ele>
        <time>2013-09-15T06:36:50.000Z</time>
      </trkpt>
      <trkpt lat="46.00085" lon="6.25449">
        <ele>714.39697265625</ele>
        <time>2013-09-15T06:36:57.000Z</time>
      </trkpt>
      <trkpt lat="46.00085" lon="6.25467">
        <ele>716.32000732422</ele>
        <time>2013-09-15T06:37:03.000Z</time>
      </trkpt>
      <trkpt lat="46.00085" lon="6.2548">
        <ele>719.68402099609</ele>
        <time>2013-09-15T06:37:08.000Z</time>
      </trkpt>
      <trkpt lat="46.00086" lon="6.25496">
        <ele>722.08697509766</ele>
        <time>2013-09-15T06:37:13.000Z</time>
      </trkpt>
      <trkpt lat="46.00086" lon="6.255">
        <ele>722.56799316406</ele>
        <time>2013-09-15T06:37:14.000Z</time>
      </trkpt>
      <trkpt lat="46.00096" lon="6.25519">
        <ele>721.60699462891</ele>
        <time>2013-09-15T06:37:20.000Z</time>
      </trkpt>
      <trkpt lat="46.00102" lon="6.25534">
        <ele>720.16497802734</ele>
        <time>2013-09-15T06:37:25.000Z</time>
      </trkpt>
      <trkpt lat="46.00112" lon="6.25552">
        <ele>721.60699462891</ele>
        <time>2013-09-15T06:37:31.000Z</time>
      </trkpt>
      <trkpt lat="46.00122" lon="6.25564">
        <ele>722.08697509766</ele>
        <time>2013-09-15T06:37:36.000Z</time>
      </trkpt>
      <trkpt lat="46.00131" lon="6.25576">
        <ele>721.60699462891</ele>
        <time>2013-09-15T06:37:41.000Z</time>
      </trkpt>
      <trkpt lat="46.00141" lon="6.25597">
        <ele>718.24200439453</ele>
        <time>2013-09-15T06:37:47.000Z</time>
      </trkpt>
      <trkpt lat="46.00149" lon="6.25612">
        <ele>717.76098632812</ele>
        <time>2013-09-15T06:37:52.000Z</time>
      </trkpt>
      <trkpt lat="46.00155" lon="6.25624">
        <ele>718.24200439453</ele>
        <time>2013-09-15T06:37:56.000Z</time>
      </trkpt>
      <trkpt lat="46.00158" lon="6.25632">
        <ele>718.72302246094</ele>
        <time>2013-09-15T06:37:59.000Z</time>
      </trkpt>
      <trkpt lat="46.00161" lon="6.25637">
        <ele>719.20397949219</ele>
        <time>2013-09-15T06:38:01.000Z</time>
      </trkpt>
      <trkpt lat="46.00169" lon="6.25651">
        <ele>718.24200439453</ele>
        <time>2013-09-15T06:38:08.000Z</time>
      </trkpt>
      <trkpt lat="46.00175" lon="6.25662">
        <ele>722.08697509766</ele>
        <time>2013-09-15T06:38:13.000Z</time>
      </trkpt>
      <trkpt lat="46.00181" lon="6.25678">
        <ele>724.49102783203</ele>
        <time>2013-09-15T06:38:18.000Z</time>
      </trkpt>
      <trkpt lat="46.00182" lon="6.25682">
        <ele>724.01000976562</ele>
        <time>2013-09-15T06:38:19.000Z</time>
      </trkpt>
      <trkpt lat="46.0019" lon="6.25696">
        <ele>722.08697509766</ele>
        <time>2013-09-15T06:38:23.000Z</time>
      </trkpt>
      <trkpt lat="46.00204" lon="6.25707">
        <ele>720.64599609375</ele>
        <time>2013-09-15T06:38:27.000Z</time>
      </trkpt>
      <trkpt lat="46.00204" lon="6.25722">
        <ele>721.60699462891</ele>
        <time>2013-09-15T06:38:31.000Z</time>
      </trkpt>
      <trkpt lat="46.00212" lon="6.25741">
        <ele>720.64599609375</ele>
        <time>2013-09-15T06:38:37.000Z</time>
      </trkpt>
      <trkpt lat="46.00218" lon="6.25751">
        <ele>720.16497802734</ele>
        <time>2013-09-15T06:38:41.000Z</time>
      </trkpt>
      <trkpt lat="46.00227" lon="6.25768">
        <ele>720.16497802734</ele>
        <time>2013-09-15T06:38:46.000Z</time>
      </trkpt>
      <trkpt lat="46.00239" lon="6.25791">
        <ele>721.1259765625</ele>
        <time>2013-09-15T06:38:54.000Z</time>
      </trkpt>
      <trkpt lat="46.00245" lon="6.25801">
        <ele>721.1259765625</ele>
        <time>2013-09-15T06:38:58.000Z</time>
      </trkpt>
      <trkpt lat="46.00252" lon="6.2582">
        <ele>721.60699462891</ele>
        <time>2013-09-15T06:39:04.000Z</time>
      </trkpt>
      <trkpt lat="46.00259" lon="6.25833">
        <ele>723.04901123047</ele>
        <time>2013-09-15T06:39:09.000Z</time>
      </trkpt>
      <trkpt lat="46.00268" lon="6.25843">
        <ele>723.04901123047</ele>
        <time>2013-09-15T06:39:14.000Z</time>
      </trkpt>
      <trkpt lat="46.00273" lon="6.25853">
        <ele>724.97100830078</ele>
        <time>2013-09-15T06:39:18.000Z</time>
      </trkpt>
      <trkpt lat="46.00285" lon="6.25861">
        <ele>722.56799316406</ele>
        <time>2013-09-15T06:39:24.000Z</time>
      </trkpt>
      <trkpt lat="46.00295" lon="6.25874">
        <ele>723.53002929688</ele>
        <time>2013-09-15T06:39:30.000Z</time>
      </trkpt>
      <trkpt lat="46.00304" lon="6.25885">
        <ele>725.93298339844</ele>
        <time>2013-09-15T06:39:35.000Z</time>
      </trkpt>
      <trkpt lat="46.00317" lon="6.25892">
        <ele>725.93298339844</ele>
        <time>2013-09-15T06:39:41.000Z</time>
      </trkpt>
      <trkpt lat="46.00329" lon="6.259">
        <ele>725.45202636719</ele>
        <time>2013-09-15T06:39:47.000Z</time>
      </trkpt>
      <trkpt lat="46.00344" lon="6.2591">
        <ele>724.97100830078</ele>
        <time>2013-09-15T06:39:54.000Z</time>
      </trkpt>
      <trkpt lat="46.00354" lon="6.25917">
        <ele>725.45202636719</ele>
        <time>2013-09-15T06:39:59.000Z</time>
      </trkpt>
      <trkpt lat="46.00364" lon="6.25931">
        <ele>727.375</ele>
        <time>2013-09-15T06:40:05.000Z</time>
      </trkpt>
      <trkpt lat="46.00375" lon="6.25942">
        <ele>727.85498046875</ele>
        <time>2013-09-15T06:40:11.000Z</time>
      </trkpt>
      <trkpt lat="46.00385" lon="6.25949">
        <ele>728.33599853516</ele>
        <time>2013-09-15T06:40:16.000Z</time>
      </trkpt>
      <trkpt lat="46.00399" lon="6.25962">
        <ele>730.25897216797</ele>
        <time>2013-09-15T06:40:23.000Z</time>
      </trkpt>
      <trkpt lat="46.00409" lon="6.25973">
        <ele>730.25897216797</ele>
        <time>2013-09-15T06:40:28.000Z</time>
      </trkpt>
      <trkpt lat="46.00418" lon="6.25985">
        <ele>730.25897216797</ele>
        <time>2013-09-15T06:40:33.000Z</time>
      </trkpt>
      <trkpt lat="46.00426" lon="6.25998">
        <ele>729.77801513672</ele>
        <time>2013-09-15T06:40:38.000Z</time>
      </trkpt>
      <trkpt lat="46.00433" lon="6.26012">
        <ele>730.25897216797</ele>
        <time>2013-09-15T06:40:43.000Z</time>
      </trkpt>
      <trkpt lat="46.00441" lon="6.26027">
        <ele>729.29699707031</ele>
        <time>2013-09-15T06:40:49.000Z</time>
      </trkpt>
      <trkpt lat="46.00446" lon="6.26041">
        <ele>729.29699707031</ele>
        <time>2013-09-15T06:40:54.000Z</time>
      </trkpt>
      <trkpt lat="46.00453" lon="6.26056">
        <ele>731.70001220703</ele>
        <time>2013-09-15T06:40:59.000Z</time>
      </trkpt>
      <trkpt lat="46.0046" lon="6.26067">
        <ele>732.18103027344</ele>
        <time>2013-09-15T06:41:03.000Z</time>
      </trkpt>
      <trkpt lat="46.00468" lon="6.2608">
        <ele>733.14300537109</ele>
        <time>2013-09-15T06:41:08.000Z</time>
      </trkpt>
      <trkpt lat="46.0048" lon="6.26096">
        <ele>731.21997070312</ele>
        <time>2013-09-15T06:41:14.000Z</time>
      </trkpt>
      <trkpt lat="46.00491" lon="6.26109">
        <ele>729.77801513672</ele>
        <time>2013-09-15T06:41:19.000Z</time>
      </trkpt>
      <trkpt lat="46.005" lon="6.2612">
        <ele>730.25897216797</ele>
        <time>2013-09-15T06:41:25.000Z</time>
      </trkpt>
      <trkpt lat="46.005" lon="6.26122">
        <ele>730.25897216797</ele>
        <time>2013-09-15T06:41:26.000Z</time>
      </trkpt>
      <trkpt lat="46.00506" lon="6.26135">
        <ele>732.18103027344</ele>
        <time>2013-09-15T06:41:32.000Z</time>
      </trkpt>
      <trkpt lat="46.0051" lon="6.26143">
        <ele>730.73901367188</ele>
        <time>2013-09-15T06:41:35.000Z</time>
      </trkpt>
      <trkpt lat="46.00512" lon="6.26147">
        <ele>731.70001220703</ele>
        <time>2013-09-15T06:41:37.000Z</time>
      </trkpt>
      <trkpt lat="46.00522" lon="6.26157">
        <ele>731.70001220703</ele>
        <time>2013-09-15T06:41:42.000Z</time>
      </trkpt>
      <trkpt lat="46.00525" lon="6.26159">
        <ele>731.70001220703</ele>
        <time>2013-09-15T06:41:44.000Z</time>
      </trkpt>
      <trkpt lat="46.00534" lon="6.26166">
        <ele>729.77801513672</ele>
        <time>2013-09-15T06:41:49.000Z</time>
      </trkpt>
      <trkpt lat="46.00545" lon="6.26174">
        <ele>728.81701660156</ele>
        <time>2013-09-15T06:41:54.000Z</time>
      </trkpt>
      <trkpt lat="46.00558" lon="6.26182">
        <ele>729.29699707031</ele>
        <time>2013-09-15T06:42:00.000Z</time>
      </trkpt>
      <trkpt lat="46.00572" lon="6.26191">
        <ele>731.21997070312</ele>
        <time>2013-09-15T06:42:05.000Z</time>
      </trkpt>
      <trkpt lat="46.00588" lon="6.26199">
        <ele>734.10400390625</ele>
        <time>2013-09-15T06:42:10.000Z</time>
      </trkpt>
      <trkpt lat="46.00603" lon="6.26208">
        <ele>734.10400390625</ele>
        <time>2013-09-15T06:42:15.000Z</time>
      </trkpt>
      <trkpt lat="46.00605" lon="6.26209">
        <ele>733.62298583984</ele>
        <time>2013-09-15T06:42:16.000Z</time>
      </trkpt>
      <trkpt lat="46.00621" lon="6.26224">
        <ele>737.94897460938</ele>
        <time>2013-09-15T06:42:22.000Z</time>
      </trkpt>
      <trkpt lat="46.00628" lon="6.26229">
        <ele>738.42999267578</ele>
        <time>2013-09-15T06:42:25.000Z</time>
      </trkpt>
      <trkpt lat="46.00639" lon="6.2624">
        <ele>737.46899414062</ele>
        <time>2013-09-15T06:42:31.000Z</time>
      </trkpt>
      <trkpt lat="46.00648" lon="6.26256">
        <ele>737.94897460938</ele>
        <time>2013-09-15T06:42:37.000Z</time>
      </trkpt>
      <trkpt lat="46.00649" lon="6.26258">
        <ele>737.94897460938</ele>
        <time>2013-09-15T06:42:38.000Z</time>
      </trkpt>
      <trkpt lat="46.00655" lon="6.26267">
        <ele>738.42999267578</ele>
        <time>2013-09-15T06:42:42.000Z</time>
      </trkpt>
      <trkpt lat="46.00669" lon="6.26273">
        <ele>736.98797607422</ele>
        <time>2013-09-15T06:42:48.000Z</time>
      </trkpt>
      <trkpt lat="46.00677" lon="6.26277">
        <ele>737.46899414062</ele>
        <time>2013-09-15T06:42:52.000Z</time>
      </trkpt>
      <trkpt lat="46.00681" lon="6.26279">
        <ele>736.02697753906</ele>
        <time>2013-09-15T06:42:54.000Z</time>
      </trkpt>
      <trkpt lat="46.00689" lon="6.26283">
        <ele>735.06500244141</ele>
        <time>2013-09-15T06:42:58.000Z</time>
      </trkpt>
      <trkpt lat="46.00698" lon="6.2629">
        <ele>736.50701904297</ele>
        <time>2013-09-15T06:43:02.000Z</time>
      </trkpt>
      <trkpt lat="46.00708" lon="6.26302">
        <ele>737.46899414062</ele>
        <time>2013-09-15T06:43:08.000Z</time>
      </trkpt>
      <trkpt lat="46.00716" lon="6.26313">
        <ele>737.46899414062</ele>
        <time>2013-09-15T06:43:13.000Z</time>
      </trkpt>
      <trkpt lat="46.00723" lon="6.26327">
        <ele>738.42999267578</ele>
        <time>2013-09-15T06:43:18.000Z</time>
      </trkpt>
      <trkpt lat="46.00732" lon="6.26344">
        <ele>738.91101074219</ele>
        <time>2013-09-15T06:43:24.000Z</time>
      </trkpt>
      <trkpt lat="46.00739" lon="6.26356">
        <ele>740.8330078125</ele>
        <time>2013-09-15T06:43:29.000Z</time>
      </trkpt>
      <trkpt lat="46.00749" lon="6.26375">
        <ele>743.23602294922</ele>
        <time>2013-09-15T06:43:37.000Z</time>
      </trkpt>
      <trkpt lat="46.00756" lon="6.26386">
        <ele>744.19799804688</ele>
        <time>2013-09-15T06:43:42.000Z</time>
      </trkpt>
      <trkpt lat="46.00766" lon="6.26397">
        <ele>745.15899658203</ele>
        <time>2013-09-15T06:43:48.000Z</time>
      </trkpt>
      <trkpt lat="46.00776" lon="6.26409">
        <ele>746.60101318359</ele>
        <time>2013-09-15T06:43:54.000Z</time>
      </trkpt>
      <trkpt lat="46.00789" lon="6.26426">
        <ele>748.04302978516</ele>
        <time>2013-09-15T06:44:02.000Z</time>
      </trkpt>
      <trkpt lat="46.00798" lon="6.26439">
        <ele>749.00402832031</ele>
        <time>2013-09-15T06:44:08.000Z</time>
      </trkpt>
      <trkpt lat="46.00806" lon="6.26455">
        <ele>750.44702148438</ele>
        <time>2013-09-15T06:44:14.000Z</time>
      </trkpt>
      <trkpt lat="46.00814" lon="6.2647">
        <ele>750.92700195312</ele>
        <time>2013-09-15T06:44:20.000Z</time>
      </trkpt>
      <trkpt lat="46.00822" lon="6.26485">
        <ele>749.96600341797</ele>
        <time>2013-09-15T06:44:26.000Z</time>
      </trkpt>
      <trkpt lat="46.0083" lon="6.265">
        <ele>749.48498535156</ele>
        <time>2013-09-15T06:44:32.000Z</time>
      </trkpt>
      <trkpt lat="46.00837" lon="6.26515">
        <ele>749.00402832031</ele>
        <time>2013-09-15T06:44:38.000Z</time>
      </trkpt>
      <trkpt lat="46.00845" lon="6.26539">
        <ele>749.00402832031</ele>
        <time>2013-09-15T06:44:46.000Z</time>
      </trkpt>
      <trkpt lat="46.00849" lon="6.26551">
        <ele>749.00402832031</ele>
        <time>2013-09-15T06:44:50.000Z</time>
      </trkpt>
      <trkpt lat="46.00854" lon="6.26564">
        <ele>749.00402832031</ele>
        <time>2013-09-15T06:44:55.000Z</time>
      </trkpt>
      <trkpt lat="46.0086" lon="6.26572">
        <ele>749.48498535156</ele>
        <time>2013-09-15T06:44:59.000Z</time>
      </trkpt>
      <trkpt lat="46.00867" lon="6.26578">
        <ele>749.48498535156</ele>
        <time>2013-09-15T06:45:02.000Z</time>
      </trkpt>
      <trkpt lat="46.00869" lon="6.26587">
        <ele>749.48498535156</ele>
        <time>2013-09-15T06:45:06.000Z</time>
      </trkpt>
      <trkpt lat="46.00874" lon="6.26595">
        <ele>749.96600341797</ele>
        <time>2013-09-15T06:45:10.000Z</time>
      </trkpt>
      <trkpt lat="46.00883" lon="6.2661">
        <ele>749.00402832031</ele>
        <time>2013-09-15T06:45:16.000Z</time>
      </trkpt>
      <trkpt lat="46.00888" lon="6.26624">
        <ele>750.92700195312</ele>
        <time>2013-09-15T06:45:21.000Z</time>
      </trkpt>
      <trkpt lat="46.009" lon="6.26638">
        <ele>752.36901855469</ele>
        <time>2013-09-15T06:45:28.000Z</time>
      </trkpt>
      <trkpt lat="46.00909" lon="6.26642">
        <ele>753.33001708984</ele>
        <time>2013-09-15T06:45:32.000Z</time>
      </trkpt>
      <trkpt lat="46.00911" lon="6.26642">
        <ele>753.33001708984</ele>
        <time>2013-09-15T06:45:33.000Z</time>
      </trkpt>
      <trkpt lat="46.00922" lon="6.26636">
        <ele>754.77197265625</ele>
        <time>2013-09-15T06:45:38.000Z</time>
      </trkpt>
      <trkpt lat="46.00927" lon="6.26636">
        <ele>754.77197265625</ele>
        <time>2013-09-15T06:45:42.000Z</time>
      </trkpt>
      <trkpt lat="46.00931" lon="6.26635">
        <ele>754.77197265625</ele>
        <time>2013-09-15T06:45:44.000Z</time>
      </trkpt>
      <trkpt lat="46.00944" lon="6.26635">
        <ele>750.92700195312</ele>
        <time>2013-09-15T06:45:50.000Z</time>
      </trkpt>
      <trkpt lat="46.00954" lon="6.26639">
        <ele>750.44702148438</ele>
        <time>2013-09-15T06:45:54.000Z</time>
      </trkpt>
      <trkpt lat="46.00964" lon="6.26644">
        <ele>750.92700195312</ele>
        <time>2013-09-15T06:45:58.000Z</time>
      </trkpt>
      <trkpt lat="46.00977" lon="6.26656">
        <ele>756.21398925781</ele>
        <time>2013-09-15T06:46:04.000Z</time>
      </trkpt>
      <trkpt lat="46.00983" lon="6.26669">
        <ele>757.65600585938</ele>
        <time>2013-09-15T06:46:09.000Z</time>
      </trkpt>
      <trkpt lat="46.00989" lon="6.26685">
        <ele>758.13702392578</ele>
        <time>2013-09-15T06:46:15.000Z</time>
      </trkpt>
      <trkpt lat="46.0099" lon="6.26687">
        <ele>757.65600585938</ele>
        <time>2013-09-15T06:46:16.000Z</time>
      </trkpt>
      <trkpt lat="46.00992" lon="6.26702">
        <ele>759.09802246094</ele>
        <time>2013-09-15T06:46:22.000Z</time>
      </trkpt>
      <trkpt lat="46.00993" lon="6.26704">
        <ele>759.57897949219</ele>
        <time>2013-09-15T06:46:23.000Z</time>
      </trkpt>
      <trkpt lat="46.00998" lon="6.26718">
        <ele>760.05902099609</ele>
        <time>2013-09-15T06:46:28.000Z</time>
      </trkpt>
      <trkpt lat="46.01" lon="6.2672">
        <ele>760.53997802734</ele>
        <time>2013-09-15T06:46:29.000Z</time>
      </trkpt>
      <trkpt lat="46.01002" lon="6.26725">
        <ele>761.02099609375</ele>
        <time>2013-09-15T06:46:31.000Z</time>
      </trkpt>
      <trkpt lat="46.0101" lon="6.2674">
        <ele>761.02099609375</ele>
        <time>2013-09-15T06:46:37.000Z</time>
      </trkpt>
      <trkpt lat="46.01011" lon="6.26742">
        <ele>761.02099609375</ele>
        <time>2013-09-15T06:46:38.000Z</time>
      </trkpt>
      <trkpt lat="46.01016" lon="6.26756">
        <ele>762.46301269531</ele>
        <time>2013-09-15T06:46:43.000Z</time>
      </trkpt>
      <trkpt lat="46.01021" lon="6.26776">
        <ele>761.02099609375</ele>
        <time>2013-09-15T06:46:49.000Z</time>
      </trkpt>
      <trkpt lat="46.01023" lon="6.26792">
        <ele>761.02099609375</ele>
        <time>2013-09-15T06:46:54.000Z</time>
      </trkpt>
      <trkpt lat="46.01023" lon="6.26795">
        <ele>761.02099609375</ele>
        <time>2013-09-15T06:46:55.000Z</time>
      </trkpt>
      <trkpt lat="46.01023" lon="6.26816">
        <ele>761.98199462891</ele>
        <time>2013-09-15T06:47:01.000Z</time>
      </trkpt>
      <trkpt lat="46.01024" lon="6.26838">
        <ele>762.94299316406</ele>
        <time>2013-09-15T06:47:08.000Z</time>
      </trkpt>
      <trkpt lat="46.01025" lon="6.26856">
        <ele>763.42401123047</ele>
        <time>2013-09-15T06:47:13.000Z</time>
      </trkpt>
      <trkpt lat="46.01027" lon="6.26876">
        <ele>763.90502929688</ele>
        <time>2013-09-15T06:47:19.000Z</time>
      </trkpt>
      <trkpt lat="46.01027" lon="6.26897">
        <ele>763.42401123047</ele>
        <time>2013-09-15T06:47:25.000Z</time>
      </trkpt>
      <trkpt lat="46.01028" lon="6.26912">
        <ele>762.46301269531</ele>
        <time>2013-09-15T06:47:29.000Z</time>
      </trkpt>
      <trkpt lat="46.0103" lon="6.26933">
        <ele>761.02099609375</ele>
        <time>2013-09-15T06:47:35.000Z</time>
      </trkpt>
      <trkpt lat="46.01032" lon="6.26956">
        <ele>758.61700439453</ele>
        <time>2013-09-15T06:47:41.000Z</time>
      </trkpt>
      <trkpt lat="46.01032" lon="6.26978">
        <ele>757.17602539062</ele>
        <time>2013-09-15T06:47:47.000Z</time>
      </trkpt>
      <trkpt lat="46.01026" lon="6.26997">
        <ele>755.73400878906</ele>
        <time>2013-09-15T06:47:53.000Z</time>
      </trkpt>
      <trkpt lat="46.01019" lon="6.27011">
        <ele>756.21398925781</ele>
        <time>2013-09-15T06:47:58.000Z</time>
      </trkpt>
      <trkpt lat="46.0101" lon="6.27031">
        <ele>756.69500732422</ele>
        <time>2013-09-15T06:48:04.000Z</time>
      </trkpt>
      <trkpt lat="46.01001" lon="6.27058">
        <ele>758.13702392578</ele>
        <time>2013-09-15T06:48:12.000Z</time>
      </trkpt>
      <trkpt lat="46.00995" lon="6.27072">
        <ele>761.5009765625</ele>
        <time>2013-09-15T06:48:17.000Z</time>
      </trkpt>
      <trkpt lat="46.00993" lon="6.27077">
        <ele>762.94299316406</ele>
        <time>2013-09-15T06:48:19.000Z</time>
      </trkpt>
      <trkpt lat="46.00985" lon="6.27098">
        <ele>763.90502929688</ele>
        <time>2013-09-15T06:48:26.000Z</time>
      </trkpt>
      <trkpt lat="46.00977" lon="6.27116">
        <ele>764.38500976562</ele>
        <time>2013-09-15T06:48:32.000Z</time>
      </trkpt>
      <trkpt lat="46.00967" lon="6.27138">
        <ele>762.94299316406</ele>
        <time>2013-09-15T06:48:39.000Z</time>
      </trkpt>
      <trkpt lat="46.00959" lon="6.2716">
        <ele>762.46301269531</ele>
        <time>2013-09-15T06:48:46.000Z</time>
      </trkpt>
      <trkpt lat="46.00956" lon="6.2718">
        <ele>762.46301269531</ele>
        <time>2013-09-15T06:48:52.000Z</time>
      </trkpt>
      <trkpt lat="46.00957" lon="6.27196">
        <ele>762.46301269531</ele>
        <time>2013-09-15T06:48:57.000Z</time>
      </trkpt>
      <trkpt lat="46.00962" lon="6.27213">
        <ele>763.90502929688</ele>
        <time>2013-09-15T06:49:03.000Z</time>
      </trkpt>
      <trkpt lat="46.00969" lon="6.27226">
        <ele>763.90502929688</ele>
        <time>2013-09-15T06:49:09.000Z</time>
      </trkpt>
      <trkpt lat="46.0097" lon="6.27227">
        <ele>764.38500976562</ele>
        <time>2013-09-15T06:49:10.000Z</time>
      </trkpt>
      <trkpt lat="46.00975" lon="6.27237">
        <ele>766.30798339844</ele>
        <time>2013-09-15T06:49:17.000Z</time>
      </trkpt>
      <trkpt lat="46.00975" lon="6.27238">
        <ele>766.30798339844</ele>
        <time>2013-09-15T06:49:18.000Z</time>
      </trkpt>
      <trkpt lat="46.00977" lon="6.2724">
        <ele>766.78900146484</ele>
        <time>2013-09-15T06:49:20.000Z</time>
      </trkpt>
      <trkpt lat="46.00983" lon="6.27253">
        <ele>766.78900146484</ele>
        <time>2013-09-15T06:49:27.000Z</time>
      </trkpt>
      <trkpt lat="46.00984" lon="6.27255">
        <ele>766.78900146484</ele>
        <time>2013-09-15T06:49:28.000Z</time>
      </trkpt>
      <trkpt lat="46.0099" lon="6.27262">
        <ele>767.27001953125</ele>
        <time>2013-09-15T06:49:32.000Z</time>
      </trkpt>
      <trkpt lat="46.00997" lon="6.27277">
        <ele>768.23101806641</ele>
        <time>2013-09-15T06:49:38.000Z</time>
      </trkpt>
      <trkpt lat="46.01003" lon="6.2729">
        <ele>769.67297363281</ele>
        <time>2013-09-15T06:49:43.000Z</time>
      </trkpt>
      <trkpt lat="46.01009" lon="6.27302">
        <ele>770.63397216797</ele>
        <time>2013-09-15T06:49:49.000Z</time>
      </trkpt>
      <trkpt lat="46.01011" lon="6.27319">
        <ele>773.03698730469</ele>
        <time>2013-09-15T06:49:56.000Z</time>
      </trkpt>
      <trkpt lat="46.01015" lon="6.27331">
        <ele>774.96002197266</ele>
        <time>2013-09-15T06:50:02.000Z</time>
      </trkpt>
      <trkpt lat="46.01016" lon="6.27335">
        <ele>774.96002197266</ele>
        <time>2013-09-15T06:50:04.000Z</time>
      </trkpt>
      <trkpt lat="46.01018" lon="6.27344">
        <ele>776.40197753906</ele>
        <time>2013-09-15T06:50:09.000Z</time>
      </trkpt>
      <trkpt lat="46.01022" lon="6.27349">
        <ele>777.36297607422</ele>
        <time>2013-09-15T06:50:12.000Z</time>
      </trkpt>
      <trkpt lat="46.01026" lon="6.27357">
        <ele>778.32397460938</ele>
        <time>2013-09-15T06:50:18.000Z</time>
      </trkpt>
      <trkpt lat="46.01031" lon="6.27369">
        <ele>778.80499267578</ele>
        <time>2013-09-15T06:50:25.000Z</time>
      </trkpt>
      <trkpt lat="46.01033" lon="6.27378">
        <ele>780.72802734375</ele>
        <time>2013-09-15T06:50:29.000Z</time>
      </trkpt>
      <trkpt lat="46.01034" lon="6.27383">
        <ele>781.68902587891</ele>
        <time>2013-09-15T06:50:31.000Z</time>
      </trkpt>
      <trkpt lat="46.01038" lon="6.27399">
        <ele>782.16998291016</ele>
        <time>2013-09-15T06:50:40.000Z</time>
      </trkpt>
      <trkpt lat="46.01039" lon="6.27413">
        <ele>782.16998291016</ele>
        <time>2013-09-15T06:50:47.000Z</time>
      </trkpt>
      <trkpt lat="46.0104" lon="6.27425">
        <ele>782.16998291016</ele>
        <time>2013-09-15T06:50:53.000Z</time>
      </trkpt>
      <trkpt lat="46.01041" lon="6.27442">
        <ele>782.16998291016</ele>
        <time>2013-09-15T06:51:02.000Z</time>
      </trkpt>
      <trkpt lat="46.01042" lon="6.27459">
        <ele>783.13098144531</ele>
        <time>2013-09-15T06:51:10.000Z</time>
      </trkpt>
      <trkpt lat="46.01045" lon="6.27472">
        <ele>784.09301757812</ele>
        <time>2013-09-15T06:51:18.000Z</time>
      </trkpt>
      <trkpt lat="46.01047" lon="6.27489">
        <ele>786.49597167969</ele>
        <time>2013-09-15T06:51:27.000Z</time>
      </trkpt>
      <trkpt lat="46.01049" lon="6.27502">
        <ele>788.89898681641</ele>
        <time>2013-09-15T06:51:35.000Z</time>
      </trkpt>
      <trkpt lat="46.01053" lon="6.27513">
        <ele>788.41802978516</ele>
        <time>2013-09-15T06:51:41.000Z</time>
      </trkpt>
      <trkpt lat="46.01054" lon="6.27516">
        <ele>788.41802978516</ele>
        <time>2013-09-15T06:51:43.000Z</time>
      </trkpt>
      <trkpt lat="46.01058" lon="6.2753">
        <ele>789.85998535156</ele>
        <time>2013-09-15T06:51:51.000Z</time>
      </trkpt>
      <trkpt lat="46.01059" lon="6.27534">
        <ele>790.82202148438</ele>
        <time>2013-09-15T06:51:54.000Z</time>
      </trkpt>
      <trkpt lat="46.01059" lon="6.27538">
        <ele>791.78302001953</ele>
        <time>2013-09-15T06:51:57.000Z</time>
      </trkpt>
      <trkpt lat="46.01062" lon="6.27549">
        <ele>793.70599365234</ele>
        <time>2013-09-15T06:52:04.000Z</time>
      </trkpt>
      <trkpt lat="46.01067" lon="6.27562">
        <ele>794.6669921875</ele>
        <time>2013-09-15T06:52:12.000Z</time>
      </trkpt>
      <trkpt lat="46.01071" lon="6.27572">
        <ele>796.59002685547</ele>
        <time>2013-09-15T06:52:19.000Z</time>
      </trkpt>
      <trkpt lat="46.01074" lon="6.2758">
        <ele>798.51202392578</ele>
        <time>2013-09-15T06:52:24.000Z</time>
      </trkpt>
      <trkpt lat="46.01075" lon="6.27591">
        <ele>798.03198242188</ele>
        <time>2013-09-15T06:52:30.000Z</time>
      </trkpt>
      <trkpt lat="46.01075" lon="6.27593">
        <ele>798.03198242188</ele>
        <time>2013-09-15T06:52:31.000Z</time>
      </trkpt>
      <trkpt lat="46.01075" lon="6.27605">
        <ele>798.03198242188</ele>
        <time>2013-09-15T06:52:37.000Z</time>
      </trkpt>
      <trkpt lat="46.01077" lon="6.2762">
        <ele>798.51202392578</ele>
        <time>2013-09-15T06:52:45.000Z</time>
      </trkpt>
      <trkpt lat="46.01078" lon="6.27631">
        <ele>798.99298095703</ele>
        <time>2013-09-15T06:52:51.000Z</time>
      </trkpt>
      <trkpt lat="46.01073" lon="6.27637">
        <ele>799.95397949219</ele>
        <time>2013-09-15T06:52:58.000Z</time>
      </trkpt>
      <trkpt lat="46.01065" lon="6.27642">
        <ele>801.39599609375</ele>
        <time>2013-09-15T06:53:04.000Z</time>
      </trkpt>
      <trkpt lat="46.01063" lon="6.27643">
        <ele>804.28002929688</ele>
        <time>2013-09-15T06:53:07.000Z</time>
      </trkpt>
      <trkpt lat="46.01048" lon="6.27649">
        <ele>807.64501953125</ele>
        <time>2013-09-15T06:53:15.000Z</time>
      </trkpt>
      <trkpt lat="46.0104" lon="6.27656">
        <ele>804.76098632812</ele>
        <time>2013-09-15T06:53:22.000Z</time>
      </trkpt>
      <trkpt lat="46.0103" lon="6.27662">
        <ele>810.04797363281</ele>
        <time>2013-09-15T06:53:30.000Z</time>
      </trkpt>
      <trkpt lat="46.01023" lon="6.27671">
        <ele>809.08697509766</ele>
        <time>2013-09-15T06:53:37.000Z</time>
      </trkpt>
      <trkpt lat="46.01018" lon="6.27678">
        <ele>808.60601806641</ele>
        <time>2013-09-15T06:53:43.000Z</time>
      </trkpt>
      <trkpt lat="46.0102" lon="6.27691">
        <ele>806.68298339844</ele>
        <time>2013-09-15T06:53:49.000Z</time>
      </trkpt>
      <trkpt lat="46.01021" lon="6.27693">
        <ele>806.68298339844</ele>
        <time>2013-09-15T06:53:50.000Z</time>
      </trkpt>
      <trkpt lat="46.01028" lon="6.27702">
        <ele>805.72198486328</ele>
        <time>2013-09-15T06:53:56.000Z</time>
      </trkpt>
      <trkpt lat="46.01034" lon="6.27711">
        <ele>804.76098632812</ele>
        <time>2013-09-15T06:54:01.000Z</time>
      </trkpt>
      <trkpt lat="46.0104" lon="6.2772">
        <ele>805.24102783203</ele>
        <time>2013-09-15T06:54:05.000Z</time>
      </trkpt>
      <trkpt lat="46.01048" lon="6.27729">
        <ele>806.68298339844</ele>
        <time>2013-09-15T06:54:10.000Z</time>
      </trkpt>
      <trkpt lat="46.01053" lon="6.27736">
        <ele>805.72198486328</ele>
        <time>2013-09-15T06:54:14.000Z</time>
      </trkpt>
      <trkpt lat="46.01064" lon="6.27749">
        <ele>805.72198486328</ele>
        <time>2013-09-15T06:54:21.000Z</time>
      </trkpt>
      <trkpt lat="46.01073" lon="6.27759">
        <ele>807.64501953125</ele>
        <time>2013-09-15T06:54:27.000Z</time>
      </trkpt>
      <trkpt lat="46.01082" lon="6.2777">
        <ele>807.64501953125</ele>
        <time>2013-09-15T06:54:33.000Z</time>
      </trkpt>
      <trkpt lat="46.01093" lon="6.27781">
        <ele>807.64501953125</ele>
        <time>2013-09-15T06:54:40.000Z</time>
      </trkpt>
      <trkpt lat="46.01103" lon="6.27792">
        <ele>808.125</ele>
        <time>2013-09-15T06:54:46.000Z</time>
      </trkpt>
      <trkpt lat="46.01114" lon="6.27803">
        <ele>810.52899169922</ele>
        <time>2013-09-15T06:54:52.000Z</time>
      </trkpt>
      <trkpt lat="46.01122" lon="6.27811">
        <ele>810.52899169922</ele>
        <time>2013-09-15T06:54:57.000Z</time>
      </trkpt>
      <trkpt lat="46.01134" lon="6.27823">
        <ele>809.56701660156</ele>
        <time>2013-09-15T06:55:04.000Z</time>
      </trkpt>
      <trkpt lat="46.01144" lon="6.27835">
        <ele>809.56701660156</ele>
        <time>2013-09-15T06:55:10.000Z</time>
      </trkpt>
      <trkpt lat="46.01154" lon="6.27847">
        <ele>809.08697509766</ele>
        <time>2013-09-15T06:55:16.000Z</time>
      </trkpt>
      <trkpt lat="46.01166" lon="6.27863">
        <ele>808.125</ele>
        <time>2013-09-15T06:55:23.000Z</time>
      </trkpt>
      <trkpt lat="46.01177" lon="6.2788">
        <ele>809.56701660156</ele>
        <time>2013-09-15T06:55:29.000Z</time>
      </trkpt>
      <trkpt lat="46.01187" lon="6.27894">
        <ele>811.00897216797</ele>
        <time>2013-09-15T06:55:34.000Z</time>
      </trkpt>
      <trkpt lat="46.01194" lon="6.27904">
        <ele>811.48999023438</ele>
        <time>2013-09-15T06:55:38.000Z</time>
      </trkpt>
      <trkpt lat="46.01201" lon="6.2792">
        <ele>811.48999023438</ele>
        <time>2013-09-15T06:55:44.000Z</time>
      </trkpt>
      <trkpt lat="46.01196" lon="6.27931">
        <ele>811.97100830078</ele>
        <time>2013-09-15T06:55:49.000Z</time>
      </trkpt>
      <trkpt lat="46.01194" lon="6.27933">
        <ele>812.45098876953</ele>
        <time>2013-09-15T06:55:50.000Z</time>
      </trkpt>
      <trkpt lat="46.01187" lon="6.27943">
        <ele>812.93200683594</ele>
        <time>2013-09-15T06:55:55.000Z</time>
      </trkpt>
      <trkpt lat="46.01178" lon="6.27955">
        <ele>815.33502197266</ele>
        <time>2013-09-15T06:56:01.000Z</time>
      </trkpt>
      <trkpt lat="46.01171" lon="6.27963">
        <ele>815.33502197266</ele>
        <time>2013-09-15T06:56:05.000Z</time>
      </trkpt>
      <trkpt lat="46.01168" lon="6.2798">
        <ele>817.25799560547</ele>
        <time>2013-09-15T06:56:12.000Z</time>
      </trkpt>
      <trkpt lat="46.01162" lon="6.27994">
        <ele>819.18103027344</ele>
        <time>2013-09-15T06:56:19.000Z</time>
      </trkpt>
      <trkpt lat="46.01157" lon="6.28001">
        <ele>824.46801757812</ele>
        <time>2013-09-15T06:56:26.000Z</time>
      </trkpt>
      <trkpt lat="46.0115" lon="6.28008">
        <ele>826.39001464844</ele>
        <time>2013-09-15T06:56:33.000Z</time>
      </trkpt>
      <trkpt lat="46.01144" lon="6.28014">
        <ele>829.27398681641</ele>
        <time>2013-09-15T06:56:40.000Z</time>
      </trkpt>
      <trkpt lat="46.01139" lon="6.28022">
        <ele>829.75500488281</ele>
        <time>2013-09-15T06:56:45.000Z</time>
      </trkpt>
      <trkpt lat="46.01137" lon="6.28026">
        <ele>829.27398681641</ele>
        <time>2013-09-15T06:56:47.000Z</time>
      </trkpt>
      <trkpt lat="46.0113" lon="6.28037">
        <ele>826.39001464844</ele>
        <time>2013-09-15T06:56:53.000Z</time>
      </trkpt>
      <trkpt lat="46.01124" lon="6.28046">
        <ele>825.90997314453</ele>
        <time>2013-09-15T06:56:58.000Z</time>
      </trkpt>
      <trkpt lat="46.01123" lon="6.28048">
        <ele>825.90997314453</ele>
        <time>2013-09-15T06:56:59.000Z</time>
      </trkpt>
      <trkpt lat="46.01118" lon="6.28055">
        <ele>824.94799804688</ele>
        <time>2013-09-15T06:57:05.000Z</time>
      </trkpt>
      <trkpt lat="46.01114" lon="6.28062">
        <ele>824.46801757812</ele>
        <time>2013-09-15T06:57:11.000Z</time>
      </trkpt>
      <trkpt lat="46.01111" lon="6.28068">
        <ele>825.42901611328</ele>
        <time>2013-09-15T06:57:15.000Z</time>
      </trkpt>
      <trkpt lat="46.01106" lon="6.28075">
        <ele>826.87097167969</ele>
        <time>2013-09-15T06:57:21.000Z</time>
      </trkpt>
      <trkpt lat="46.01105" lon="6.28078">
        <ele>826.87097167969</ele>
        <time>2013-09-15T06:57:23.000Z</time>
      </trkpt>
      <trkpt lat="46.011" lon="6.28086">
        <ele>827.83197021484</ele>
        <time>2013-09-15T06:57:29.000Z</time>
      </trkpt>
      <trkpt lat="46.01092" lon="6.28096">
        <ele>828.79400634766</ele>
        <time>2013-09-15T06:57:37.000Z</time>
      </trkpt>
      <trkpt lat="46.01089" lon="6.28101">
        <ele>829.27398681641</ele>
        <time>2013-09-15T06:57:41.000Z</time>
      </trkpt>
      <trkpt lat="46.01085" lon="6.28104">
        <ele>829.75500488281</ele>
        <time>2013-09-15T06:57:44.000Z</time>
      </trkpt>
      <trkpt lat="46.0108" lon="6.28112">
        <ele>831.19702148438</ele>
        <time>2013-09-15T06:57:50.000Z</time>
      </trkpt>
      <trkpt lat="46.01075" lon="6.28117">
        <ele>832.15802001953</ele>
        <time>2013-09-15T06:57:55.000Z</time>
      </trkpt>
      <trkpt lat="46.01074" lon="6.28118">
        <ele>832.63897705078</ele>
        <time>2013-09-15T06:57:56.000Z</time>
      </trkpt>
      <trkpt lat="46.01069" lon="6.28127">
        <ele>834.56201171875</ele>
        <time>2013-09-15T06:58:03.000Z</time>
      </trkpt>
      <trkpt lat="46.01067" lon="6.28132">
        <ele>835.0419921875</ele>
        <time>2013-09-15T06:58:07.000Z</time>
      </trkpt>
      <trkpt lat="46.0106" lon="6.28142">
        <ele>837.44598388672</ele>
        <time>2013-09-15T06:58:13.000Z</time>
      </trkpt>
      <trkpt lat="46.01058" lon="6.28153">
        <ele>841.291015625</ele>
        <time>2013-09-15T06:58:20.000Z</time>
      </trkpt>
      <trkpt lat="46.01055" lon="6.28163">
        <ele>842.25201416016</ele>
        <time>2013-09-15T06:58:27.000Z</time>
      </trkpt>
      <trkpt lat="46.01051" lon="6.28169">
        <ele>843.21301269531</ele>
        <time>2013-09-15T06:58:32.000Z</time>
      </trkpt>
      <trkpt lat="46.01048" lon="6.28173">
        <ele>843.69396972656</ele>
        <time>2013-09-15T06:58:35.000Z</time>
      </trkpt>
      <trkpt lat="46.01043" lon="6.28179">
        <ele>844.65600585938</ele>
        <time>2013-09-15T06:58:39.000Z</time>
      </trkpt>
      <trkpt lat="46.01039" lon="6.28188">
        <ele>846.09802246094</ele>
        <time>2013-09-15T06:58:46.000Z</time>
      </trkpt>
      <trkpt lat="46.01035" lon="6.28197">
        <ele>848.02001953125</ele>
        <time>2013-09-15T06:58:52.000Z</time>
      </trkpt>
      <trkpt lat="46.01026" lon="6.28204">
        <ele>847.53997802734</ele>
        <time>2013-09-15T06:58:58.000Z</time>
      </trkpt>
      <trkpt lat="46.0102" lon="6.2821">
        <ele>848.5009765625</ele>
        <time>2013-09-15T06:59:03.000Z</time>
      </trkpt>
      <trkpt lat="46.01017" lon="6.28216">
        <ele>848.98101806641</ele>
        <time>2013-09-15T06:59:08.000Z</time>
      </trkpt>
      <trkpt lat="46.01015" lon="6.28217">
        <ele>848.98101806641</ele>
        <time>2013-09-15T06:59:09.000Z</time>
      </trkpt>
      <trkpt lat="46.0101" lon="6.28226">
        <ele>850.90399169922</ele>
        <time>2013-09-15T06:59:16.000Z</time>
      </trkpt>
      <trkpt lat="46.01005" lon="6.28236">
        <ele>851.86499023438</ele>
        <time>2013-09-15T06:59:23.000Z</time>
      </trkpt>
      <trkpt lat="46.01" lon="6.28243">
        <ele>851.38500976562</ele>
        <time>2013-09-15T06:59:29.000Z</time>
      </trkpt>
      <trkpt lat="46.00996" lon="6.2825">
        <ele>853.30700683594</ele>
        <time>2013-09-15T06:59:35.000Z</time>
      </trkpt>
      <trkpt lat="46.00994" lon="6.28252">
        <ele>854.26898193359</ele>
        <time>2013-09-15T06:59:38.000Z</time>
      </trkpt>
      <trkpt lat="46.00988" lon="6.28253">
        <ele>855.22998046875</ele>
        <time>2013-09-15T06:59:43.000Z</time>
      </trkpt>
      <trkpt lat="46.00982" lon="6.28255">
        <ele>857.15301513672</ele>
        <time>2013-09-15T06:59:48.000Z</time>
      </trkpt>
      <trkpt lat="46.00974" lon="6.28262">
        <ele>861.47900390625</ele>
        <time>2013-09-15T06:59:56.000Z</time>
      </trkpt>
      <trkpt lat="46.00965" lon="6.28268">
        <ele>868.68798828125</ele>
        <time>2013-09-15T07:00:03.000Z</time>
      </trkpt>
      <trkpt lat="46.00963" lon="6.28272">
        <ele>870.13000488281</ele>
        <time>2013-09-15T07:00:06.000Z</time>
      </trkpt>
      <trkpt lat="46.0096" lon="6.28275">
        <ele>871.57202148438</ele>
        <time>2013-09-15T07:00:09.000Z</time>
      </trkpt>
      <trkpt lat="46.00956" lon="6.28285">
        <ele>871.57202148438</ele>
        <time>2013-09-15T07:00:15.000Z</time>
      </trkpt>
      <trkpt lat="46.00955" lon="6.28286">
        <ele>871.57202148438</ele>
        <time>2013-09-15T07:00:16.000Z</time>
      </trkpt>
      <trkpt lat="46.0095" lon="6.28295">
        <ele>870.13000488281</ele>
        <time>2013-09-15T07:00:22.000Z</time>
      </trkpt>
      <trkpt lat="46.00949" lon="6.28306">
        <ele>867.72698974609</ele>
        <time>2013-09-15T07:00:30.000Z</time>
      </trkpt>
      <trkpt lat="46.00948" lon="6.28313">
        <ele>866.76599121094</ele>
        <time>2013-09-15T07:00:34.000Z</time>
      </trkpt>
      <trkpt lat="46.00946" lon="6.28317">
        <ele>867.24700927734</ele>
        <time>2013-09-15T07:00:38.000Z</time>
      </trkpt>
      <trkpt lat="46.00942" lon="6.28323">
        <ele>867.72698974609</ele>
        <time>2013-09-15T07:00:44.000Z</time>
      </trkpt>
      <trkpt lat="46.00939" lon="6.28326">
        <ele>868.68798828125</ele>
        <time>2013-09-15T07:00:48.000Z</time>
      </trkpt>
      <trkpt lat="46.00935" lon="6.28329">
        <ele>869.65002441406</ele>
        <time>2013-09-15T07:00:52.000Z</time>
      </trkpt>
      <trkpt lat="46.0093" lon="6.28331">
        <ele>870.61102294922</ele>
        <time>2013-09-15T07:00:56.000Z</time>
      </trkpt>
      <trkpt lat="46.00923" lon="6.28335">
        <ele>879.74401855469</ele>
        <time>2013-09-15T07:01:03.000Z</time>
      </trkpt>
      <trkpt lat="46.0092" lon="6.28337">
        <ele>881.18597412109</ele>
        <time>2013-09-15T07:01:07.000Z</time>
      </trkpt>
      <trkpt lat="46.00916" lon="6.2834">
        <ele>883.10797119141</ele>
        <time>2013-09-15T07:01:12.000Z</time>
      </trkpt>
      <trkpt lat="46.00913" lon="6.28343">
        <ele>883.10797119141</ele>
        <time>2013-09-15T07:01:16.000Z</time>
      </trkpt>
      <trkpt lat="46.00911" lon="6.28347">
        <ele>882.62799072266</ele>
        <time>2013-09-15T07:01:20.000Z</time>
      </trkpt>
      <trkpt lat="46.00907" lon="6.28349">
        <ele>884.07000732422</ele>
        <time>2013-09-15T07:01:25.000Z</time>
      </trkpt>
      <trkpt lat="46.00902" lon="6.28352">
        <ele>885.99200439453</ele>
        <time>2013-09-15T07:01:30.000Z</time>
      </trkpt>
      <trkpt lat="46.009" lon="6.28356">
        <ele>887.43402099609</ele>
        <time>2013-09-15T07:01:35.000Z</time>
      </trkpt>
      <trkpt lat="46.00897" lon="6.28362">
        <ele>888.39599609375</ele>
        <time>2013-09-15T07:01:40.000Z</time>
      </trkpt>
      <trkpt lat="46.00898" lon="6.28367">
        <ele>890.31799316406</ele>
        <time>2013-09-15T07:01:44.000Z</time>
      </trkpt>
      <trkpt lat="46.00893" lon="6.28372">
        <ele>888.8759765625</ele>
        <time>2013-09-15T07:01:49.000Z</time>
      </trkpt>
      <trkpt lat="46.00891" lon="6.28377">
        <ele>891.27899169922</ele>
        <time>2013-09-15T07:01:53.000Z</time>
      </trkpt>
      <trkpt lat="46.00889" lon="6.28385">
        <ele>894.16400146484</ele>
        <time>2013-09-15T07:01:58.000Z</time>
      </trkpt>
      <trkpt lat="46.0089" lon="6.2839">
        <ele>895.125</ele>
        <time>2013-09-15T07:02:02.000Z</time>
      </trkpt>
      <trkpt lat="46.00888" lon="6.28396">
        <ele>897.04699707031</ele>
        <time>2013-09-15T07:02:06.000Z</time>
      </trkpt>
      <trkpt lat="46.00885" lon="6.28404">
        <ele>899.93103027344</ele>
        <time>2013-09-15T07:02:11.000Z</time>
      </trkpt>
      <trkpt lat="46.00885" lon="6.28409">
        <ele>901.37298583984</ele>
        <time>2013-09-15T07:02:16.000Z</time>
      </trkpt>
      <trkpt lat="46.0088" lon="6.28415">
        <ele>902.81500244141</ele>
        <time>2013-09-15T07:02:24.000Z</time>
      </trkpt>
      <trkpt lat="46.00878" lon="6.28419">
        <ele>903.77697753906</ele>
        <time>2013-09-15T07:02:28.000Z</time>
      </trkpt>
      <trkpt lat="46.00872" lon="6.28423">
        <ele>902.81500244141</ele>
        <time>2013-09-15T07:02:33.000Z</time>
      </trkpt>
      <trkpt lat="46.00871" lon="6.28424">
        <ele>904.73797607422</ele>
        <time>2013-09-15T07:02:37.000Z</time>
      </trkpt>
      <trkpt lat="46.00864" lon="6.28424">
        <ele>912.42797851562</ele>
        <time>2013-09-15T07:02:49.000Z</time>
      </trkpt>
      <trkpt lat="46.00858" lon="6.28425">
        <ele>914.35101318359</ele>
        <time>2013-09-15T07:02:54.000Z</time>
      </trkpt>
      <trkpt lat="46.00848" lon="6.28426">
        <ele>923.96398925781</ele>
        <time>2013-09-15T07:03:14.000Z</time>
      </trkpt>
      <trkpt lat="46.00842" lon="6.28426">
        <ele>924.44500732422</ele>
        <time>2013-09-15T07:03:19.000Z</time>
      </trkpt>
      <trkpt lat="46.00835" lon="6.28428">
        <ele>922.52197265625</ele>
        <time>2013-09-15T07:03:24.000Z</time>
      </trkpt>
      <trkpt lat="46.00824" lon="6.28433">
        <ele>934.53900146484</ele>
        <time>2013-09-15T07:03:38.000Z</time>
      </trkpt>
      <trkpt lat="46.00822" lon="6.28433">
        <ele>936.94201660156</ele>
        <time>2013-09-15T07:03:42.000Z</time>
      </trkpt>
      <trkpt lat="46.00817" lon="6.28436">
        <ele>936.46099853516</ele>
        <time>2013-09-15T07:03:47.000Z</time>
      </trkpt>
      <trkpt lat="46.00812" lon="6.28442">
        <ele>942.22900390625</ele>
        <time>2013-09-15T07:03:55.000Z</time>
      </trkpt>
      <trkpt lat="46.00809" lon="6.28445">
        <ele>945.11297607422</ele>
        <time>2013-09-15T07:04:00.000Z</time>
      </trkpt>
      <trkpt lat="46.00808" lon="6.28451">
        <ele>948.47802734375</ele>
        <time>2013-09-15T07:04:05.000Z</time>
      </trkpt>
      <trkpt lat="46.00793" lon="6.28458">
        <ele>951.36199951172</ele>
        <time>2013-09-15T07:04:17.000Z</time>
      </trkpt>
      <trkpt lat="46.0079" lon="6.28459">
        <ele>953.76501464844</ele>
        <time>2013-09-15T07:04:22.000Z</time>
      </trkpt>
      <trkpt lat="46.00783" lon="6.28464">
        <ele>956.16802978516</ele>
        <time>2013-09-15T07:04:33.000Z</time>
      </trkpt>
      <trkpt lat="46.00774" lon="6.28466">
        <ele>953.76501464844</ele>
        <time>2013-09-15T07:04:42.000Z</time>
      </trkpt>
      <trkpt lat="46.00772" lon="6.28466">
        <ele>950.40100097656</ele>
        <time>2013-09-15T07:04:47.000Z</time>
      </trkpt>
      <trkpt lat="46.00767" lon="6.28473">
        <ele>951.84301757812</ele>
        <time>2013-09-15T07:04:57.000Z</time>
      </trkpt>
      <trkpt lat="46.00761" lon="6.28472">
        <ele>956.16802978516</ele>
        <time>2013-09-15T07:05:02.000Z</time>
      </trkpt>
      <trkpt lat="46.00763" lon="6.28472">
        <ele>962.4169921875</ele>
        <time>2013-09-15T07:05:06.000Z</time>
      </trkpt>
      <trkpt lat="46.0076" lon="6.28472">
        <ele>965.78198242188</ele>
        <time>2013-09-15T07:05:14.000Z</time>
      </trkpt>
      <trkpt lat="46.00752" lon="6.28472">
        <ele>966.26202392578</ele>
        <time>2013-09-15T07:05:19.000Z</time>
      </trkpt>
      <trkpt lat="46.00749" lon="6.28472">
        <ele>967.70397949219</ele>
        <time>2013-09-15T07:05:23.000Z</time>
      </trkpt>
      <trkpt lat="46.00744" lon="6.28472">
        <ele>968.666015625</ele>
        <time>2013-09-15T07:05:29.000Z</time>
      </trkpt>
      <trkpt lat="46.00742" lon="6.28476">
        <ele>965.30102539062</ele>
        <time>2013-09-15T07:05:37.000Z</time>
      </trkpt>
      <trkpt lat="46.00739" lon="6.28471">
        <ele>968.18499755859</ele>
        <time>2013-09-15T07:05:46.000Z</time>
      </trkpt>
      <trkpt lat="46.00733" lon="6.2847">
        <ele>970.10699462891</ele>
        <time>2013-09-15T07:05:52.000Z</time>
      </trkpt>
      <trkpt lat="46.00731" lon="6.2847">
        <ele>969.14599609375</ele>
        <time>2013-09-15T07:06:02.000Z</time>
      </trkpt>
      <trkpt lat="46.00727" lon="6.28468">
        <ele>970.58801269531</ele>
        <time>2013-09-15T07:06:07.000Z</time>
      </trkpt>
      <trkpt lat="46.00723" lon="6.28465">
        <ele>971.06896972656</ele>
        <time>2013-09-15T07:06:13.000Z</time>
      </trkpt>
      <trkpt lat="46.00713" lon="6.2846">
        <ele>974.43402099609</ele>
        <time>2013-09-15T07:06:26.000Z</time>
      </trkpt>
      <trkpt lat="46.00698" lon="6.28455">
        <ele>974.43402099609</ele>
        <time>2013-09-15T07:06:42.000Z</time>
      </trkpt>
      <trkpt lat="46.00694" lon="6.28457">
        <ele>972.99200439453</ele>
        <time>2013-09-15T07:06:46.000Z</time>
      </trkpt>
      <trkpt lat="46.00689" lon="6.28457">
        <ele>973.95300292969</ele>
        <time>2013-09-15T07:06:50.000Z</time>
      </trkpt>
      <trkpt lat="46.00686" lon="6.28461">
        <ele>976.83697509766</ele>
        <time>2013-09-15T07:06:55.000Z</time>
      </trkpt>
      <trkpt lat="46.00684" lon="6.28474">
        <ele>978.27899169922</ele>
        <time>2013-09-15T07:07:04.000Z</time>
      </trkpt>
      <trkpt lat="46.00681" lon="6.28481">
        <ele>982.1240234375</ele>
        <time>2013-09-15T07:07:12.000Z</time>
      </trkpt>
      <trkpt lat="46.00681" lon="6.28494">
        <ele>980.68200683594</ele>
        <time>2013-09-15T07:07:29.000Z</time>
      </trkpt>
      <trkpt lat="46.00675" lon="6.28498">
        <ele>981.64300537109</ele>
        <time>2013-09-15T07:07:34.000Z</time>
      </trkpt>
      <trkpt lat="46.00671" lon="6.28503">
        <ele>982.60498046875</ele>
        <time>2013-09-15T07:07:39.000Z</time>
      </trkpt>
      <trkpt lat="46.00662" lon="6.28505">
        <ele>982.1240234375</ele>
        <time>2013-09-15T07:07:44.000Z</time>
      </trkpt>
      <trkpt lat="46.00659" lon="6.28506">
        <ele>981.16302490234</ele>
        <time>2013-09-15T07:07:48.000Z</time>
      </trkpt>
      <trkpt lat="46.0065" lon="6.28507">
        <ele>981.16302490234</ele>
        <time>2013-09-15T07:07:53.000Z</time>
      </trkpt>
      <trkpt lat="46.00647" lon="6.28509">
        <ele>983.08502197266</ele>
        <time>2013-09-15T07:08:02.000Z</time>
      </trkpt>
      <trkpt lat="46.00648" lon="6.28513">
        <ele>987.41101074219</ele>
        <time>2013-09-15T07:08:07.000Z</time>
      </trkpt>
      <trkpt lat="46.00646" lon="6.28529">
        <ele>1004.7199707031</ele>
        <time>2013-09-15T07:08:36.000Z</time>
      </trkpt>
      <trkpt lat="46.0064" lon="6.2853">
        <ele>1007.5999755859</ele>
        <time>2013-09-15T07:08:45.000Z</time>
      </trkpt>
      <trkpt lat="46.00622" lon="6.28533">
        <ele>1009.0399780273</ele>
        <time>2013-09-15T07:08:59.000Z</time>
      </trkpt>
      <trkpt lat="46.00617" lon="6.28536">
        <ele>1011.4400024414</ele>
        <time>2013-09-15T07:09:03.000Z</time>
      </trkpt>
      <trkpt lat="46.00612" lon="6.28538">
        <ele>1011.9299926758</ele>
        <time>2013-09-15T07:09:07.000Z</time>
      </trkpt>
      <trkpt lat="46.0061" lon="6.28543">
        <ele>1010</ele>
        <time>2013-09-15T07:09:10.000Z</time>
      </trkpt>
      <trkpt lat="46.00613" lon="6.28538">
        <ele>1010</ele>
        <time>2013-09-15T07:09:15.000Z</time>
      </trkpt>
      <trkpt lat="46.00611" lon="6.28541">
        <ele>1011.9299926758</ele>
        <time>2013-09-15T07:09:20.000Z</time>
      </trkpt>
      <trkpt lat="46.00602" lon="6.28551">
        <ele>1013.8499755859</ele>
        <time>2013-09-15T07:09:33.000Z</time>
      </trkpt>
      <trkpt lat="46.00587" lon="6.28554">
        <ele>1012.8900146484</ele>
        <time>2013-09-15T07:09:49.000Z</time>
      </trkpt>
      <trkpt lat="46.0058" lon="6.28552">
        <ele>1015.7700195312</ele>
        <time>2013-09-15T07:10:15.000Z</time>
      </trkpt>
      <trkpt lat="46.00575" lon="6.28548">
        <ele>1019.6199951172</ele>
        <time>2013-09-15T07:10:21.000Z</time>
      </trkpt>
      <trkpt lat="46.00572" lon="6.28546">
        <ele>1021.0599975586</ele>
        <time>2013-09-15T07:10:23.000Z</time>
      </trkpt>
      <trkpt lat="46.00567" lon="6.28547">
        <ele>1022.0200195312</ele>
        <time>2013-09-15T07:10:27.000Z</time>
      </trkpt>
      <trkpt lat="46.00565" lon="6.28544">
        <ele>1027.7900390625</ele>
        <time>2013-09-15T07:10:32.000Z</time>
      </trkpt>
      <trkpt lat="46.00559" lon="6.28543">
        <ele>1031.1500244141</ele>
        <time>2013-09-15T07:10:38.000Z</time>
      </trkpt>
      <trkpt lat="46.00554" lon="6.2854">
        <ele>1031.1500244141</ele>
        <time>2013-09-15T07:10:48.000Z</time>
      </trkpt>
      <trkpt lat="46.00543" lon="6.28534">
        <ele>1039.8000488281</ele>
        <time>2013-09-15T07:11:05.000Z</time>
      </trkpt>
      <trkpt lat="46.0054" lon="6.28531">
        <ele>1040.7600097656</ele>
        <time>2013-09-15T07:11:08.000Z</time>
      </trkpt>
      <trkpt lat="46.00537" lon="6.28525">
        <ele>1043.1700439453</ele>
        <time>2013-09-15T07:11:13.000Z</time>
      </trkpt>
      <trkpt lat="46.00534" lon="6.28522">
        <ele>1046.0500488281</ele>
        <time>2013-09-15T07:11:17.000Z</time>
      </trkpt>
      <trkpt lat="46.00526" lon="6.28519">
        <ele>1050.8599853516</ele>
        <time>2013-09-15T07:11:24.000Z</time>
      </trkpt>
      <trkpt lat="46.00521" lon="6.28513">
        <ele>1054.6999511719</ele>
        <time>2013-09-15T07:11:29.000Z</time>
      </trkpt>
      <trkpt lat="46.00518" lon="6.28512">
        <ele>1055.6700439453</ele>
        <time>2013-09-15T07:11:33.000Z</time>
      </trkpt>
      <trkpt lat="46.00514" lon="6.28511">
        <ele>1054.6999511719</ele>
        <time>2013-09-15T07:11:37.000Z</time>
      </trkpt>
      <trkpt lat="46.00508" lon="6.28513">
        <ele>1056.6300048828</ele>
        <time>2013-09-15T07:11:43.000Z</time>
      </trkpt>
      <trkpt lat="46.00505" lon="6.28515">
        <ele>1051.8199462891</ele>
        <time>2013-09-15T07:11:49.000Z</time>
      </trkpt>
      <trkpt lat="46.00504" lon="6.28512">
        <ele>1046.5300292969</ele>
        <time>2013-09-15T07:11:56.000Z</time>
      </trkpt>
      <trkpt lat="46.00501" lon="6.28505">
        <ele>1052.3000488281</ele>
        <time>2013-09-15T07:12:03.000Z</time>
      </trkpt>
      <trkpt lat="46.00497" lon="6.28504">
        <ele>1058.5500488281</ele>
        <time>2013-09-15T07:12:08.000Z</time>
      </trkpt>
      <trkpt lat="46.00491" lon="6.28508">
        <ele>1058.0699462891</ele>
        <time>2013-09-15T07:13:27.000Z</time>
      </trkpt>
      <trkpt lat="46.00487" lon="6.2851">
        <ele>1059.5100097656</ele>
        <time>2013-09-15T07:13:30.000Z</time>
      </trkpt>
      <trkpt lat="46.00489" lon="6.28525">
        <ele>1069.5999755859</ele>
        <time>2013-09-15T07:13:45.000Z</time>
      </trkpt>
      <trkpt lat="46.00487" lon="6.28533">
        <ele>1073.4499511719</ele>
        <time>2013-09-15T07:13:51.000Z</time>
      </trkpt>
      <trkpt lat="46.00496" lon="6.28552">
        <ele>1061.9100341797</ele>
        <time>2013-09-15T07:14:06.000Z</time>
      </trkpt>
      <trkpt lat="46.005" lon="6.28561">
        <ele>1058.5500488281</ele>
        <time>2013-09-15T07:14:11.000Z</time>
      </trkpt>
      <trkpt lat="46.00499" lon="6.2857">
        <ele>1053.2600097656</ele>
        <time>2013-09-15T07:14:15.000Z</time>
      </trkpt>
      <trkpt lat="46.00498" lon="6.2858">
        <ele>1047.0100097656</ele>
        <time>2013-09-15T07:14:22.000Z</time>
      </trkpt>
      <trkpt lat="46.00497" lon="6.28594">
        <ele>1047.4899902344</ele>
        <time>2013-09-15T07:14:35.000Z</time>
      </trkpt>
      <trkpt lat="46.00498" lon="6.286">
        <ele>1044.6099853516</ele>
        <time>2013-09-15T07:14:40.000Z</time>
      </trkpt>
      <trkpt lat="46.00498" lon="6.28603">
        <ele>1044.1300048828</ele>
        <time>2013-09-15T07:14:42.000Z</time>
      </trkpt>
      <trkpt lat="46.00495" lon="6.2861">
        <ele>1048.4499511719</ele>
        <time>2013-09-15T07:14:48.000Z</time>
      </trkpt>
      <trkpt lat="46.00497" lon="6.28618">
        <ele>1059.0300292969</ele>
        <time>2013-09-15T07:14:57.000Z</time>
      </trkpt>
      <trkpt lat="46.00502" lon="6.28627">
        <ele>1063.3599853516</ele>
        <time>2013-09-15T07:15:04.000Z</time>
      </trkpt>
      <trkpt lat="46.00504" lon="6.28644">
        <ele>1066.2399902344</ele>
        <time>2013-09-15T07:15:16.000Z</time>
      </trkpt>
      <trkpt lat="46.00503" lon="6.28647">
        <ele>1069.1199951172</ele>
        <time>2013-09-15T07:15:19.000Z</time>
      </trkpt>
      <trkpt lat="46.00497" lon="6.28641">
        <ele>1073.4499511719</ele>
        <time>2013-09-15T07:15:24.000Z</time>
      </trkpt>
      <trkpt lat="46.00493" lon="6.28635">
        <ele>1075.8499755859</ele>
        <time>2013-09-15T07:15:29.000Z</time>
      </trkpt>
      <trkpt lat="46.00481" lon="6.28626">
        <ele>1078.7399902344</ele>
        <time>2013-09-15T07:15:45.000Z</time>
      </trkpt>
      <trkpt lat="46.00472" lon="6.28625">
        <ele>1081.1400146484</ele>
        <time>2013-09-15T07:15:52.000Z</time>
      </trkpt>
      <trkpt lat="46.00468" lon="6.28625">
        <ele>1084.5</ele>
        <time>2013-09-15T07:15:58.000Z</time>
      </trkpt>
      <trkpt lat="46.00463" lon="6.28628">
        <ele>1082.5799560547</ele>
        <time>2013-09-15T07:16:04.000Z</time>
      </trkpt>
      <trkpt lat="46.00456" lon="6.28629">
        <ele>1086.9100341797</ele>
        <time>2013-09-15T07:16:11.000Z</time>
      </trkpt>
      <trkpt lat="46.00451" lon="6.2863">
        <ele>1088.3499755859</ele>
        <time>2013-09-15T07:16:18.000Z</time>
      </trkpt>
      <trkpt lat="46.00445" lon="6.2863">
        <ele>1088.3499755859</ele>
        <time>2013-09-15T07:16:34.000Z</time>
      </trkpt>
      <trkpt lat="46.00447" lon="6.28629">
        <ele>1092.6800537109</ele>
        <time>2013-09-15T07:16:47.000Z</time>
      </trkpt>
      <trkpt lat="46.00443" lon="6.28625">
        <ele>1096.0400390625</ele>
        <time>2013-09-15T07:16:53.000Z</time>
      </trkpt>
      <trkpt lat="46.00443" lon="6.28625">
        <ele>1096.0400390625</ele>
        <time>2013-09-15T07:16:55.000Z</time>
      </trkpt>
      <trkpt lat="46.00437" lon="6.28625">
        <ele>1094.5999755859</ele>
        <time>2013-09-15T07:16:59.000Z</time>
      </trkpt>
      <trkpt lat="46.0043" lon="6.2862">
        <ele>1097.9599609375</ele>
        <time>2013-09-15T07:17:06.000Z</time>
      </trkpt>
      <trkpt lat="46.00426" lon="6.28617">
        <ele>1096.0400390625</ele>
        <time>2013-09-15T07:17:11.000Z</time>
      </trkpt>
      <trkpt lat="46.0042" lon="6.28606">
        <ele>1093.1600341797</ele>
        <time>2013-09-15T07:17:24.000Z</time>
      </trkpt>
      <trkpt lat="46.00417" lon="6.28603">
        <ele>1093.6400146484</ele>
        <time>2013-09-15T07:17:28.000Z</time>
      </trkpt>
      <trkpt lat="46.00415" lon="6.286">
        <ele>1094.5999755859</ele>
        <time>2013-09-15T07:17:32.000Z</time>
      </trkpt>
      <trkpt lat="46.00412" lon="6.28596">
        <ele>1097</ele>
        <time>2013-09-15T07:17:36.000Z</time>
      </trkpt>
      <trkpt lat="46.004" lon="6.28588">
        <ele>1102.7700195312</ele>
        <time>2013-09-15T07:17:51.000Z</time>
      </trkpt>
      <trkpt lat="46.00399" lon="6.28586">
        <ele>1100.8499755859</ele>
        <time>2013-09-15T07:17:57.000Z</time>
      </trkpt>
      <trkpt lat="46.00394" lon="6.28582">
        <ele>1103.25</ele>
        <time>2013-09-15T07:18:01.000Z</time>
      </trkpt>
      <trkpt lat="46.00391" lon="6.28579">
        <ele>1106.1300048828</ele>
        <time>2013-09-15T07:18:04.000Z</time>
      </trkpt>
      <trkpt lat="46.00386" lon="6.28576">
        <ele>1105.6500244141</ele>
        <time>2013-09-15T07:18:08.000Z</time>
      </trkpt>
      <trkpt lat="46.00383" lon="6.28574">
        <ele>1108.5400390625</ele>
        <time>2013-09-15T07:18:12.000Z</time>
      </trkpt>
      <trkpt lat="46.00378" lon="6.28576">
        <ele>1106.6099853516</ele>
        <time>2013-09-15T07:18:18.000Z</time>
      </trkpt>
      <trkpt lat="46.00375" lon="6.28577">
        <ele>1107.5799560547</ele>
        <time>2013-09-15T07:18:22.000Z</time>
      </trkpt>
      <trkpt lat="46.00368" lon="6.28582">
        <ele>1101.3299560547</ele>
        <time>2013-09-15T07:18:27.000Z</time>
      </trkpt>
      <trkpt lat="46.00363" lon="6.28589">
        <ele>1098.4399414062</ele>
        <time>2013-09-15T07:18:31.000Z</time>
      </trkpt>
      <trkpt lat="46.00359" lon="6.28593">
        <ele>1099.4000244141</ele>
        <time>2013-09-15T07:18:35.000Z</time>
      </trkpt>
      <trkpt lat="46.00355" lon="6.28593">
        <ele>1101.8100585938</ele>
        <time>2013-09-15T07:18:39.000Z</time>
      </trkpt>
      <trkpt lat="46.00349" lon="6.28591">
        <ele>1110.4599609375</ele>
        <time>2013-09-15T07:18:48.000Z</time>
      </trkpt>
      <trkpt lat="46.00349" lon="6.2859">
        <ele>1109.9799804688</ele>
        <time>2013-09-15T07:18:49.000Z</time>
      </trkpt>
      <trkpt lat="46.00344" lon="6.28589">
        <ele>1112.8599853516</ele>
        <time>2013-09-15T07:18:54.000Z</time>
      </trkpt>
      <trkpt lat="46.00334" lon="6.28587">
        <ele>1116.2299804688</ele>
        <time>2013-09-15T07:19:06.000Z</time>
      </trkpt>
      <trkpt lat="46.00329" lon="6.28591">
        <ele>1119.5899658203</ele>
        <time>2013-09-15T07:19:12.000Z</time>
      </trkpt>
      <trkpt lat="46.00323" lon="6.28595">
        <ele>1110.4599609375</ele>
        <time>2013-09-15T07:19:18.000Z</time>
      </trkpt>
      <trkpt lat="46.00317" lon="6.28596">
        <ele>1109.9799804688</ele>
        <time>2013-09-15T07:19:23.000Z</time>
      </trkpt>
      <trkpt lat="46.00311" lon="6.28597">
        <ele>1113.8199462891</ele>
        <time>2013-09-15T07:19:29.000Z</time>
      </trkpt>
      <trkpt lat="46.00309" lon="6.28597">
        <ele>1114.3100585938</ele>
        <time>2013-09-15T07:19:33.000Z</time>
      </trkpt>
      <trkpt lat="46.00307" lon="6.28598">
        <ele>1122</ele>
        <time>2013-09-15T07:19:37.000Z</time>
      </trkpt>
      <trkpt lat="46.00298" lon="6.28601">
        <ele>1124.4000244141</ele>
        <time>2013-09-15T07:19:48.000Z</time>
      </trkpt>
      <trkpt lat="46.00291" lon="6.28604">
        <ele>1121.5200195312</ele>
        <time>2013-09-15T07:19:53.000Z</time>
      </trkpt>
      <trkpt lat="46.00283" lon="6.28607">
        <ele>1124.8800048828</ele>
        <time>2013-09-15T07:19:58.000Z</time>
      </trkpt>
      <trkpt lat="46.0028" lon="6.28611">
        <ele>1130.1700439453</ele>
        <time>2013-09-15T07:20:01.000Z</time>
      </trkpt>
      <trkpt lat="46.00278" lon="6.28612">
        <ele>1129.6899414062</ele>
        <time>2013-09-15T07:20:02.000Z</time>
      </trkpt>
      <trkpt lat="46.0027" lon="6.28614">
        <ele>1129.2099609375</ele>
        <time>2013-09-15T07:20:07.000Z</time>
      </trkpt>
      <trkpt lat="46.00269" lon="6.28617">
        <ele>1129.6899414062</ele>
        <time>2013-09-15T07:20:11.000Z</time>
      </trkpt>
      <trkpt lat="46.00268" lon="6.28624">
        <ele>1127.2800292969</ele>
        <time>2013-09-15T07:20:16.000Z</time>
      </trkpt>
      <trkpt lat="46.00267" lon="6.28634">
        <ele>1128.2399902344</ele>
        <time>2013-09-15T07:20:22.000Z</time>
      </trkpt>
      <trkpt lat="46.00267" lon="6.2864">
        <ele>1126.3199462891</ele>
        <time>2013-09-15T07:20:26.000Z</time>
      </trkpt>
      <trkpt lat="46.00266" lon="6.28647">
        <ele>1122.9599609375</ele>
        <time>2013-09-15T07:20:30.000Z</time>
      </trkpt>
      <trkpt lat="46.00264" lon="6.28655">
        <ele>1123.9200439453</ele>
        <time>2013-09-15T07:20:34.000Z</time>
      </trkpt>
      <trkpt lat="46.00262" lon="6.2866">
        <ele>1125.8399658203</ele>
        <time>2013-09-15T07:20:38.000Z</time>
      </trkpt>
      <trkpt lat="46.00261" lon="6.28662">
        <ele>1126.3199462891</ele>
        <time>2013-09-15T07:20:39.000Z</time>
      </trkpt>
      <trkpt lat="46.00259" lon="6.28669">
        <ele>1127.7600097656</ele>
        <time>2013-09-15T07:20:45.000Z</time>
      </trkpt>
      <trkpt lat="46.00257" lon="6.28676">
        <ele>1135.9399414062</ele>
        <time>2013-09-15T07:20:50.000Z</time>
      </trkpt>
      <trkpt lat="46.00257" lon="6.28684">
        <ele>1140.2600097656</ele>
        <time>2013-09-15T07:20:55.000Z</time>
      </trkpt>
      <trkpt lat="46.00255" lon="6.28692">
        <ele>1138.8199462891</ele>
        <time>2013-09-15T07:21:01.000Z</time>
      </trkpt>
      <trkpt lat="46.00253" lon="6.28696">
        <ele>1143.6300048828</ele>
        <time>2013-09-15T07:21:05.000Z</time>
      </trkpt>
      <trkpt lat="46.00253" lon="6.28703">
        <ele>1151.3199462891</ele>
        <time>2013-09-15T07:21:09.000Z</time>
      </trkpt>
      <trkpt lat="46.00254" lon="6.28717">
        <ele>1151.8000488281</ele>
        <time>2013-09-15T07:21:16.000Z</time>
      </trkpt>
      <trkpt lat="46.00251" lon="6.28721">
        <ele>1148.4300537109</ele>
        <time>2013-09-15T07:21:19.000Z</time>
      </trkpt>
      <trkpt lat="46.00249" lon="6.28725">
        <ele>1141.2199707031</ele>
        <time>2013-09-15T07:21:23.000Z</time>
      </trkpt>
      <trkpt lat="46.00249" lon="6.28729">
        <ele>1140.2600097656</ele>
        <time>2013-09-15T07:21:27.000Z</time>
      </trkpt>
      <trkpt lat="46.00257" lon="6.28751">
        <ele>1160.4499511719</ele>
        <time>2013-09-15T07:23:08.000Z</time>
      </trkpt>
      <trkpt lat="46.0026" lon="6.28756">
        <ele>1163.3299560547</ele>
        <time>2013-09-15T07:23:13.000Z</time>
      </trkpt>
      <trkpt lat="46.0026" lon="6.28762">
        <ele>1163.8100585938</ele>
        <time>2013-09-15T07:23:17.000Z</time>
      </trkpt>
      <trkpt lat="46.00262" lon="6.28768">
        <ele>1160.9300537109</ele>
        <time>2013-09-15T07:23:23.000Z</time>
      </trkpt>
      <trkpt lat="46.00264" lon="6.28773">
        <ele>1166.2199707031</ele>
        <time>2013-09-15T07:23:31.000Z</time>
      </trkpt>
      <trkpt lat="46.00265" lon="6.28783">
        <ele>1172.4699707031</ele>
        <time>2013-09-15T07:23:48.000Z</time>
      </trkpt>
      <trkpt lat="46.00264" lon="6.28792">
        <ele>1174.8699951172</ele>
        <time>2013-09-15T07:23:59.000Z</time>
      </trkpt>
      <trkpt lat="46.00265" lon="6.28802">
        <ele>1173.9100341797</ele>
        <time>2013-09-15T07:24:08.000Z</time>
      </trkpt>
      <trkpt lat="46.00267" lon="6.28813">
        <ele>1170.0600585938</ele>
        <time>2013-09-15T07:24:20.000Z</time>
      </trkpt>
      <trkpt lat="46.00267" lon="6.28816">
        <ele>1170.0600585938</ele>
        <time>2013-09-15T07:24:22.000Z</time>
      </trkpt>
      <trkpt lat="46.00272" lon="6.28824">
        <ele>1166.2199707031</ele>
        <time>2013-09-15T07:24:28.000Z</time>
      </trkpt>
      <trkpt lat="46.00273" lon="6.28825">
        <ele>1165.2600097656</ele>
        <time>2013-09-15T07:24:29.000Z</time>
      </trkpt>
      <trkpt lat="46.00278" lon="6.28831">
        <ele>1161.8900146484</ele>
        <time>2013-09-15T07:24:33.000Z</time>
      </trkpt>
      <trkpt lat="46.00278" lon="6.28837">
        <ele>1159.9699707031</ele>
        <time>2013-09-15T07:24:38.000Z</time>
      </trkpt>
      <trkpt lat="46.00277" lon="6.28841">
        <ele>1163.8100585938</ele>
        <time>2013-09-15T07:24:45.000Z</time>
      </trkpt>
      <trkpt lat="46.00281" lon="6.28853">
        <ele>1162.8499755859</ele>
        <time>2013-09-15T07:24:55.000Z</time>
      </trkpt>
      <trkpt lat="46.00286" lon="6.28858">
        <ele>1157.0799560547</ele>
        <time>2013-09-15T07:24:59.000Z</time>
      </trkpt>
      <trkpt lat="46.00286" lon="6.28863">
        <ele>1156.5999755859</ele>
        <time>2013-09-15T07:25:03.000Z</time>
      </trkpt>
      <trkpt lat="46.00286" lon="6.28869">
        <ele>1158.0500488281</ele>
        <time>2013-09-15T07:25:09.000Z</time>
      </trkpt>
      <trkpt lat="46.00289" lon="6.28873">
        <ele>1162.3699951172</ele>
        <time>2013-09-15T07:25:16.000Z</time>
      </trkpt>
      <trkpt lat="46.00288" lon="6.28881">
        <ele>1167.1800537109</ele>
        <time>2013-09-15T07:25:23.000Z</time>
      </trkpt>
      <trkpt lat="46.00291" lon="6.28885">
        <ele>1171.5</ele>
        <time>2013-09-15T07:25:29.000Z</time>
      </trkpt>
      <trkpt lat="46.00292" lon="6.28891">
        <ele>1172.9499511719</ele>
        <time>2013-09-15T07:25:35.000Z</time>
      </trkpt>
      <trkpt lat="46.00293" lon="6.28898">
        <ele>1179.6700439453</ele>
        <time>2013-09-15T07:25:46.000Z</time>
      </trkpt>
      <trkpt lat="46.00296" lon="6.28902">
        <ele>1177.75</ele>
        <time>2013-09-15T07:25:51.000Z</time>
      </trkpt>
      <trkpt lat="46.003" lon="6.28905">
        <ele>1175.8299560547</ele>
        <time>2013-09-15T07:25:56.000Z</time>
      </trkpt>
      <trkpt lat="46.00302" lon="6.28907">
        <ele>1174.8699951172</ele>
        <time>2013-09-15T07:25:59.000Z</time>
      </trkpt>
      <trkpt lat="46.00304" lon="6.28912">
        <ele>1176.7900390625</ele>
        <time>2013-09-15T07:26:04.000Z</time>
      </trkpt>
      <trkpt lat="46.00304" lon="6.28917">
        <ele>1179.6700439453</ele>
        <time>2013-09-15T07:26:11.000Z</time>
      </trkpt>
      <trkpt lat="46.00304" lon="6.2892">
        <ele>1183.5200195312</ele>
        <time>2013-09-15T07:26:17.000Z</time>
      </trkpt>
      <trkpt lat="46.00306" lon="6.28924">
        <ele>1183.5200195312</ele>
        <time>2013-09-15T07:26:21.000Z</time>
      </trkpt>
      <trkpt lat="46.00308" lon="6.2893">
        <ele>1182.5600585938</ele>
        <time>2013-09-15T07:26:26.000Z</time>
      </trkpt>
      <trkpt lat="46.00304" lon="6.28937">
        <ele>1192.1700439453</ele>
        <time>2013-09-15T07:26:37.000Z</time>
      </trkpt>
      <trkpt lat="46.00305" lon="6.28943">
        <ele>1192.6500244141</ele>
        <time>2013-09-15T07:26:41.000Z</time>
      </trkpt>
      <trkpt lat="46.00307" lon="6.28951">
        <ele>1191.2099609375</ele>
        <time>2013-09-15T07:26:47.000Z</time>
      </trkpt>
      <trkpt lat="46.00307" lon="6.28956">
        <ele>1199.3800048828</ele>
        <time>2013-09-15T07:26:54.000Z</time>
      </trkpt>
      <trkpt lat="46.00308" lon="6.28962">
        <ele>1202.2700195312</ele>
        <time>2013-09-15T07:27:01.000Z</time>
      </trkpt>
      <trkpt lat="46.00309" lon="6.2897">
        <ele>1206.5899658203</ele>
        <time>2013-09-15T07:27:06.000Z</time>
      </trkpt>
      <trkpt lat="46.00307" lon="6.28976">
        <ele>1208.0300292969</ele>
        <time>2013-09-15T07:27:15.000Z</time>
      </trkpt>
      <trkpt lat="46.00304" lon="6.28982">
        <ele>1212.8399658203</ele>
        <time>2013-09-15T07:27:31.000Z</time>
      </trkpt>
      <trkpt lat="46.00302" lon="6.28982">
        <ele>1210.9200439453</ele>
        <time>2013-09-15T07:27:36.000Z</time>
      </trkpt>
      <trkpt lat="46.00293" lon="6.2898">
        <ele>1210.4399414062</ele>
        <time>2013-09-15T07:27:43.000Z</time>
      </trkpt>
      <trkpt lat="46.0029" lon="6.2898">
        <ele>1211.4000244141</ele>
        <time>2013-09-15T07:27:47.000Z</time>
      </trkpt>
      <trkpt lat="46.00287" lon="6.28982">
        <ele>1206.1099853516</ele>
        <time>2013-09-15T07:27:54.000Z</time>
      </trkpt>
      <trkpt lat="46.00286" lon="6.28985">
        <ele>1204.6700439453</ele>
        <time>2013-09-15T07:27:59.000Z</time>
      </trkpt>
      <trkpt lat="46.00287" lon="6.28993">
        <ele>1206.1099853516</ele>
        <time>2013-09-15T07:28:06.000Z</time>
      </trkpt>
      <trkpt lat="46.00286" lon="6.28998">
        <ele>1208.0300292969</ele>
        <time>2013-09-15T07:28:12.000Z</time>
      </trkpt>
      <trkpt lat="46.00285" lon="6.29001">
        <ele>1209.4799804688</ele>
        <time>2013-09-15T07:28:16.000Z</time>
      </trkpt>
      <trkpt lat="46.00285" lon="6.29005">
        <ele>1208.0300292969</ele>
        <time>2013-09-15T07:28:22.000Z</time>
      </trkpt>
      <trkpt lat="46.00284" lon="6.29009">
        <ele>1209.4799804688</ele>
        <time>2013-09-15T07:28:28.000Z</time>
      </trkpt>
      <trkpt lat="46.00282" lon="6.29011">
        <ele>1213.3199462891</ele>
        <time>2013-09-15T07:28:33.000Z</time>
      </trkpt>
      <trkpt lat="46.00284" lon="6.29017">
        <ele>1211.8800048828</ele>
        <time>2013-09-15T07:28:40.000Z</time>
      </trkpt>
      <trkpt lat="46.00282" lon="6.2902">
        <ele>1216.6899414062</ele>
        <time>2013-09-15T07:28:45.000Z</time>
      </trkpt>
      <trkpt lat="46.0028" lon="6.29031">
        <ele>1221.0100097656</ele>
        <time>2013-09-15T07:28:59.000Z</time>
      </trkpt>
      <trkpt lat="46.00274" lon="6.2904">
        <ele>1232.0699462891</ele>
        <time>2013-09-15T07:29:16.000Z</time>
      </trkpt>
      <trkpt lat="46.0027" lon="6.29055">
        <ele>1233.9899902344</ele>
        <time>2013-09-15T07:29:38.000Z</time>
      </trkpt>
      <trkpt lat="46.00266" lon="6.29056">
        <ele>1239.2800292969</ele>
        <time>2013-09-15T07:29:42.000Z</time>
      </trkpt>
      <trkpt lat="46.00265" lon="6.2906">
        <ele>1240.2399902344</ele>
        <time>2013-09-15T07:29:46.000Z</time>
      </trkpt>
      <trkpt lat="46.00264" lon="6.29066">
        <ele>1239.2800292969</ele>
        <time>2013-09-15T07:29:53.000Z</time>
      </trkpt>
      <trkpt lat="46.00264" lon="6.29075">
        <ele>1235.9100341797</ele>
        <time>2013-09-15T07:30:02.000Z</time>
      </trkpt>
      <trkpt lat="46.00262" lon="6.29081">
        <ele>1240.7199707031</ele>
        <time>2013-09-15T07:30:09.000Z</time>
      </trkpt>
      <trkpt lat="46.00263" lon="6.29085">
        <ele>1240.2399902344</ele>
        <time>2013-09-15T07:30:13.000Z</time>
      </trkpt>
      <trkpt lat="46.00264" lon="6.29091">
        <ele>1240.7199707031</ele>
        <time>2013-09-15T07:30:18.000Z</time>
      </trkpt>
      <trkpt lat="46.00264" lon="6.29105">
        <ele>1249.3699951172</ele>
        <time>2013-09-15T07:30:38.000Z</time>
      </trkpt>
      <trkpt lat="46.0027" lon="6.2912">
        <ele>1251.2900390625</ele>
        <time>2013-09-15T07:30:56.000Z</time>
      </trkpt>
      <trkpt lat="46.00273" lon="6.29124">
        <ele>1251.2900390625</ele>
        <time>2013-09-15T07:31:00.000Z</time>
      </trkpt>
      <trkpt lat="46.00275" lon="6.29131">
        <ele>1253.2199707031</ele>
        <time>2013-09-15T07:31:12.000Z</time>
      </trkpt>
      <trkpt lat="46.00279" lon="6.29139">
        <ele>1252.25</ele>
        <time>2013-09-15T07:31:17.000Z</time>
      </trkpt>
      <trkpt lat="46.00281" lon="6.29141">
        <ele>1252.25</ele>
        <time>2013-09-15T07:31:19.000Z</time>
      </trkpt>
      <trkpt lat="46.00284" lon="6.29145">
        <ele>1247.9300537109</ele>
        <time>2013-09-15T07:31:25.000Z</time>
      </trkpt>
      <trkpt lat="46.0028" lon="6.29148">
        <ele>1255.6199951172</ele>
        <time>2013-09-15T07:31:45.000Z</time>
      </trkpt>
      <trkpt lat="46.0028" lon="6.2915">
        <ele>1253.2199707031</ele>
        <time>2013-09-15T07:31:50.000Z</time>
      </trkpt>
      <trkpt lat="46.00276" lon="6.29151">
        <ele>1249.3699951172</ele>
        <time>2013-09-15T07:31:57.000Z</time>
      </trkpt>
      <trkpt lat="46.00272" lon="6.2915">
        <ele>1248.4100341797</ele>
        <time>2013-09-15T07:32:02.000Z</time>
      </trkpt>
      <trkpt lat="46.00271" lon="6.29149">
        <ele>1245.0400390625</ele>
        <time>2013-09-15T07:32:12.000Z</time>
      </trkpt>
      <trkpt lat="46.0027" lon="6.29149">
        <ele>1246.0100097656</ele>
        <time>2013-09-15T07:32:21.000Z</time>
      </trkpt>
      <trkpt lat="46.0027" lon="6.29149">
        <ele>1243.1199951172</ele>
        <time>2013-09-15T07:32:38.000Z</time>
      </trkpt>
      <trkpt lat="46.00272" lon="6.29151">
        <ele>1243.5999755859</ele>
        <time>2013-09-15T07:32:51.000Z</time>
      </trkpt>
      <trkpt lat="46.00272" lon="6.29151">
        <ele>1245.0400390625</ele>
        <time>2013-09-15T07:33:07.000Z</time>
      </trkpt>
      <trkpt lat="46.0027" lon="6.29149">
        <ele>1245.0400390625</ele>
        <time>2013-09-15T07:33:12.000Z</time>
      </trkpt>
      <trkpt lat="46.00265" lon="6.29147">
        <ele>1246.9699707031</ele>
        <time>2013-09-15T07:33:18.000Z</time>
      </trkpt>
      <trkpt lat="46.00259" lon="6.29145">
        <ele>1251.2900390625</ele>
        <time>2013-09-15T07:33:24.000Z</time>
      </trkpt>
      <trkpt lat="46.00257" lon="6.29149">
        <ele>1252.25</ele>
        <time>2013-09-15T07:33:30.000Z</time>
      </trkpt>
      <trkpt lat="46.00258" lon="6.29154">
        <ele>1252.25</ele>
        <time>2013-09-15T07:33:33.000Z</time>
      </trkpt>
      <trkpt lat="46.00258" lon="6.29157">
        <ele>1252.7399902344</ele>
        <time>2013-09-15T07:33:35.000Z</time>
      </trkpt>
      <trkpt lat="46.00258" lon="6.2916">
        <ele>1253.6999511719</ele>
        <time>2013-09-15T07:33:37.000Z</time>
      </trkpt>
      <trkpt lat="46.00271" lon="6.29165">
        <ele>1256.5799560547</ele>
        <time>2013-09-15T07:33:42.000Z</time>
      </trkpt>
      <trkpt lat="46.00277" lon="6.29168">
        <ele>1258.0200195312</ele>
        <time>2013-09-15T07:33:45.000Z</time>
      </trkpt>
      <trkpt lat="46.00277" lon="6.29178">
        <ele>1259.4599609375</ele>
        <time>2013-09-15T07:33:51.000Z</time>
      </trkpt>
      <trkpt lat="46.00276" lon="6.29186">
        <ele>1258.9799804688</ele>
        <time>2013-09-15T07:33:56.000Z</time>
      </trkpt>
      <trkpt lat="46.00278" lon="6.29197">
        <ele>1257.5400390625</ele>
        <time>2013-09-15T07:34:02.000Z</time>
      </trkpt>
      <trkpt lat="46.00277" lon="6.29207">
        <ele>1255.6199951172</ele>
        <time>2013-09-15T07:34:08.000Z</time>
      </trkpt>
      <trkpt lat="46.00274" lon="6.29214">
        <ele>1254.6600341797</ele>
        <time>2013-09-15T07:34:14.000Z</time>
      </trkpt>
      <trkpt lat="46.0027" lon="6.29218">
        <ele>1256.5799560547</ele>
        <time>2013-09-15T07:34:18.000Z</time>
      </trkpt>
      <trkpt lat="46.00263" lon="6.29221">
        <ele>1257.0600585938</ele>
        <time>2013-09-15T07:34:24.000Z</time>
      </trkpt>
      <trkpt lat="46.00261" lon="6.29225">
        <ele>1258.5</ele>
        <time>2013-09-15T07:34:28.000Z</time>
      </trkpt>
      <trkpt lat="46.00258" lon="6.29228">
        <ele>1260.4300537109</ele>
        <time>2013-09-15T07:34:32.000Z</time>
      </trkpt>
      <trkpt lat="46.00255" lon="6.2923">
        <ele>1262.3499755859</ele>
        <time>2013-09-15T07:34:36.000Z</time>
      </trkpt>
      <trkpt lat="46.00252" lon="6.29233">
        <ele>1265.2299804688</ele>
        <time>2013-09-15T07:34:40.000Z</time>
      </trkpt>
      <trkpt lat="46.00251" lon="6.29236">
        <ele>1268.1199951172</ele>
        <time>2013-09-15T07:34:44.000Z</time>
      </trkpt>
      <trkpt lat="46.00245" lon="6.2924">
        <ele>1272.9200439453</ele>
        <time>2013-09-15T07:34:51.000Z</time>
      </trkpt>
      <trkpt lat="46.0024" lon="6.29243">
        <ele>1279.6500244141</ele>
        <time>2013-09-15T07:34:56.000Z</time>
      </trkpt>
      <trkpt lat="46.00237" lon="6.29244">
        <ele>1282.0600585938</ele>
        <time>2013-09-15T07:35:00.000Z</time>
      </trkpt>
      <trkpt lat="46.00233" lon="6.29248">
        <ele>1286.3800048828</ele>
        <time>2013-09-15T07:35:06.000Z</time>
      </trkpt>
      <trkpt lat="46.00234" lon="6.29252">
        <ele>1286.3800048828</ele>
        <time>2013-09-15T07:35:10.000Z</time>
      </trkpt>
      <trkpt lat="46.00235" lon="6.29252">
        <ele>1287.8199462891</ele>
        <time>2013-09-15T07:35:11.000Z</time>
      </trkpt>
      <trkpt lat="46.00238" lon="6.29257">
        <ele>1287.8199462891</ele>
        <time>2013-09-15T07:35:16.000Z</time>
      </trkpt>
      <trkpt lat="46.00239" lon="6.2926">
        <ele>1286.8599853516</ele>
        <time>2013-09-15T07:35:18.000Z</time>
      </trkpt>
      <trkpt lat="46.00236" lon="6.29265">
        <ele>1287.3399658203</ele>
        <time>2013-09-15T07:35:21.000Z</time>
      </trkpt>
      <trkpt lat="46.00238" lon="6.2927">
        <ele>1288.7800292969</ele>
        <time>2013-09-15T07:35:26.000Z</time>
      </trkpt>
      <trkpt lat="46.00243" lon="6.29275">
        <ele>1288.7800292969</ele>
        <time>2013-09-15T07:35:30.000Z</time>
      </trkpt>
      <trkpt lat="46.00245" lon="6.29281">
        <ele>1289.2700195312</ele>
        <time>2013-09-15T07:35:35.000Z</time>
      </trkpt>
      <trkpt lat="46.00245" lon="6.29282">
        <ele>1289.75</ele>
        <time>2013-09-15T07:35:36.000Z</time>
      </trkpt>
      <trkpt lat="46.00243" lon="6.29288">
        <ele>1290.2299804688</ele>
        <time>2013-09-15T07:35:41.000Z</time>
      </trkpt>
      <trkpt lat="46.00243" lon="6.29293">
        <ele>1289.75</ele>
        <time>2013-09-15T07:35:45.000Z</time>
      </trkpt>
      <trkpt lat="46.00243" lon="6.293">
        <ele>1289.2700195312</ele>
        <time>2013-09-15T07:35:50.000Z</time>
      </trkpt>
      <trkpt lat="46.00243" lon="6.29301">
        <ele>1290.2299804688</ele>
        <time>2013-09-15T07:35:52.000Z</time>
      </trkpt>
      <trkpt lat="46.00241" lon="6.29308">
        <ele>1295.9899902344</ele>
        <time>2013-09-15T07:35:58.000Z</time>
      </trkpt>
      <trkpt lat="46.00243" lon="6.29311">
        <ele>1297.4399414062</ele>
        <time>2013-09-15T07:36:00.000Z</time>
      </trkpt>
      <trkpt lat="46.00241" lon="6.29319">
        <ele>1294.5500488281</ele>
        <time>2013-09-15T07:36:04.000Z</time>
      </trkpt>
      <trkpt lat="46.00241" lon="6.29322">
        <ele>1294.5500488281</ele>
        <time>2013-09-15T07:36:06.000Z</time>
      </trkpt>
      <trkpt lat="46.00238" lon="6.29331">
        <ele>1292.6300048828</ele>
        <time>2013-09-15T07:36:13.000Z</time>
      </trkpt>
      <trkpt lat="46.00238" lon="6.29332">
        <ele>1292.6300048828</ele>
        <time>2013-09-15T07:36:14.000Z</time>
      </trkpt>
      <trkpt lat="46.00237" lon="6.29339">
        <ele>1290.7099609375</ele>
        <time>2013-09-15T07:36:19.000Z</time>
      </trkpt>
      <trkpt lat="46.00232" lon="6.29347">
        <ele>1293.1099853516</ele>
        <time>2013-09-15T07:36:26.000Z</time>
      </trkpt>
      <trkpt lat="46.00227" lon="6.29354">
        <ele>1294.0699462891</ele>
        <time>2013-09-15T07:36:32.000Z</time>
      </trkpt>
      <trkpt lat="46.00224" lon="6.2936">
        <ele>1297.4399414062</ele>
        <time>2013-09-15T07:36:37.000Z</time>
      </trkpt>
      <trkpt lat="46.00221" lon="6.29365">
        <ele>1301.2800292969</ele>
        <time>2013-09-15T07:36:41.000Z</time>
      </trkpt>
      <trkpt lat="46.00223" lon="6.29373">
        <ele>1302.7199707031</ele>
        <time>2013-09-15T07:36:46.000Z</time>
      </trkpt>
      <trkpt lat="46.00224" lon="6.29376">
        <ele>1302.7199707031</ele>
        <time>2013-09-15T07:36:48.000Z</time>
      </trkpt>
      <trkpt lat="46.00227" lon="6.29383">
        <ele>1302.7199707031</ele>
        <time>2013-09-15T07:36:54.000Z</time>
      </trkpt>
      <trkpt lat="46.00232" lon="6.29391">
        <ele>1304.6500244141</ele>
        <time>2013-09-15T07:37:00.000Z</time>
      </trkpt>
      <trkpt lat="46.00235" lon="6.29397">
        <ele>1301.2800292969</ele>
        <time>2013-09-15T07:37:04.000Z</time>
      </trkpt>
      <trkpt lat="46.00238" lon="6.29402">
        <ele>1301.2800292969</ele>
        <time>2013-09-15T07:37:08.000Z</time>
      </trkpt>
      <trkpt lat="46.00241" lon="6.29409">
        <ele>1304.6500244141</ele>
        <time>2013-09-15T07:37:14.000Z</time>
      </trkpt>
      <trkpt lat="46.00242" lon="6.29414">
        <ele>1306.5699462891</ele>
        <time>2013-09-15T07:37:18.000Z</time>
      </trkpt>
      <trkpt lat="46.00241" lon="6.29419">
        <ele>1309.9300537109</ele>
        <time>2013-09-15T07:37:24.000Z</time>
      </trkpt>
      <trkpt lat="46.00239" lon="6.29414">
        <ele>1310.9000244141</ele>
        <time>2013-09-15T07:37:31.000Z</time>
      </trkpt>
      <trkpt lat="46.00241" lon="6.29411">
        <ele>1312.8199462891</ele>
        <time>2013-09-15T07:37:33.000Z</time>
      </trkpt>
      <trkpt lat="46.00237" lon="6.29407">
        <ele>1316.1800537109</ele>
        <time>2013-09-15T07:37:36.000Z</time>
      </trkpt>
      <trkpt lat="46.00223" lon="6.29401">
        <ele>1320.5100097656</ele>
        <time>2013-09-15T07:37:43.000Z</time>
      </trkpt>
      <trkpt lat="46.0022" lon="6.29394">
        <ele>1330.1199951172</ele>
        <time>2013-09-15T07:37:48.000Z</time>
      </trkpt>
      <trkpt lat="46.00215" lon="6.29392">
        <ele>1332.5200195312</ele>
        <time>2013-09-15T07:37:53.000Z</time>
      </trkpt>
      <trkpt lat="46.0021" lon="6.29387">
        <ele>1335.4100341797</ele>
        <time>2013-09-15T07:37:58.000Z</time>
      </trkpt>
      <trkpt lat="46.00212" lon="6.29382">
        <ele>1337.8100585938</ele>
        <time>2013-09-15T07:38:03.000Z</time>
      </trkpt>
      <trkpt lat="46.00212" lon="6.29374">
        <ele>1341.6600341797</ele>
        <time>2013-09-15T07:38:09.000Z</time>
      </trkpt>
      <trkpt lat="46.00212" lon="6.2937">
        <ele>1337.8100585938</ele>
        <time>2013-09-15T07:38:12.000Z</time>
      </trkpt>
      <trkpt lat="46.00215" lon="6.29363">
        <ele>1329.6400146484</ele>
        <time>2013-09-15T07:38:18.000Z</time>
      </trkpt>
      <trkpt lat="46.00211" lon="6.29359">
        <ele>1322.9100341797</ele>
        <time>2013-09-15T07:38:23.000Z</time>
      </trkpt>
      <trkpt lat="46.00204" lon="6.29354">
        <ele>1318.5899658203</ele>
        <time>2013-09-15T07:38:28.000Z</time>
      </trkpt>
      <trkpt lat="46.00204" lon="6.29346">
        <ele>1319.5500488281</ele>
        <time>2013-09-15T07:38:34.000Z</time>
      </trkpt>
      <trkpt lat="46.00203" lon="6.29338">
        <ele>1321.4699707031</ele>
        <time>2013-09-15T07:38:41.000Z</time>
      </trkpt>
      <trkpt lat="46.00201" lon="6.29332">
        <ele>1321.9499511719</ele>
        <time>2013-09-15T07:38:45.000Z</time>
      </trkpt>
      <trkpt lat="46.002" lon="6.29328">
        <ele>1321.9499511719</ele>
        <time>2013-09-15T07:38:49.000Z</time>
      </trkpt>
      <trkpt lat="46.00195" lon="6.2932">
        <ele>1319.5500488281</ele>
        <time>2013-09-15T07:38:55.000Z</time>
      </trkpt>
      <trkpt lat="46.00198" lon="6.29316">
        <ele>1321.4699707031</ele>
        <time>2013-09-15T07:38:58.000Z</time>
      </trkpt>
      <trkpt lat="46.00197" lon="6.29309">
        <ele>1321.9499511719</ele>
        <time>2013-09-15T07:39:02.000Z</time>
      </trkpt>
      <trkpt lat="46.00194" lon="6.29303">
        <ele>1323.3900146484</ele>
        <time>2013-09-15T07:39:07.000Z</time>
      </trkpt>
      <trkpt lat="46.00192" lon="6.29298">
        <ele>1325.8000488281</ele>
        <time>2013-09-15T07:39:10.000Z</time>
      </trkpt>
      <trkpt lat="46.00188" lon="6.29291">
        <ele>1326.7600097656</ele>
        <time>2013-09-15T07:39:16.000Z</time>
      </trkpt>
      <trkpt lat="46.00181" lon="6.29283">
        <ele>1326.7600097656</ele>
        <time>2013-09-15T07:39:20.000Z</time>
      </trkpt>
      <trkpt lat="46.00176" lon="6.29281">
        <ele>1326.2800292969</ele>
        <time>2013-09-15T07:39:24.000Z</time>
      </trkpt>
      <trkpt lat="46.00169" lon="6.29275">
        <ele>1329.6400146484</ele>
        <time>2013-09-15T07:39:29.000Z</time>
      </trkpt>
      <trkpt lat="46.00165" lon="6.29267">
        <ele>1333.9699707031</ele>
        <time>2013-09-15T07:39:35.000Z</time>
      </trkpt>
      <trkpt lat="46.00161" lon="6.29259">
        <ele>1343.5799560547</ele>
        <time>2013-09-15T07:39:41.000Z</time>
      </trkpt>
      <trkpt lat="46.00156" lon="6.29251">
        <ele>1349.8299560547</ele>
        <time>2013-09-15T07:39:47.000Z</time>
      </trkpt>
      <trkpt lat="46.00154" lon="6.29249">
        <ele>1351.75</ele>
        <time>2013-09-15T07:39:48.000Z</time>
      </trkpt>
      <trkpt lat="46.00137" lon="6.29245">
        <ele>1365.6899414062</ele>
        <time>2013-09-15T07:39:55.000Z</time>
      </trkpt>
      <trkpt lat="46.00134" lon="6.29241">
        <ele>1366.1700439453</ele>
        <time>2013-09-15T07:39:59.000Z</time>
      </trkpt>
      <trkpt lat="46.00127" lon="6.29238">
        <ele>1367.1300048828</ele>
        <time>2013-09-15T07:40:04.000Z</time>
      </trkpt>
      <trkpt lat="46.00115" lon="6.29231">
        <ele>1370.9799804688</ele>
        <time>2013-09-15T07:40:09.000Z</time>
      </trkpt>
      <trkpt lat="46.00114" lon="6.2923">
        <ele>1372.9000244141</ele>
        <time>2013-09-15T07:40:10.000Z</time>
      </trkpt>
      <trkpt lat="46.00104" lon="6.29238">
        <ele>1373.8599853516</ele>
        <time>2013-09-15T07:40:17.000Z</time>
      </trkpt>
      <trkpt lat="46.00106" lon="6.29249">
        <ele>1365.6899414062</ele>
        <time>2013-09-15T07:40:22.000Z</time>
      </trkpt>
      <trkpt lat="46.00111" lon="6.29257">
        <ele>1360.8800048828</ele>
        <time>2013-09-15T07:40:26.000Z</time>
      </trkpt>
      <trkpt lat="46.00115" lon="6.29263">
        <ele>1355.5999755859</ele>
        <time>2013-09-15T07:40:30.000Z</time>
      </trkpt>
      <trkpt lat="46.00118" lon="6.29269">
        <ele>1351.2700195312</ele>
        <time>2013-09-15T07:40:35.000Z</time>
      </trkpt>
      <trkpt lat="46.00118" lon="6.29273">
        <ele>1348.3900146484</ele>
        <time>2013-09-15T07:40:38.000Z</time>
      </trkpt>
      <trkpt lat="46.00118" lon="6.29282">
        <ele>1348.8699951172</ele>
        <time>2013-09-15T07:40:44.000Z</time>
      </trkpt>
      <trkpt lat="46.00119" lon="6.29284">
        <ele>1349.3499755859</ele>
        <time>2013-09-15T07:40:45.000Z</time>
      </trkpt>
      <trkpt lat="46.00122" lon="6.2929">
        <ele>1348.8699951172</ele>
        <time>2013-09-15T07:40:50.000Z</time>
      </trkpt>
      <trkpt lat="46.00121" lon="6.29295">
        <ele>1354.1500244141</ele>
        <time>2013-09-15T07:40:55.000Z</time>
      </trkpt>
      <trkpt lat="46.00125" lon="6.29302">
        <ele>1359.9200439453</ele>
        <time>2013-09-15T07:41:00.000Z</time>
      </trkpt>
      <trkpt lat="46.00125" lon="6.29306">
        <ele>1363.7700195312</ele>
        <time>2013-09-15T07:41:04.000Z</time>
      </trkpt>
      <trkpt lat="46.00129" lon="6.29312">
        <ele>1367.1300048828</ele>
        <time>2013-09-15T07:41:09.000Z</time>
      </trkpt>
      <trkpt lat="46.00125" lon="6.2932">
        <ele>1367.1300048828</ele>
        <time>2013-09-15T07:41:13.000Z</time>
      </trkpt>
      <trkpt lat="46.00124" lon="6.29328">
        <ele>1370.0200195312</ele>
        <time>2013-09-15T07:41:19.000Z</time>
      </trkpt>
      <trkpt lat="46.00122" lon="6.29338">
        <ele>1367.1300048828</ele>
        <time>2013-09-15T07:41:25.000Z</time>
      </trkpt>
      <trkpt lat="46.00128" lon="6.29341">
        <ele>1366.6500244141</ele>
        <time>2013-09-15T07:41:29.000Z</time>
      </trkpt>
      <trkpt lat="46.00127" lon="6.29347">
        <ele>1364.7299804688</ele>
        <time>2013-09-15T07:41:35.000Z</time>
      </trkpt>
      <trkpt lat="46.00127" lon="6.29351">
        <ele>1363.7700195312</ele>
        <time>2013-09-15T07:41:37.000Z</time>
      </trkpt>
      <trkpt lat="46.00128" lon="6.29355">
        <ele>1363.2900390625</ele>
        <time>2013-09-15T07:41:40.000Z</time>
      </trkpt>
      <trkpt lat="46.00133" lon="6.29358">
        <ele>1364.7299804688</ele>
        <time>2013-09-15T07:41:43.000Z</time>
      </trkpt>
      <trkpt lat="46.00135" lon="6.29364">
        <ele>1365.2099609375</ele>
        <time>2013-09-15T07:41:48.000Z</time>
      </trkpt>
      <trkpt lat="46.00134" lon="6.29364">
        <ele>1364.7299804688</ele>
        <time>2013-09-15T07:41:49.000Z</time>
      </trkpt>
      <trkpt lat="46.00132" lon="6.2937">
        <ele>1362.8100585938</ele>
        <time>2013-09-15T07:41:54.000Z</time>
      </trkpt>
      <trkpt lat="46.0013" lon="6.29374">
        <ele>1362.3299560547</ele>
        <time>2013-09-15T07:41:57.000Z</time>
      </trkpt>
      <trkpt lat="46.00127" lon="6.29377">
        <ele>1359.9200439453</ele>
        <time>2013-09-15T07:42:01.000Z</time>
      </trkpt>
      <trkpt lat="46.00126" lon="6.29385">
        <ele>1359.4399414062</ele>
        <time>2013-09-15T07:42:08.000Z</time>
      </trkpt>
      <trkpt lat="46.00126" lon="6.29391">
        <ele>1358.4799804688</ele>
        <time>2013-09-15T07:42:14.000Z</time>
      </trkpt>
      <trkpt lat="46.00124" lon="6.29396">
        <ele>1360.4000244141</ele>
        <time>2013-09-15T07:42:18.000Z</time>
      </trkpt>
      <trkpt lat="46.00123" lon="6.29397">
        <ele>1360.4000244141</ele>
        <time>2013-09-15T07:42:19.000Z</time>
      </trkpt>
      <trkpt lat="46.00121" lon="6.29402">
        <ele>1361.3599853516</ele>
        <time>2013-09-15T07:42:22.000Z</time>
      </trkpt>
      <trkpt lat="46.0012" lon="6.29411">
        <ele>1361.3599853516</ele>
        <time>2013-09-15T07:42:29.000Z</time>
      </trkpt>
      <trkpt lat="46.00117" lon="6.29418">
        <ele>1365.6899414062</ele>
        <time>2013-09-15T07:42:35.000Z</time>
      </trkpt>
      <trkpt lat="46.00116" lon="6.29419">
        <ele>1367.6099853516</ele>
        <time>2013-09-15T07:42:36.000Z</time>
      </trkpt>
      <trkpt lat="46.00113" lon="6.2942">
        <ele>1370.9799804688</ele>
        <time>2013-09-15T07:42:39.000Z</time>
      </trkpt>
      <trkpt lat="46.00107" lon="6.29425">
        <ele>1374.3399658203</ele>
        <time>2013-09-15T07:42:45.000Z</time>
      </trkpt>
      <trkpt lat="46.00101" lon="6.29429">
        <ele>1380.1099853516</ele>
        <time>2013-09-15T07:42:50.000Z</time>
      </trkpt>
      <trkpt lat="46.00099" lon="6.29432">
        <ele>1383.9599609375</ele>
        <time>2013-09-15T07:42:52.000Z</time>
      </trkpt>
      <trkpt lat="46.00095" lon="6.29434">
        <ele>1388.7600097656</ele>
        <time>2013-09-15T07:42:57.000Z</time>
      </trkpt>
      <trkpt lat="46.00092" lon="6.29437">
        <ele>1389.7199707031</ele>
        <time>2013-09-15T07:43:04.000Z</time>
      </trkpt>
      <trkpt lat="46.00091" lon="6.29442">
        <ele>1386.3599853516</ele>
        <time>2013-09-15T07:43:08.000Z</time>
      </trkpt>
      <trkpt lat="46.00092" lon="6.29446">
        <ele>1386.3599853516</ele>
        <time>2013-09-15T07:43:13.000Z</time>
      </trkpt>
      <trkpt lat="46.00089" lon="6.2945">
        <ele>1387.3199462891</ele>
        <time>2013-09-15T07:43:18.000Z</time>
      </trkpt>
      <trkpt lat="46.00084" lon="6.29453">
        <ele>1390.6800537109</ele>
        <time>2013-09-15T07:43:23.000Z</time>
      </trkpt>
      <trkpt lat="46.0008" lon="6.29457">
        <ele>1393.5699462891</ele>
        <time>2013-09-15T07:43:26.000Z</time>
      </trkpt>
      <trkpt lat="46.00072" lon="6.29464">
        <ele>1397.4100341797</ele>
        <time>2013-09-15T07:43:32.000Z</time>
      </trkpt>
      <trkpt lat="46.00061" lon="6.29462">
        <ele>1398.3699951172</ele>
        <time>2013-09-15T07:43:38.000Z</time>
      </trkpt>
      <trkpt lat="46.0006" lon="6.29462">
        <ele>1399.8199462891</ele>
        <time>2013-09-15T07:43:43.000Z</time>
      </trkpt>
      <trkpt lat="46.00058" lon="6.29464">
        <ele>1400.7800292969</ele>
        <time>2013-09-15T07:43:49.000Z</time>
      </trkpt>
      <trkpt lat="46.00055" lon="6.29469">
        <ele>1402.6999511719</ele>
        <time>2013-09-15T07:43:54.000Z</time>
      </trkpt>
      <trkpt lat="46.0005" lon="6.29474">
        <ele>1405.0999755859</ele>
        <time>2013-09-15T07:43:59.000Z</time>
      </trkpt>
      <trkpt lat="46.00049" lon="6.29475">
        <ele>1400.7800292969</ele>
        <time>2013-09-15T07:44:01.000Z</time>
      </trkpt>
      <trkpt lat="46.00043" lon="6.29483">
        <ele>1397.4100341797</ele>
        <time>2013-09-15T07:44:09.000Z</time>
      </trkpt>
      <trkpt lat="46.00041" lon="6.29487">
        <ele>1398.8599853516</ele>
        <time>2013-09-15T07:44:14.000Z</time>
      </trkpt>
      <trkpt lat="46.00036" lon="6.2949">
        <ele>1397.8900146484</ele>
        <time>2013-09-15T07:44:19.000Z</time>
      </trkpt>
      <trkpt lat="46.00035" lon="6.29495">
        <ele>1398.8599853516</ele>
        <time>2013-09-15T07:44:22.000Z</time>
      </trkpt>
      <trkpt lat="46.00029" lon="6.29501">
        <ele>1394.5300292969</ele>
        <time>2013-09-15T07:44:28.000Z</time>
      </trkpt>
      <trkpt lat="46.00026" lon="6.29506">
        <ele>1400.3000488281</ele>
        <time>2013-09-15T07:44:32.000Z</time>
      </trkpt>
      <trkpt lat="46.00023" lon="6.29516">
        <ele>1406.5500488281</ele>
        <time>2013-09-15T07:44:38.000Z</time>
      </trkpt>
      <trkpt lat="46.00022" lon="6.29518">
        <ele>1407.5100097656</ele>
        <time>2013-09-15T07:44:39.000Z</time>
      </trkpt>
      <trkpt lat="46.00021" lon="6.29526">
        <ele>1409.4300537109</ele>
        <time>2013-09-15T07:44:43.000Z</time>
      </trkpt>
      <trkpt lat="46.00019" lon="6.29542">
        <ele>1416.6400146484</ele>
        <time>2013-09-15T07:44:50.000Z</time>
      </trkpt>
      <trkpt lat="46.00017" lon="6.29547">
        <ele>1412.7900390625</ele>
        <time>2013-09-15T07:44:54.000Z</time>
      </trkpt>
      <trkpt lat="46.00013" lon="6.2955">
        <ele>1417.1199951172</ele>
        <time>2013-09-15T07:45:01.000Z</time>
      </trkpt>
      <trkpt lat="46.00007" lon="6.2955">
        <ele>1420.9699707031</ele>
        <time>2013-09-15T07:45:05.000Z</time>
      </trkpt>
      <trkpt lat="45.99998" lon="6.29548">
        <ele>1426.25</ele>
        <time>2013-09-15T07:45:12.000Z</time>
      </trkpt>
      <trkpt lat="45.99997" lon="6.29548">
        <ele>1431.5400390625</ele>
        <time>2013-09-15T07:45:16.000Z</time>
      </trkpt>
      <trkpt lat="45.99996" lon="6.29548">
        <ele>1432.5</ele>
        <time>2013-09-15T07:45:17.000Z</time>
      </trkpt>
      <trkpt lat="45.9999" lon="6.2955">
        <ele>1437.7900390625</ele>
        <time>2013-09-15T07:45:21.000Z</time>
      </trkpt>
      <trkpt lat="45.99986" lon="6.29552">
        <ele>1440.6700439453</ele>
        <time>2013-09-15T07:45:26.000Z</time>
      </trkpt>
      <trkpt lat="45.99985" lon="6.29556">
        <ele>1442.5999755859</ele>
        <time>2013-09-15T07:45:32.000Z</time>
      </trkpt>
      <trkpt lat="45.99986" lon="6.29558">
        <ele>1440.1899414062</ele>
        <time>2013-09-15T07:45:36.000Z</time>
      </trkpt>
      <trkpt lat="45.99985" lon="6.29559">
        <ele>1439.2299804688</ele>
        <time>2013-09-15T07:45:37.000Z</time>
      </trkpt>
      <trkpt lat="45.99981" lon="6.29562">
        <ele>1434.9100341797</ele>
        <time>2013-09-15T07:45:42.000Z</time>
      </trkpt>
      <trkpt lat="45.99981" lon="6.29564">
        <ele>1434.4200439453</ele>
        <time>2013-09-15T07:45:43.000Z</time>
      </trkpt>
      <trkpt lat="45.99979" lon="6.29567">
        <ele>1432.5</ele>
        <time>2013-09-15T07:45:46.000Z</time>
      </trkpt>
      <trkpt lat="45.99973" lon="6.29569">
        <ele>1423.8499755859</ele>
        <time>2013-09-15T07:45:52.000Z</time>
      </trkpt>
      <trkpt lat="45.9997" lon="6.29572">
        <ele>1420</ele>
        <time>2013-09-15T07:45:55.000Z</time>
      </trkpt>
      <trkpt lat="45.99968" lon="6.2958">
        <ele>1418.5600585938</ele>
        <time>2013-09-15T07:46:02.000Z</time>
      </trkpt>
      <trkpt lat="45.99959" lon="6.29585">
        <ele>1417.1199951172</ele>
        <time>2013-09-15T07:46:10.000Z</time>
      </trkpt>
      <trkpt lat="45.99953" lon="6.2959">
        <ele>1416.6400146484</ele>
        <time>2013-09-15T07:46:17.000Z</time>
      </trkpt>
      <trkpt lat="45.99952" lon="6.29591">
        <ele>1417.1199951172</ele>
        <time>2013-09-15T07:46:19.000Z</time>
      </trkpt>
      <trkpt lat="45.99952" lon="6.29598">
        <ele>1422.8900146484</ele>
        <time>2013-09-15T07:46:25.000Z</time>
      </trkpt>
      <trkpt lat="45.9996" lon="6.29606">
        <ele>1430.5799560547</ele>
        <time>2013-09-15T07:46:32.000Z</time>
      </trkpt>
      <trkpt lat="45.9996" lon="6.29608">
        <ele>1432.0200195312</ele>
        <time>2013-09-15T07:46:34.000Z</time>
      </trkpt>
      <trkpt lat="45.99959" lon="6.29616">
        <ele>1438.2700195312</ele>
        <time>2013-09-15T07:46:40.000Z</time>
      </trkpt>
      <trkpt lat="45.99953" lon="6.29625">
        <ele>1440.1899414062</ele>
        <time>2013-09-15T07:46:47.000Z</time>
      </trkpt>
      <trkpt lat="45.99952" lon="6.29626">
        <ele>1440.1899414062</ele>
        <time>2013-09-15T07:46:48.000Z</time>
      </trkpt>
      <trkpt lat="45.99949" lon="6.29631">
        <ele>1441.1500244141</ele>
        <time>2013-09-15T07:46:55.000Z</time>
      </trkpt>
      <trkpt lat="45.99947" lon="6.29636">
        <ele>1441.1500244141</ele>
        <time>2013-09-15T07:47:00.000Z</time>
      </trkpt>
      <trkpt lat="45.99946" lon="6.29642">
        <ele>1440.1899414062</ele>
        <time>2013-09-15T07:47:04.000Z</time>
      </trkpt>
      <trkpt lat="45.99943" lon="6.29646">
        <ele>1437.7900390625</ele>
        <time>2013-09-15T07:47:10.000Z</time>
      </trkpt>
      <trkpt lat="45.9994" lon="6.29649">
        <ele>1431.0600585938</ele>
        <time>2013-09-15T07:47:16.000Z</time>
      </trkpt>
      <trkpt lat="45.9994" lon="6.29649">
        <ele>1429.1400146484</ele>
        <time>2013-09-15T07:47:21.000Z</time>
      </trkpt>
      <trkpt lat="45.99936" lon="6.29642">
        <ele>1430.0999755859</ele>
        <time>2013-09-15T07:47:34.000Z</time>
      </trkpt>
      <trkpt lat="45.99923" lon="6.29646">
        <ele>1426.25</ele>
        <time>2013-09-15T07:47:39.000Z</time>
      </trkpt>
      <trkpt lat="45.99918" lon="6.29649">
        <ele>1427.2099609375</ele>
        <time>2013-09-15T07:47:44.000Z</time>
      </trkpt>
      <trkpt lat="45.9992" lon="6.29653">
        <ele>1432.5</ele>
        <time>2013-09-15T07:47:51.000Z</time>
      </trkpt>
      <trkpt lat="45.99925" lon="6.29654">
        <ele>1440.1899414062</ele>
        <time>2013-09-15T07:47:56.000Z</time>
      </trkpt>
      <trkpt lat="45.99925" lon="6.29657">
        <ele>1441.6300048828</ele>
        <time>2013-09-15T07:47:58.000Z</time>
      </trkpt>
      <trkpt lat="45.99922" lon="6.29666">
        <ele>1451.25</ele>
        <time>2013-09-15T07:48:04.000Z</time>
      </trkpt>
      <trkpt lat="45.99927" lon="6.2967">
        <ele>1465.1899414062</ele>
        <time>2013-09-15T07:48:12.000Z</time>
      </trkpt>
      <trkpt lat="45.99925" lon="6.29676">
        <ele>1465.1899414062</ele>
        <time>2013-09-15T07:48:18.000Z</time>
      </trkpt>
      <trkpt lat="45.99925" lon="6.29681">
        <ele>1459.9000244141</ele>
        <time>2013-09-15T07:48:26.000Z</time>
      </trkpt>
      <trkpt lat="45.99924" lon="6.29685">
        <ele>1456.5300292969</ele>
        <time>2013-09-15T07:48:28.000Z</time>
      </trkpt>
      <trkpt lat="45.99926" lon="6.29694">
        <ele>1448.8399658203</ele>
        <time>2013-09-15T07:48:34.000Z</time>
      </trkpt>
      <trkpt lat="45.99929" lon="6.29699">
        <ele>1446.9200439453</ele>
        <time>2013-09-15T07:48:38.000Z</time>
      </trkpt>
      <trkpt lat="45.99931" lon="6.29705">
        <ele>1447.8800048828</ele>
        <time>2013-09-15T07:48:44.000Z</time>
      </trkpt>
      <trkpt lat="45.99931" lon="6.29712">
        <ele>1455.0899658203</ele>
        <time>2013-09-15T07:48:51.000Z</time>
      </trkpt>
      <trkpt lat="45.99934" lon="6.29717">
        <ele>1459.9000244141</ele>
        <time>2013-09-15T07:48:56.000Z</time>
      </trkpt>
      <trkpt lat="45.99935" lon="6.29718">
        <ele>1461.8199462891</ele>
        <time>2013-09-15T07:48:57.000Z</time>
      </trkpt>
      <trkpt lat="45.9994" lon="6.2972">
        <ele>1469.0300292969</ele>
        <time>2013-09-15T07:49:01.000Z</time>
      </trkpt>
      <trkpt lat="45.99939" lon="6.29727">
        <ele>1473.3599853516</ele>
        <time>2013-09-15T07:49:09.000Z</time>
      </trkpt>
      <trkpt lat="45.99936" lon="6.2973">
        <ele>1473.8399658203</ele>
        <time>2013-09-15T07:49:12.000Z</time>
      </trkpt>
      <trkpt lat="45.99937" lon="6.2973">
        <ele>1475.2800292969</ele>
        <time>2013-09-15T07:49:13.000Z</time>
      </trkpt>
      <trkpt lat="45.99942" lon="6.29738">
        <ele>1470.9499511719</ele>
        <time>2013-09-15T07:49:19.000Z</time>
      </trkpt>
      <trkpt lat="45.99943" lon="6.2974">
        <ele>1468.5500488281</ele>
        <time>2013-09-15T07:49:21.000Z</time>
      </trkpt>
      <trkpt lat="45.99945" lon="6.29742">
        <ele>1468.5500488281</ele>
        <time>2013-09-15T07:49:23.000Z</time>
      </trkpt>
      <trkpt lat="45.99947" lon="6.29748">
        <ele>1469.5100097656</ele>
        <time>2013-09-15T07:49:28.000Z</time>
      </trkpt>
      <trkpt lat="45.9995" lon="6.29754">
        <ele>1465.1899414062</ele>
        <time>2013-09-15T07:49:34.000Z</time>
      </trkpt>
      <trkpt lat="45.99952" lon="6.29759">
        <ele>1465.6700439453</ele>
        <time>2013-09-15T07:49:39.000Z</time>
      </trkpt>
      <trkpt lat="45.99956" lon="6.29762">
        <ele>1468.0699462891</ele>
        <time>2013-09-15T07:49:43.000Z</time>
      </trkpt>
      <trkpt lat="45.99957" lon="6.29765">
        <ele>1466.6300048828</ele>
        <time>2013-09-15T07:49:47.000Z</time>
      </trkpt>
      <trkpt lat="45.9996" lon="6.2977">
        <ele>1468.0699462891</ele>
        <time>2013-09-15T07:49:51.000Z</time>
      </trkpt>
      <trkpt lat="45.99968" lon="6.29779">
        <ele>1470.4699707031</ele>
        <time>2013-09-15T07:49:59.000Z</time>
      </trkpt>
      <trkpt lat="45.9997" lon="6.2978">
        <ele>1471.9200439453</ele>
        <time>2013-09-15T07:50:00.000Z</time>
      </trkpt>
      <trkpt lat="45.99974" lon="6.29784">
        <ele>1476.2399902344</ele>
        <time>2013-09-15T07:50:06.000Z</time>
      </trkpt>
      <trkpt lat="45.99977" lon="6.29787">
        <ele>1476.2399902344</ele>
        <time>2013-09-15T07:50:10.000Z</time>
      </trkpt>
      <trkpt lat="45.99977" lon="6.29795">
        <ele>1475.7600097656</ele>
        <time>2013-09-15T07:50:17.000Z</time>
      </trkpt>
      <trkpt lat="45.9998" lon="6.29798">
        <ele>1477.1999511719</ele>
        <time>2013-09-15T07:50:22.000Z</time>
      </trkpt>
      <trkpt lat="45.99981" lon="6.29806">
        <ele>1475.7600097656</ele>
        <time>2013-09-15T07:50:28.000Z</time>
      </trkpt>
      <trkpt lat="45.99984" lon="6.29812">
        <ele>1475.2800292969</ele>
        <time>2013-09-15T07:50:34.000Z</time>
      </trkpt>
      <trkpt lat="45.9999" lon="6.29815">
        <ele>1475.7600097656</ele>
        <time>2013-09-15T07:50:39.000Z</time>
      </trkpt>
      <trkpt lat="45.99994" lon="6.2982">
        <ele>1476.7199707031</ele>
        <time>2013-09-15T07:50:44.000Z</time>
      </trkpt>
      <trkpt lat="45.99998" lon="6.29826">
        <ele>1477.6800537109</ele>
        <time>2013-09-15T07:50:49.000Z</time>
      </trkpt>
      <trkpt lat="45.99996" lon="6.2983">
        <ele>1478.1600341797</ele>
        <time>2013-09-15T07:50:55.000Z</time>
      </trkpt>
      <trkpt lat="45.9999" lon="6.29825">
        <ele>1477.1999511719</ele>
        <time>2013-09-15T07:51:02.000Z</time>
      </trkpt>
      <trkpt lat="45.99982" lon="6.29821">
        <ele>1476.7199707031</ele>
        <time>2013-09-15T07:51:11.000Z</time>
      </trkpt>
      <trkpt lat="45.99977" lon="6.29819">
        <ele>1476.2399902344</ele>
        <time>2013-09-15T07:51:16.000Z</time>
      </trkpt>
      <trkpt lat="45.99975" lon="6.29816">
        <ele>1477.1999511719</ele>
        <time>2013-09-15T07:51:20.000Z</time>
      </trkpt>
      <trkpt lat="45.99973" lon="6.29815">
        <ele>1478.6500244141</ele>
        <time>2013-09-15T07:51:24.000Z</time>
      </trkpt>
      <trkpt lat="45.99972" lon="6.29814">
        <ele>1483.9300537109</ele>
        <time>2013-09-15T07:51:30.000Z</time>
      </trkpt>
      <trkpt lat="45.99967" lon="6.29814">
        <ele>1484.8900146484</ele>
        <time>2013-09-15T07:51:34.000Z</time>
      </trkpt>
      <trkpt lat="45.99962" lon="6.29814">
        <ele>1484.8900146484</ele>
        <time>2013-09-15T07:51:38.000Z</time>
      </trkpt>
      <trkpt lat="45.99956" lon="6.29814">
        <ele>1483.9300537109</ele>
        <time>2013-09-15T07:51:43.000Z</time>
      </trkpt>
      <trkpt lat="45.99949" lon="6.29814">
        <ele>1482.4899902344</ele>
        <time>2013-09-15T07:51:49.000Z</time>
      </trkpt>
      <trkpt lat="45.99944" lon="6.29813">
        <ele>1483.9300537109</ele>
        <time>2013-09-15T07:51:56.000Z</time>
      </trkpt>
      <trkpt lat="45.99936" lon="6.29815">
        <ele>1480.5699462891</ele>
        <time>2013-09-15T07:52:01.000Z</time>
      </trkpt>
      <trkpt lat="45.99928" lon="6.29814">
        <ele>1478.1600341797</ele>
        <time>2013-09-15T07:52:06.000Z</time>
      </trkpt>
      <trkpt lat="45.99923" lon="6.29816">
        <ele>1477.6800537109</ele>
        <time>2013-09-15T07:52:12.000Z</time>
      </trkpt>
      <trkpt lat="45.99913" lon="6.29817">
        <ele>1473.3599853516</ele>
        <time>2013-09-15T07:52:17.000Z</time>
      </trkpt>
      <trkpt lat="45.99917" lon="6.29812">
        <ele>1483.4499511719</ele>
        <time>2013-09-15T07:52:21.000Z</time>
      </trkpt>
      <trkpt lat="45.99915" lon="6.29812">
        <ele>1484.4100341797</ele>
        <time>2013-09-15T07:52:23.000Z</time>
      </trkpt>
      <trkpt lat="45.99911" lon="6.29811">
        <ele>1485.8499755859</ele>
        <time>2013-09-15T07:52:28.000Z</time>
      </trkpt>
      <trkpt lat="45.99905" lon="6.29817">
        <ele>1482.4899902344</ele>
        <time>2013-09-15T07:52:34.000Z</time>
      </trkpt>
      <trkpt lat="45.99904" lon="6.29811">
        <ele>1491.6199951172</ele>
        <time>2013-09-15T07:52:41.000Z</time>
      </trkpt>
      <trkpt lat="45.999" lon="6.29807">
        <ele>1496.4300537109</ele>
        <time>2013-09-15T07:52:46.000Z</time>
      </trkpt>
      <trkpt lat="45.99901" lon="6.29805">
        <ele>1503.1600341797</ele>
        <time>2013-09-15T07:52:53.000Z</time>
      </trkpt>
      <trkpt lat="45.99886" lon="6.29804">
        <ele>1500.2700195312</ele>
        <time>2013-09-15T07:53:05.000Z</time>
      </trkpt>
      <trkpt lat="45.99881" lon="6.29803">
        <ele>1501.7199707031</ele>
        <time>2013-09-15T07:53:10.000Z</time>
      </trkpt>
      <trkpt lat="45.99875" lon="6.29802">
        <ele>1499.7900390625</ele>
        <time>2013-09-15T07:53:14.000Z</time>
      </trkpt>
      <trkpt lat="45.99869" lon="6.298">
        <ele>1499.3100585938</ele>
        <time>2013-09-15T07:53:18.000Z</time>
      </trkpt>
      <trkpt lat="45.9986" lon="6.29797">
        <ele>1498.3499755859</ele>
        <time>2013-09-15T07:53:29.000Z</time>
      </trkpt>
      <trkpt lat="45.99859" lon="6.29798">
        <ele>1500.2700195312</ele>
        <time>2013-09-15T07:53:33.000Z</time>
      </trkpt>
      <trkpt lat="45.99852" lon="6.29802">
        <ele>1496.4300537109</ele>
        <time>2013-09-15T07:53:37.000Z</time>
      </trkpt>
      <trkpt lat="45.99844" lon="6.29803">
        <ele>1496.4300537109</ele>
        <time>2013-09-15T07:53:42.000Z</time>
      </trkpt>
      <trkpt lat="45.9984" lon="6.29803">
        <ele>1494.9899902344</ele>
        <time>2013-09-15T07:53:47.000Z</time>
      </trkpt>
      <trkpt lat="45.99837" lon="6.29799">
        <ele>1498.8299560547</ele>
        <time>2013-09-15T07:53:52.000Z</time>
      </trkpt>
      <trkpt lat="45.99836" lon="6.29797">
        <ele>1501.2399902344</ele>
        <time>2013-09-15T07:53:55.000Z</time>
      </trkpt>
      <trkpt lat="45.99829" lon="6.29788">
        <ele>1505.5600585938</ele>
        <time>2013-09-15T07:54:01.000Z</time>
      </trkpt>
      <trkpt lat="45.99825" lon="6.29783">
        <ele>1507.9699707031</ele>
        <time>2013-09-15T07:54:06.000Z</time>
      </trkpt>
      <trkpt lat="45.99821" lon="6.29779">
        <ele>1509.8900146484</ele>
        <time>2013-09-15T07:54:10.000Z</time>
      </trkpt>
      <trkpt lat="45.9982" lon="6.29779">
        <ele>1509.4100341797</ele>
        <time>2013-09-15T07:54:11.000Z</time>
      </trkpt>
      <trkpt lat="45.99816" lon="6.29779">
        <ele>1508.9300537109</ele>
        <time>2013-09-15T07:54:17.000Z</time>
      </trkpt>
      <trkpt lat="45.99815" lon="6.29778">
        <ele>1509.4100341797</ele>
        <time>2013-09-15T07:54:18.000Z</time>
      </trkpt>
      <trkpt lat="45.99813" lon="6.29774">
        <ele>1510.8499755859</ele>
        <time>2013-09-15T07:54:20.000Z</time>
      </trkpt>
      <trkpt lat="45.99809" lon="6.29772">
        <ele>1512.2900390625</ele>
        <time>2013-09-15T07:54:23.000Z</time>
      </trkpt>
      <trkpt lat="45.99805" lon="6.29771">
        <ele>1513.7299804688</ele>
        <time>2013-09-15T07:54:28.000Z</time>
      </trkpt>
      <trkpt lat="45.998" lon="6.29774">
        <ele>1513.7299804688</ele>
        <time>2013-09-15T07:54:34.000Z</time>
      </trkpt>
      <trkpt lat="45.99797" lon="6.29774">
        <ele>1514.6899414062</ele>
        <time>2013-09-15T07:54:38.000Z</time>
      </trkpt>
      <trkpt lat="45.99793" lon="6.2977">
        <ele>1517.0999755859</ele>
        <time>2013-09-15T07:54:44.000Z</time>
      </trkpt>
      <trkpt lat="45.99789" lon="6.29767">
        <ele>1517.0999755859</ele>
        <time>2013-09-15T07:54:51.000Z</time>
      </trkpt>
      <trkpt lat="45.99784" lon="6.29765">
        <ele>1517.5799560547</ele>
        <time>2013-09-15T07:54:56.000Z</time>
      </trkpt>
      <trkpt lat="45.99781" lon="6.29764">
        <ele>1518.5400390625</ele>
        <time>2013-09-15T07:55:00.000Z</time>
      </trkpt>
      <trkpt lat="45.99776" lon="6.29755">
        <ele>1522.3900146484</ele>
        <time>2013-09-15T07:55:06.000Z</time>
      </trkpt>
      <trkpt lat="45.99774" lon="6.29756">
        <ele>1522.3900146484</ele>
        <time>2013-09-15T07:55:09.000Z</time>
      </trkpt>
      <trkpt lat="45.99773" lon="6.29758">
        <ele>1521.4200439453</ele>
        <time>2013-09-15T07:55:12.000Z</time>
      </trkpt>
      <trkpt lat="45.99769" lon="6.29756">
        <ele>1518.5400390625</ele>
        <time>2013-09-15T07:55:19.000Z</time>
      </trkpt>
      <trkpt lat="45.99763" lon="6.29755">
        <ele>1517.0999755859</ele>
        <time>2013-09-15T07:55:26.000Z</time>
      </trkpt>
      <trkpt lat="45.99757" lon="6.2975">
        <ele>1518.0600585938</ele>
        <time>2013-09-15T07:55:33.000Z</time>
      </trkpt>
      <trkpt lat="45.99752" lon="6.29743">
        <ele>1519.9799804688</ele>
        <time>2013-09-15T07:55:40.000Z</time>
      </trkpt>
      <trkpt lat="45.99747" lon="6.29739">
        <ele>1520.9399414062</ele>
        <time>2013-09-15T07:55:46.000Z</time>
      </trkpt>
      <trkpt lat="45.99741" lon="6.29735">
        <ele>1524.7900390625</ele>
        <time>2013-09-15T07:55:52.000Z</time>
      </trkpt>
      <trkpt lat="45.9974" lon="6.29734">
        <ele>1525.2700195312</ele>
        <time>2013-09-15T07:55:53.000Z</time>
      </trkpt>
      <trkpt lat="45.99737" lon="6.29734">
        <ele>1525.75</ele>
        <time>2013-09-15T07:55:57.000Z</time>
      </trkpt>
      <trkpt lat="45.99731" lon="6.29731">
        <ele>1527.6700439453</ele>
        <time>2013-09-15T07:56:05.000Z</time>
      </trkpt>
      <trkpt lat="45.99727" lon="6.29729">
        <ele>1531.0400390625</ele>
        <time>2013-09-15T07:56:12.000Z</time>
      </trkpt>
      <trkpt lat="45.99723" lon="6.29723">
        <ele>1532</ele>
        <time>2013-09-15T07:56:19.000Z</time>
      </trkpt>
      <trkpt lat="45.99718" lon="6.2972">
        <ele>1533.4399414062</ele>
        <time>2013-09-15T07:56:24.000Z</time>
      </trkpt>
      <trkpt lat="45.99713" lon="6.29718">
        <ele>1534.8800048828</ele>
        <time>2013-09-15T07:56:30.000Z</time>
      </trkpt>
      <trkpt lat="45.99709" lon="6.29718">
        <ele>1534.8800048828</ele>
        <time>2013-09-15T07:56:35.000Z</time>
      </trkpt>
      <trkpt lat="45.99705" lon="6.29719">
        <ele>1534.8800048828</ele>
        <time>2013-09-15T07:56:41.000Z</time>
      </trkpt>
      <trkpt lat="45.99705" lon="6.29721">
        <ele>1537.7700195312</ele>
        <time>2013-09-15T07:56:49.000Z</time>
      </trkpt>
      <trkpt lat="45.99707" lon="6.29723">
        <ele>1537.2900390625</ele>
        <time>2013-09-15T07:57:00.000Z</time>
      </trkpt>
      <trkpt lat="45.99704" lon="6.29727">
        <ele>1538.7299804688</ele>
        <time>2013-09-15T07:57:22.000Z</time>
      </trkpt>
      <trkpt lat="45.99699" lon="6.29731">
        <ele>1537.7700195312</ele>
        <time>2013-09-15T07:57:28.000Z</time>
      </trkpt>
      <trkpt lat="45.99697" lon="6.29736">
        <ele>1538.25</ele>
        <time>2013-09-15T07:57:33.000Z</time>
      </trkpt>
      <trkpt lat="45.99694" lon="6.29743">
        <ele>1539.2099609375</ele>
        <time>2013-09-15T07:57:40.000Z</time>
      </trkpt>
      <trkpt lat="45.99691" lon="6.29751">
        <ele>1539.6899414062</ele>
        <time>2013-09-15T07:57:46.000Z</time>
      </trkpt>
      <trkpt lat="45.99689" lon="6.2976">
        <ele>1540.6500244141</ele>
        <time>2013-09-15T07:57:53.000Z</time>
      </trkpt>
      <trkpt lat="45.99688" lon="6.29767">
        <ele>1543.5300292969</ele>
        <time>2013-09-15T07:57:59.000Z</time>
      </trkpt>
      <trkpt lat="45.99685" lon="6.29777">
        <ele>1548.8199462891</ele>
        <time>2013-09-15T07:58:07.000Z</time>
      </trkpt>
      <trkpt lat="45.99682" lon="6.29784">
        <ele>1551.2199707031</ele>
        <time>2013-09-15T07:58:14.000Z</time>
      </trkpt>
      <trkpt lat="45.99679" lon="6.29791">
        <ele>1553.1500244141</ele>
        <time>2013-09-15T07:58:20.000Z</time>
      </trkpt>
      <trkpt lat="45.99676" lon="6.29799">
        <ele>1555.5500488281</ele>
        <time>2013-09-15T07:58:27.000Z</time>
      </trkpt>
      <trkpt lat="45.99673" lon="6.29807">
        <ele>1553.6300048828</ele>
        <time>2013-09-15T07:58:34.000Z</time>
      </trkpt>
      <trkpt lat="45.9967" lon="6.29811">
        <ele>1552.1899414062</ele>
        <time>2013-09-15T07:58:39.000Z</time>
      </trkpt>
      <trkpt lat="45.99665" lon="6.29819">
        <ele>1556.0300292969</ele>
        <time>2013-09-15T07:58:46.000Z</time>
      </trkpt>
      <trkpt lat="45.99664" lon="6.29822">
        <ele>1558.4300537109</ele>
        <time>2013-09-15T07:58:49.000Z</time>
      </trkpt>
      <trkpt lat="45.99659" lon="6.2983">
        <ele>1559.4000244141</ele>
        <time>2013-09-15T07:58:57.000Z</time>
      </trkpt>
      <trkpt lat="45.99653" lon="6.29835">
        <ele>1562.2800292969</ele>
        <time>2013-09-15T07:59:04.000Z</time>
      </trkpt>
      <trkpt lat="45.99648" lon="6.29842">
        <ele>1564.6800537109</ele>
        <time>2013-09-15T07:59:12.000Z</time>
      </trkpt>
      <trkpt lat="45.99644" lon="6.29847">
        <ele>1564.1999511719</ele>
        <time>2013-09-15T07:59:19.000Z</time>
      </trkpt>
      <trkpt lat="45.9964" lon="6.29851">
        <ele>1568.5300292969</ele>
        <time>2013-09-15T07:59:26.000Z</time>
      </trkpt>
      <trkpt lat="45.99635" lon="6.29855">
        <ele>1571.8900146484</ele>
        <time>2013-09-15T07:59:34.000Z</time>
      </trkpt>
      <trkpt lat="45.9963" lon="6.29858">
        <ele>1573.8199462891</ele>
        <time>2013-09-15T07:59:39.000Z</time>
      </trkpt>
      <trkpt lat="45.99625" lon="6.29861">
        <ele>1575.2600097656</ele>
        <time>2013-09-15T07:59:45.000Z</time>
      </trkpt>
      <trkpt lat="45.99623" lon="6.29862">
        <ele>1577.6600341797</ele>
        <time>2013-09-15T07:59:51.000Z</time>
      </trkpt>
      <trkpt lat="45.99617" lon="6.29862">
        <ele>1580.5400390625</ele>
        <time>2013-09-15T07:59:57.000Z</time>
      </trkpt>
      <trkpt lat="45.99614" lon="6.29865">
        <ele>1580.5400390625</ele>
        <time>2013-09-15T08:00:00.000Z</time>
      </trkpt>
      <trkpt lat="45.99609" lon="6.29867">
        <ele>1581.5100097656</ele>
        <time>2013-09-15T08:00:06.000Z</time>
      </trkpt>
      <trkpt lat="45.99606" lon="6.29868">
        <ele>1582.4699707031</ele>
        <time>2013-09-15T08:00:12.000Z</time>
      </trkpt>
      <trkpt lat="45.99602" lon="6.29864">
        <ele>1583.4300537109</ele>
        <time>2013-09-15T08:00:17.000Z</time>
      </trkpt>
      <trkpt lat="45.996" lon="6.29861">
        <ele>1583.9100341797</ele>
        <time>2013-09-15T08:00:23.000Z</time>
      </trkpt>
      <trkpt lat="45.99597" lon="6.29856">
        <ele>1584.8699951172</ele>
        <time>2013-09-15T08:00:29.000Z</time>
      </trkpt>
      <trkpt lat="45.99591" lon="6.29853">
        <ele>1584.8699951172</ele>
        <time>2013-09-15T08:00:35.000Z</time>
      </trkpt>
      <trkpt lat="45.99586" lon="6.29855">
        <ele>1583.9100341797</ele>
        <time>2013-09-15T08:00:41.000Z</time>
      </trkpt>
      <trkpt lat="45.99579" lon="6.29856">
        <ele>1584.3900146484</ele>
        <time>2013-09-15T08:00:49.000Z</time>
      </trkpt>
      <trkpt lat="45.99578" lon="6.29857">
        <ele>1584.8699951172</ele>
        <time>2013-09-15T08:00:56.000Z</time>
      </trkpt>
      <trkpt lat="45.99577" lon="6.29864">
        <ele>1584.8699951172</ele>
        <time>2013-09-15T08:01:02.000Z</time>
      </trkpt>
      <trkpt lat="45.99574" lon="6.29881">
        <ele>1584.3900146484</ele>
        <time>2013-09-15T08:01:08.000Z</time>
      </trkpt>
      <trkpt lat="45.99572" lon="6.29893">
        <ele>1584.8699951172</ele>
        <time>2013-09-15T08:01:15.000Z</time>
      </trkpt>
      <trkpt lat="45.99571" lon="6.29903">
        <ele>1585.8299560547</ele>
        <time>2013-09-15T08:01:23.000Z</time>
      </trkpt>
      <trkpt lat="45.99569" lon="6.29909">
        <ele>1586.3100585938</ele>
        <time>2013-09-15T08:01:29.000Z</time>
      </trkpt>
      <trkpt lat="45.99566" lon="6.29917">
        <ele>1585.8299560547</ele>
        <time>2013-09-15T08:01:36.000Z</time>
      </trkpt>
      <trkpt lat="45.99564" lon="6.29919">
        <ele>1585.3499755859</ele>
        <time>2013-09-15T08:01:38.000Z</time>
      </trkpt>
      <trkpt lat="45.99553" lon="6.29926">
        <ele>1587.2700195312</ele>
        <time>2013-09-15T08:01:44.000Z</time>
      </trkpt>
      <trkpt lat="45.99543" lon="6.2993">
        <ele>1587.75</ele>
        <time>2013-09-15T08:01:49.000Z</time>
      </trkpt>
      <trkpt lat="45.99532" lon="6.29932">
        <ele>1588.7199707031</ele>
        <time>2013-09-15T08:01:55.000Z</time>
      </trkpt>
      <trkpt lat="45.99523" lon="6.29932">
        <ele>1590.1600341797</ele>
        <time>2013-09-15T08:02:00.000Z</time>
      </trkpt>
      <trkpt lat="45.99515" lon="6.2993">
        <ele>1591.1199951172</ele>
        <time>2013-09-15T08:02:04.000Z</time>
      </trkpt>
      <trkpt lat="45.99511" lon="6.29929">
        <ele>1591.5999755859</ele>
        <time>2013-09-15T08:02:06.000Z</time>
      </trkpt>
      <trkpt lat="45.99498" lon="6.29931">
        <ele>1591.5999755859</ele>
        <time>2013-09-15T08:02:13.000Z</time>
      </trkpt>
      <trkpt lat="45.99488" lon="6.29936">
        <ele>1586.7900390625</ele>
        <time>2013-09-15T08:02:19.000Z</time>
      </trkpt>
      <trkpt lat="45.99477" lon="6.29939">
        <ele>1581.0300292969</ele>
        <time>2013-09-15T08:02:25.000Z</time>
      </trkpt>
      <trkpt lat="45.99469" lon="6.29941">
        <ele>1581.0300292969</ele>
        <time>2013-09-15T08:02:29.000Z</time>
      </trkpt>
      <trkpt lat="45.99461" lon="6.29952">
        <ele>1581.5100097656</ele>
        <time>2013-09-15T08:02:34.000Z</time>
      </trkpt>
      <trkpt lat="45.9945" lon="6.29961">
        <ele>1583.4300537109</ele>
        <time>2013-09-15T08:02:40.000Z</time>
      </trkpt>
      <trkpt lat="45.99442" lon="6.29962">
        <ele>1582.4699707031</ele>
        <time>2013-09-15T08:02:45.000Z</time>
      </trkpt>
      <trkpt lat="45.99433" lon="6.29965">
        <ele>1582.9499511719</ele>
        <time>2013-09-15T08:02:52.000Z</time>
      </trkpt>
      <trkpt lat="45.99422" lon="6.29972">
        <ele>1585.3499755859</ele>
        <time>2013-09-15T08:03:01.000Z</time>
      </trkpt>
      <trkpt lat="45.99414" lon="6.29979">
        <ele>1584.3900146484</ele>
        <time>2013-09-15T08:03:09.000Z</time>
      </trkpt>
      <trkpt lat="45.99406" lon="6.29988">
        <ele>1588.2399902344</ele>
        <time>2013-09-15T08:03:15.000Z</time>
      </trkpt>
      <trkpt lat="45.99398" lon="6.29999">
        <ele>1592.0799560547</ele>
        <time>2013-09-15T08:03:21.000Z</time>
      </trkpt>
      <trkpt lat="45.99391" lon="6.30007">
        <ele>1596.8900146484</ele>
        <time>2013-09-15T08:03:26.000Z</time>
      </trkpt>
      <trkpt lat="45.9939" lon="6.30008">
        <ele>1597.8499755859</ele>
        <time>2013-09-15T08:03:27.000Z</time>
      </trkpt>
      <trkpt lat="45.99384" lon="6.30011">
        <ele>1601.2099609375</ele>
        <time>2013-09-15T08:03:33.000Z</time>
      </trkpt>
      <trkpt lat="45.9938" lon="6.30011">
        <ele>1601.6899414062</ele>
        <time>2013-09-15T08:03:36.000Z</time>
      </trkpt>
      <trkpt lat="45.99375" lon="6.30011">
        <ele>1602.6600341797</ele>
        <time>2013-09-15T08:03:42.000Z</time>
      </trkpt>
      <trkpt lat="45.99369" lon="6.30008">
        <ele>1603.1400146484</ele>
        <time>2013-09-15T08:03:48.000Z</time>
      </trkpt>
      <trkpt lat="45.99364" lon="6.30009">
        <ele>1605.5400390625</ele>
        <time>2013-09-15T08:03:53.000Z</time>
      </trkpt>
      <trkpt lat="45.99361" lon="6.3001">
        <ele>1607.4599609375</ele>
        <time>2013-09-15T08:03:56.000Z</time>
      </trkpt>
      <trkpt lat="45.9935" lon="6.30017">
        <ele>1608.4200439453</ele>
        <time>2013-09-15T08:04:04.000Z</time>
      </trkpt>
      <trkpt lat="45.99343" lon="6.30026">
        <ele>1613.2299804688</ele>
        <time>2013-09-15T08:04:12.000Z</time>
      </trkpt>
      <trkpt lat="45.99335" lon="6.30031">
        <ele>1617.0699462891</ele>
        <time>2013-09-15T08:04:18.000Z</time>
      </trkpt>
      <trkpt lat="45.99329" lon="6.30039">
        <ele>1615.1500244141</ele>
        <time>2013-09-15T08:04:25.000Z</time>
      </trkpt>
      <trkpt lat="45.99322" lon="6.30049">
        <ele>1612.2700195312</ele>
        <time>2013-09-15T08:04:33.000Z</time>
      </trkpt>
      <trkpt lat="45.99315" lon="6.30062">
        <ele>1614.1899414062</ele>
        <time>2013-09-15T08:04:41.000Z</time>
      </trkpt>
      <trkpt lat="45.99307" lon="6.3007">
        <ele>1617.5600585938</ele>
        <time>2013-09-15T08:04:48.000Z</time>
      </trkpt>
      <trkpt lat="45.99306" lon="6.30073">
        <ele>1618.0400390625</ele>
        <time>2013-09-15T08:04:50.000Z</time>
      </trkpt>
      <trkpt lat="45.99299" lon="6.30081">
        <ele>1620.9200439453</ele>
        <time>2013-09-15T08:04:57.000Z</time>
      </trkpt>
      <trkpt lat="45.99289" lon="6.30092">
        <ele>1621.4000244141</ele>
        <time>2013-09-15T08:05:04.000Z</time>
      </trkpt>
      <trkpt lat="45.9928" lon="6.301">
        <ele>1621.4000244141</ele>
        <time>2013-09-15T08:05:10.000Z</time>
      </trkpt>
      <trkpt lat="45.99273" lon="6.30111">
        <ele>1624.2800292969</ele>
        <time>2013-09-15T08:05:16.000Z</time>
      </trkpt>
      <trkpt lat="45.99265" lon="6.3012">
        <ele>1625.7299804688</ele>
        <time>2013-09-15T08:05:22.000Z</time>
      </trkpt>
      <trkpt lat="45.99258" lon="6.3013">
        <ele>1627.6500244141</ele>
        <time>2013-09-15T08:05:28.000Z</time>
      </trkpt>
      <trkpt lat="45.99252" lon="6.30138">
        <ele>1630.5300292969</ele>
        <time>2013-09-15T08:05:34.000Z</time>
      </trkpt>
      <trkpt lat="45.99247" lon="6.30141">
        <ele>1631.4899902344</ele>
        <time>2013-09-15T08:05:39.000Z</time>
      </trkpt>
      <trkpt lat="45.99239" lon="6.30147">
        <ele>1631.9799804688</ele>
        <time>2013-09-15T08:05:45.000Z</time>
      </trkpt>
      <trkpt lat="45.99226" lon="6.30158">
        <ele>1631.0100097656</ele>
        <time>2013-09-15T08:05:52.000Z</time>
      </trkpt>
      <trkpt lat="45.99216" lon="6.30168">
        <ele>1630.0500488281</ele>
        <time>2013-09-15T08:05:58.000Z</time>
      </trkpt>
      <trkpt lat="45.99207" lon="6.30177">
        <ele>1629.0899658203</ele>
        <time>2013-09-15T08:06:04.000Z</time>
      </trkpt>
      <trkpt lat="45.99198" lon="6.30191">
        <ele>1629.5699462891</ele>
        <time>2013-09-15T08:06:10.000Z</time>
      </trkpt>
      <trkpt lat="45.99187" lon="6.30205">
        <ele>1631.9799804688</ele>
        <time>2013-09-15T08:06:16.000Z</time>
      </trkpt>
      <trkpt lat="45.99175" lon="6.30216">
        <ele>1632.9399414062</ele>
        <time>2013-09-15T08:06:23.000Z</time>
      </trkpt>
      <trkpt lat="45.99164" lon="6.30221">
        <ele>1630.5300292969</ele>
        <time>2013-09-15T08:06:29.000Z</time>
      </trkpt>
      <trkpt lat="45.9916" lon="6.30222">
        <ele>1629.5699462891</ele>
        <time>2013-09-15T08:06:31.000Z</time>
      </trkpt>
      <trkpt lat="45.99152" lon="6.30228">
        <ele>1628.6099853516</ele>
        <time>2013-09-15T08:06:36.000Z</time>
      </trkpt>
      <trkpt lat="45.99147" lon="6.30236">
        <ele>1628.6099853516</ele>
        <time>2013-09-15T08:06:43.000Z</time>
      </trkpt>
      <trkpt lat="45.99142" lon="6.30241">
        <ele>1627.1700439453</ele>
        <time>2013-09-15T08:06:49.000Z</time>
      </trkpt>
      <trkpt lat="45.99136" lon="6.30249">
        <ele>1626.6899414062</ele>
        <time>2013-09-15T08:06:57.000Z</time>
      </trkpt>
      <trkpt lat="45.9913" lon="6.30256">
        <ele>1626.2099609375</ele>
        <time>2013-09-15T08:07:04.000Z</time>
      </trkpt>
      <trkpt lat="45.99126" lon="6.30265">
        <ele>1628.1300048828</ele>
        <time>2013-09-15T08:07:10.000Z</time>
      </trkpt>
      <trkpt lat="45.9912" lon="6.30278">
        <ele>1629.5699462891</ele>
        <time>2013-09-15T08:07:16.000Z</time>
      </trkpt>
      <trkpt lat="45.99115" lon="6.30287">
        <ele>1628.6099853516</ele>
        <time>2013-09-15T08:07:19.000Z</time>
      </trkpt>
      <trkpt lat="45.99108" lon="6.30299">
        <ele>1627.6500244141</ele>
        <time>2013-09-15T08:07:24.000Z</time>
      </trkpt>
      <trkpt lat="45.99104" lon="6.30312">
        <ele>1626.2099609375</ele>
        <time>2013-09-15T08:07:28.000Z</time>
      </trkpt>
      <trkpt lat="45.99096" lon="6.30328">
        <ele>1624.7700195312</ele>
        <time>2013-09-15T08:07:33.000Z</time>
      </trkpt>
      <trkpt lat="45.99089" lon="6.30345">
        <ele>1620.9200439453</ele>
        <time>2013-09-15T08:07:38.000Z</time>
      </trkpt>
      <trkpt lat="45.99082" lon="6.30358">
        <ele>1619</ele>
        <time>2013-09-15T08:07:42.000Z</time>
      </trkpt>
      <trkpt lat="45.99076" lon="6.30371">
        <ele>1618.0400390625</ele>
        <time>2013-09-15T08:07:46.000Z</time>
      </trkpt>
      <trkpt lat="45.99071" lon="6.3039">
        <ele>1616.1099853516</ele>
        <time>2013-09-15T08:07:51.000Z</time>
      </trkpt>
      <trkpt lat="45.99065" lon="6.30407">
        <ele>1614.1899414062</ele>
        <time>2013-09-15T08:07:56.000Z</time>
      </trkpt>
      <trkpt lat="45.9906" lon="6.3042">
        <ele>1611.7900390625</ele>
        <time>2013-09-15T08:08:00.000Z</time>
      </trkpt>
      <trkpt lat="45.99053" lon="6.30435">
        <ele>1609.8599853516</ele>
        <time>2013-09-15T08:08:04.000Z</time>
      </trkpt>
      <trkpt lat="45.99045" lon="6.30451">
        <ele>1607.4599609375</ele>
        <time>2013-09-15T08:08:09.000Z</time>
      </trkpt>
      <trkpt lat="45.99037" lon="6.3047">
        <ele>1604.0999755859</ele>
        <time>2013-09-15T08:08:14.000Z</time>
      </trkpt>
      <trkpt lat="45.99027" lon="6.30485">
        <ele>1600.7299804688</ele>
        <time>2013-09-15T08:08:19.000Z</time>
      </trkpt>
      <trkpt lat="45.99019" lon="6.30498">
        <ele>1595.9300537109</ele>
        <time>2013-09-15T08:08:23.000Z</time>
      </trkpt>
      <trkpt lat="45.99016" lon="6.30516">
        <ele>1593.0400390625</ele>
        <time>2013-09-15T08:08:27.000Z</time>
      </trkpt>
      <trkpt lat="45.99015" lon="6.30538">
        <ele>1590.1600341797</ele>
        <time>2013-09-15T08:08:32.000Z</time>
      </trkpt>
      <trkpt lat="45.99009" lon="6.30559">
        <ele>1587.2700195312</ele>
        <time>2013-09-15T08:08:37.000Z</time>
      </trkpt>
      <trkpt lat="45.99001" lon="6.30577">
        <ele>1583.9100341797</ele>
        <time>2013-09-15T08:08:42.000Z</time>
      </trkpt>
      <trkpt lat="45.98991" lon="6.30587">
        <ele>1582.4699707031</ele>
        <time>2013-09-15T08:08:46.000Z</time>
      </trkpt>
      <trkpt lat="45.98977" lon="6.30595">
        <ele>1581.0300292969</ele>
        <time>2013-09-15T08:08:51.000Z</time>
      </trkpt>
      <trkpt lat="45.98959" lon="6.30603">
        <ele>1579.5799560547</ele>
        <time>2013-09-15T08:08:57.000Z</time>
      </trkpt>
      <trkpt lat="45.98946" lon="6.30602">
        <ele>1576.6999511719</ele>
        <time>2013-09-15T08:09:02.000Z</time>
      </trkpt>
      <trkpt lat="45.98942" lon="6.30599">
        <ele>1575.7399902344</ele>
        <time>2013-09-15T08:09:09.000Z</time>
      </trkpt>
      <trkpt lat="45.98943" lon="6.306">
        <ele>1575.2600097656</ele>
        <time>2013-09-15T08:09:24.000Z</time>
      </trkpt>
      <trkpt lat="45.98943" lon="6.30599">
        <ele>1575.2600097656</ele>
        <time>2013-09-15T08:09:29.000Z</time>
      </trkpt>
      <trkpt lat="45.98944" lon="6.30599">
        <ele>1574.7800292969</ele>
        <time>2013-09-15T08:09:41.000Z</time>
      </trkpt>
      <trkpt lat="45.98944" lon="6.30599">
        <ele>1574.7800292969</ele>
        <time>2013-09-15T08:09:56.000Z</time>
      </trkpt>
      <trkpt lat="45.98945" lon="6.306">
        <ele>1574.7800292969</ele>
        <time>2013-09-15T08:10:02.000Z</time>
      </trkpt>
      <trkpt lat="45.98946" lon="6.30599">
        <ele>1575.2600097656</ele>
        <time>2013-09-15T08:10:13.000Z</time>
      </trkpt>
      <trkpt lat="45.98943" lon="6.30577">
        <ele>1574.7800292969</ele>
        <time>2013-09-15T08:10:18.000Z</time>
      </trkpt>
      <trkpt lat="45.98943" lon="6.30573">
        <ele>1574.7800292969</ele>
        <time>2013-09-15T08:10:19.000Z</time>
      </trkpt>
      <trkpt lat="45.98946" lon="6.30553">
        <ele>1574.7800292969</ele>
        <time>2013-09-15T08:10:24.000Z</time>
      </trkpt>
      <trkpt lat="45.98946" lon="6.30543">
        <ele>1575.2600097656</ele>
        <time>2013-09-15T08:10:27.000Z</time>
      </trkpt>
      <trkpt lat="45.98948" lon="6.30522">
        <ele>1576.6999511719</ele>
        <time>2013-09-15T08:10:32.000Z</time>
      </trkpt>
      <trkpt lat="45.98951" lon="6.30509">
        <ele>1577.6600341797</ele>
        <time>2013-09-15T08:10:36.000Z</time>
      </trkpt>
      <trkpt lat="45.98952" lon="6.30485">
        <ele>1579.0999755859</ele>
        <time>2013-09-15T08:10:42.000Z</time>
      </trkpt>
      <trkpt lat="45.98955" lon="6.30473">
        <ele>1578.6199951172</ele>
        <time>2013-09-15T08:10:45.000Z</time>
      </trkpt>
      <trkpt lat="45.98961" lon="6.30456">
        <ele>1576.6999511719</ele>
        <time>2013-09-15T08:10:50.000Z</time>
      </trkpt>
      <trkpt lat="45.9896" lon="6.30439">
        <ele>1574.7800292969</ele>
        <time>2013-09-15T08:10:54.000Z</time>
      </trkpt>
      <trkpt lat="45.98965" lon="6.30418">
        <ele>1573.3299560547</ele>
        <time>2013-09-15T08:11:00.000Z</time>
      </trkpt>
      <trkpt lat="45.98966" lon="6.30414">
        <ele>1573.3299560547</ele>
        <time>2013-09-15T08:11:01.000Z</time>
      </trkpt>
      <trkpt lat="45.98969" lon="6.30392">
        <ele>1570.4499511719</ele>
        <time>2013-09-15T08:11:06.000Z</time>
      </trkpt>
      <trkpt lat="45.98969" lon="6.3038">
        <ele>1569.0100097656</ele>
        <time>2013-09-15T08:11:09.000Z</time>
      </trkpt>
      <trkpt lat="45.98973" lon="6.30364">
        <ele>1566.1199951172</ele>
        <time>2013-09-15T08:11:14.000Z</time>
      </trkpt>
      <trkpt lat="45.98974" lon="6.30362">
        <ele>1565.6400146484</ele>
        <time>2013-09-15T08:11:15.000Z</time>
      </trkpt>
      <trkpt lat="45.98983" lon="6.30352">
        <ele>1562.7600097656</ele>
        <time>2013-09-15T08:11:20.000Z</time>
      </trkpt>
      <trkpt lat="45.98987" lon="6.30346">
        <ele>1561.3199462891</ele>
        <time>2013-09-15T08:11:22.000Z</time>
      </trkpt>
      <trkpt lat="45.98989" lon="6.30333">
        <ele>1560.8399658203</ele>
        <time>2013-09-15T08:11:26.000Z</time>
      </trkpt>
      <trkpt lat="45.98991" lon="6.30328">
        <ele>1560.3599853516</ele>
        <time>2013-09-15T08:11:28.000Z</time>
      </trkpt>
      <trkpt lat="45.98999" lon="6.30311">
        <ele>1559.4000244141</ele>
        <time>2013-09-15T08:11:34.000Z</time>
      </trkpt>
      <trkpt lat="45.99002" lon="6.30303">
        <ele>1557.9499511719</ele>
        <time>2013-09-15T08:11:37.000Z</time>
      </trkpt>
      <trkpt lat="45.99004" lon="6.30296">
        <ele>1556.9899902344</ele>
        <time>2013-09-15T08:11:39.000Z</time>
      </trkpt>
      <trkpt lat="45.99007" lon="6.30282">
        <ele>1556.5100097656</ele>
        <time>2013-09-15T08:11:44.000Z</time>
      </trkpt>
      <trkpt lat="45.99011" lon="6.30268">
        <ele>1555.5500488281</ele>
        <time>2013-09-15T08:11:48.000Z</time>
      </trkpt>
      <trkpt lat="45.99013" lon="6.30256">
        <ele>1555.0699462891</ele>
        <time>2013-09-15T08:11:52.000Z</time>
      </trkpt>
      <trkpt lat="45.99014" lon="6.30247">
        <ele>1554.5899658203</ele>
        <time>2013-09-15T08:11:55.000Z</time>
      </trkpt>
      <trkpt lat="45.99014" lon="6.30243">
        <ele>1554.5899658203</ele>
        <time>2013-09-15T08:11:56.000Z</time>
      </trkpt>
      <trkpt lat="45.99017" lon="6.30229">
        <ele>1554.1099853516</ele>
        <time>2013-09-15T08:12:01.000Z</time>
      </trkpt>
      <trkpt lat="45.9902" lon="6.30219">
        <ele>1553.6300048828</ele>
        <time>2013-09-15T08:12:04.000Z</time>
      </trkpt>
      <trkpt lat="45.99023" lon="6.30206">
        <ele>1553.1500244141</ele>
        <time>2013-09-15T08:12:08.000Z</time>
      </trkpt>
      <trkpt lat="45.99027" lon="6.30189">
        <ele>1551.7099609375</ele>
        <time>2013-09-15T08:12:13.000Z</time>
      </trkpt>
      <trkpt lat="45.99035" lon="6.30174">
        <ele>1551.7099609375</ele>
        <time>2013-09-15T08:12:18.000Z</time>
      </trkpt>
      <trkpt lat="45.9904" lon="6.30159">
        <ele>1552.1899414062</ele>
        <time>2013-09-15T08:12:22.000Z</time>
      </trkpt>
      <trkpt lat="45.99045" lon="6.30148">
        <ele>1552.1899414062</ele>
        <time>2013-09-15T08:12:26.000Z</time>
      </trkpt>
      <trkpt lat="45.99046" lon="6.30146">
        <ele>1552.1899414062</ele>
        <time>2013-09-15T08:12:29.000Z</time>
      </trkpt>
      <trkpt lat="45.99051" lon="6.30141">
        <ele>1549.7800292969</ele>
        <time>2013-09-15T08:12:35.000Z</time>
      </trkpt>
      <trkpt lat="45.99053" lon="6.3013">
        <ele>1548.8199462891</ele>
        <time>2013-09-15T08:12:41.000Z</time>
      </trkpt>
      <trkpt lat="45.99057" lon="6.3012">
        <ele>1546.4200439453</ele>
        <time>2013-09-15T08:12:47.000Z</time>
      </trkpt>
      <trkpt lat="45.99058" lon="6.30118">
        <ele>1545.4599609375</ele>
        <time>2013-09-15T08:12:48.000Z</time>
      </trkpt>
      <trkpt lat="45.99064" lon="6.30109">
        <ele>1542.5699462891</ele>
        <time>2013-09-15T08:12:53.000Z</time>
      </trkpt>
      <trkpt lat="45.99069" lon="6.30105">
        <ele>1538.7299804688</ele>
        <time>2013-09-15T08:12:56.000Z</time>
      </trkpt>
      <trkpt lat="45.99079" lon="6.30091">
        <ele>1530.5600585938</ele>
        <time>2013-09-15T08:13:02.000Z</time>
      </trkpt>
      <trkpt lat="45.99084" lon="6.30082">
        <ele>1532</ele>
        <time>2013-09-15T08:13:06.000Z</time>
      </trkpt>
      <trkpt lat="45.99088" lon="6.30078">
        <ele>1530.0799560547</ele>
        <time>2013-09-15T08:13:09.000Z</time>
      </trkpt>
      <trkpt lat="45.99092" lon="6.30068">
        <ele>1524.7900390625</ele>
        <time>2013-09-15T08:13:14.000Z</time>
      </trkpt>
      <trkpt lat="45.99093" lon="6.30067">
        <ele>1521.9000244141</ele>
        <time>2013-09-15T08:13:15.000Z</time>
      </trkpt>
      <trkpt lat="45.99102" lon="6.30062">
        <ele>1514.6899414062</ele>
        <time>2013-09-15T08:13:21.000Z</time>
      </trkpt>
      <trkpt lat="45.9911" lon="6.30058">
        <ele>1509.8900146484</ele>
        <time>2013-09-15T08:13:26.000Z</time>
      </trkpt>
      <trkpt lat="45.99115" lon="6.30048">
        <ele>1509.8900146484</ele>
        <time>2013-09-15T08:13:31.000Z</time>
      </trkpt>
      <trkpt lat="45.99117" lon="6.30047">
        <ele>1508.4499511719</ele>
        <time>2013-09-15T08:13:32.000Z</time>
      </trkpt>
      <trkpt lat="45.99125" lon="6.30042">
        <ele>1497.8699951172</ele>
        <time>2013-09-15T08:13:37.000Z</time>
      </trkpt>
      <trkpt lat="45.99129" lon="6.30041">
        <ele>1494.0300292969</ele>
        <time>2013-09-15T08:13:39.000Z</time>
      </trkpt>
      <trkpt lat="45.99136" lon="6.30026">
        <ele>1487.7800292969</ele>
        <time>2013-09-15T08:13:45.000Z</time>
      </trkpt>
      <trkpt lat="45.99138" lon="6.30024">
        <ele>1484.8900146484</ele>
        <time>2013-09-15T08:13:47.000Z</time>
      </trkpt>
      <trkpt lat="45.9915" lon="6.30005">
        <ele>1486.8199462891</ele>
        <time>2013-09-15T08:13:53.000Z</time>
      </trkpt>
      <trkpt lat="45.99154" lon="6.29999">
        <ele>1487.7800292969</ele>
        <time>2013-09-15T08:13:55.000Z</time>
      </trkpt>
      <trkpt lat="45.99157" lon="6.29996">
        <ele>1488.7399902344</ele>
        <time>2013-09-15T08:13:57.000Z</time>
      </trkpt>
      <trkpt lat="45.99165" lon="6.29985">
        <ele>1492.5799560547</ele>
        <time>2013-09-15T08:14:03.000Z</time>
      </trkpt>
      <trkpt lat="45.99164" lon="6.29976">
        <ele>1493.0600585938</ele>
        <time>2013-09-15T08:14:08.000Z</time>
      </trkpt>
      <trkpt lat="45.99166" lon="6.29966">
        <ele>1491.6199951172</ele>
        <time>2013-09-15T08:14:12.000Z</time>
      </trkpt>
      <trkpt lat="45.99175" lon="6.29948">
        <ele>1496.9100341797</ele>
        <time>2013-09-15T08:14:18.000Z</time>
      </trkpt>
      <trkpt lat="45.99179" lon="6.29944">
        <ele>1496.4300537109</ele>
        <time>2013-09-15T08:14:22.000Z</time>
      </trkpt>
      <trkpt lat="45.99183" lon="6.29936">
        <ele>1496.9100341797</ele>
        <time>2013-09-15T08:14:27.000Z</time>
      </trkpt>
      <trkpt lat="45.99184" lon="6.29932">
        <ele>1496.4300537109</ele>
        <time>2013-09-15T08:14:29.000Z</time>
      </trkpt>
      <trkpt lat="45.99186" lon="6.29923">
        <ele>1496.4300537109</ele>
        <time>2013-09-15T08:14:35.000Z</time>
      </trkpt>
      <trkpt lat="45.99187" lon="6.29907">
        <ele>1501.2399902344</ele>
        <time>2013-09-15T08:14:39.000Z</time>
      </trkpt>
      <trkpt lat="45.99189" lon="6.29891">
        <ele>1502.6800537109</ele>
        <time>2013-09-15T08:14:43.000Z</time>
      </trkpt>
      <trkpt lat="45.9919" lon="6.29877">
        <ele>1502.1999511719</ele>
        <time>2013-09-15T08:14:48.000Z</time>
      </trkpt>
      <trkpt lat="45.99189" lon="6.29868">
        <ele>1501.2399902344</ele>
        <time>2013-09-15T08:14:51.000Z</time>
      </trkpt>
      <trkpt lat="45.9919" lon="6.2986">
        <ele>1500.2700195312</ele>
        <time>2013-09-15T08:14:54.000Z</time>
      </trkpt>
      <trkpt lat="45.9919" lon="6.29855">
        <ele>1495.9499511719</ele>
        <time>2013-09-15T08:14:57.000Z</time>
      </trkpt>
      <trkpt lat="45.99192" lon="6.29851">
        <ele>1491.1400146484</ele>
        <time>2013-09-15T08:15:00.000Z</time>
      </trkpt>
      <trkpt lat="45.99202" lon="6.2984">
        <ele>1479.1300048828</ele>
        <time>2013-09-15T08:15:08.000Z</time>
      </trkpt>
      <trkpt lat="45.99207" lon="6.29837">
        <ele>1477.1999511719</ele>
        <time>2013-09-15T08:15:12.000Z</time>
      </trkpt>
      <trkpt lat="45.99209" lon="6.29833">
        <ele>1477.1999511719</ele>
        <time>2013-09-15T08:15:14.000Z</time>
      </trkpt>
      <trkpt lat="45.9922" lon="6.2982">
        <ele>1475.7600097656</ele>
        <time>2013-09-15T08:15:20.000Z</time>
      </trkpt>
      <trkpt lat="45.99224" lon="6.2982">
        <ele>1475.7600097656</ele>
        <time>2013-09-15T08:15:22.000Z</time>
      </trkpt>
      <trkpt lat="45.99234" lon="6.29819">
        <ele>1471.9200439453</ele>
        <time>2013-09-15T08:15:28.000Z</time>
      </trkpt>
      <trkpt lat="45.99237" lon="6.29821">
        <ele>1469.5100097656</ele>
        <time>2013-09-15T08:15:30.000Z</time>
      </trkpt>
      <trkpt lat="45.99243" lon="6.29822">
        <ele>1463.2600097656</ele>
        <time>2013-09-15T08:15:37.000Z</time>
      </trkpt>
      <trkpt lat="45.99244" lon="6.29843">
        <ele>1443.5600585938</ele>
        <time>2013-09-15T08:15:57.000Z</time>
      </trkpt>
      <trkpt lat="45.99245" lon="6.29826">
        <ele>1458.4599609375</ele>
        <time>2013-09-15T08:16:12.000Z</time>
      </trkpt>
      <trkpt lat="45.99247" lon="6.29822">
        <ele>1458.9399414062</ele>
        <time>2013-09-15T08:16:15.000Z</time>
      </trkpt>
      <trkpt lat="45.99261" lon="6.29824">
        <ele>1456.0500488281</ele>
        <time>2013-09-15T08:16:21.000Z</time>
      </trkpt>
      <trkpt lat="45.99265" lon="6.29822">
        <ele>1454.1300048828</ele>
        <time>2013-09-15T08:16:25.000Z</time>
      </trkpt>
      <trkpt lat="45.99268" lon="6.29819">
        <ele>1453.1700439453</ele>
        <time>2013-09-15T08:16:28.000Z</time>
      </trkpt>
      <trkpt lat="45.99278" lon="6.29818">
        <ele>1451.25</ele>
        <time>2013-09-15T08:16:34.000Z</time>
      </trkpt>
      <trkpt lat="45.99286" lon="6.29818">
        <ele>1451.25</ele>
        <time>2013-09-15T08:16:37.000Z</time>
      </trkpt>
      <trkpt lat="45.99289" lon="6.29818">
        <ele>1449.3199462891</ele>
        <time>2013-09-15T08:16:39.000Z</time>
      </trkpt>
      <trkpt lat="45.993" lon="6.29821">
        <ele>1449.8100585938</ele>
        <time>2013-09-15T08:16:45.000Z</time>
      </trkpt>
      <trkpt lat="45.99308" lon="6.29812">
        <ele>1449.8100585938</ele>
        <time>2013-09-15T08:16:49.000Z</time>
      </trkpt>
      <trkpt lat="45.99318" lon="6.29806">
        <ele>1447.4000244141</ele>
        <time>2013-09-15T08:16:54.000Z</time>
      </trkpt>
      <trkpt lat="45.99326" lon="6.29801">
        <ele>1446.9200439453</ele>
        <time>2013-09-15T08:16:58.000Z</time>
      </trkpt>
      <trkpt lat="45.99335" lon="6.29796">
        <ele>1446.9200439453</ele>
        <time>2013-09-15T08:17:02.000Z</time>
      </trkpt>
      <trkpt lat="45.99343" lon="6.29789">
        <ele>1446.9200439453</ele>
        <time>2013-09-15T08:17:07.000Z</time>
      </trkpt>
      <trkpt lat="45.99354" lon="6.29785">
        <ele>1446.9200439453</ele>
        <time>2013-09-15T08:17:12.000Z</time>
      </trkpt>
      <trkpt lat="45.99363" lon="6.29772">
        <ele>1451.7299804688</ele>
        <time>2013-09-15T08:17:16.000Z</time>
      </trkpt>
      <trkpt lat="45.99373" lon="6.29761">
        <ele>1453.1700439453</ele>
        <time>2013-09-15T08:17:21.000Z</time>
      </trkpt>
      <trkpt lat="45.99384" lon="6.29758">
        <ele>1449.8100585938</ele>
        <time>2013-09-15T08:17:26.000Z</time>
      </trkpt>
      <trkpt lat="45.99394" lon="6.29752">
        <ele>1443.5600585938</ele>
        <time>2013-09-15T08:17:31.000Z</time>
      </trkpt>
      <trkpt lat="45.99401" lon="6.29743">
        <ele>1440.6700439453</ele>
        <time>2013-09-15T08:17:36.000Z</time>
      </trkpt>
      <trkpt lat="45.99411" lon="6.29738">
        <ele>1439.7099609375</ele>
        <time>2013-09-15T08:17:41.000Z</time>
      </trkpt>
      <trkpt lat="45.99419" lon="6.29732">
        <ele>1437.7900390625</ele>
        <time>2013-09-15T08:17:45.000Z</time>
      </trkpt>
      <trkpt lat="45.99425" lon="6.29728">
        <ele>1434.9100341797</ele>
        <time>2013-09-15T08:17:48.000Z</time>
      </trkpt>
      <trkpt lat="45.99427" lon="6.29727">
        <ele>1432.5</ele>
        <time>2013-09-15T08:17:50.000Z</time>
      </trkpt>
      <trkpt lat="45.99434" lon="6.29717">
        <ele>1430.5799560547</ele>
        <time>2013-09-15T08:17:55.000Z</time>
      </trkpt>
      <trkpt lat="45.99441" lon="6.29707">
        <ele>1430.5799560547</ele>
        <time>2013-09-15T08:17:59.000Z</time>
      </trkpt>
      <trkpt lat="45.99448" lon="6.29695">
        <ele>1432.5</ele>
        <time>2013-09-15T08:18:04.000Z</time>
      </trkpt>
      <trkpt lat="45.99454" lon="6.29688">
        <ele>1436.8299560547</ele>
        <time>2013-09-15T08:18:08.000Z</time>
      </trkpt>
      <trkpt lat="45.99461" lon="6.29668">
        <ele>1440.6700439453</ele>
        <time>2013-09-15T08:18:14.000Z</time>
      </trkpt>
      <trkpt lat="45.99467" lon="6.29657">
        <ele>1441.6300048828</ele>
        <time>2013-09-15T08:18:18.000Z</time>
      </trkpt>
      <trkpt lat="45.99474" lon="6.29652">
        <ele>1442.1099853516</ele>
        <time>2013-09-15T08:18:22.000Z</time>
      </trkpt>
      <trkpt lat="45.99481" lon="6.29641">
        <ele>1439.2299804688</ele>
        <time>2013-09-15T08:18:28.000Z</time>
      </trkpt>
      <trkpt lat="45.99486" lon="6.29631">
        <ele>1437.7900390625</ele>
        <time>2013-09-15T08:18:32.000Z</time>
      </trkpt>
      <trkpt lat="45.99488" lon="6.29622">
        <ele>1436.8299560547</ele>
        <time>2013-09-15T08:18:36.000Z</time>
      </trkpt>
      <trkpt lat="45.99494" lon="6.29612">
        <ele>1432.0200195312</ele>
        <time>2013-09-15T08:18:40.000Z</time>
      </trkpt>
      <trkpt lat="45.99498" lon="6.29608">
        <ele>1430.5799560547</ele>
        <time>2013-09-15T08:18:42.000Z</time>
      </trkpt>
      <trkpt lat="45.99512" lon="6.29599">
        <ele>1429.1400146484</ele>
        <time>2013-09-15T08:18:48.000Z</time>
      </trkpt>
      <trkpt lat="45.99517" lon="6.29596">
        <ele>1427.6999511719</ele>
        <time>2013-09-15T08:18:52.000Z</time>
      </trkpt>
      <trkpt lat="45.99526" lon="6.296">
        <ele>1425.7700195312</ele>
        <time>2013-09-15T08:18:56.000Z</time>
      </trkpt>
      <trkpt lat="45.99541" lon="6.29599">
        <ele>1420</ele>
        <time>2013-09-15T08:19:01.000Z</time>
      </trkpt>
      <trkpt lat="45.99555" lon="6.29604">
        <ele>1420</ele>
        <time>2013-09-15T08:19:05.000Z</time>
      </trkpt>
      <trkpt lat="45.99561" lon="6.29598">
        <ele>1422.4100341797</ele>
        <time>2013-09-15T08:19:09.000Z</time>
      </trkpt>
      <trkpt lat="45.99564" lon="6.29593">
        <ele>1423.3699951172</ele>
        <time>2013-09-15T08:19:11.000Z</time>
      </trkpt>
      <trkpt lat="45.99569" lon="6.29596">
        <ele>1421.9300537109</ele>
        <time>2013-09-15T08:19:17.000Z</time>
      </trkpt>
      <trkpt lat="45.99569" lon="6.29596">
        <ele>1422.8900146484</ele>
        <time>2013-09-15T08:19:18.000Z</time>
      </trkpt>
      <trkpt lat="45.99571" lon="6.29592">
        <ele>1425.2900390625</ele>
        <time>2013-09-15T08:19:20.000Z</time>
      </trkpt>
      <trkpt lat="45.99575" lon="6.2958">
        <ele>1422.8900146484</ele>
        <time>2013-09-15T08:19:25.000Z</time>
      </trkpt>
      <trkpt lat="45.9958" lon="6.29566">
        <ele>1422.4100341797</ele>
        <time>2013-09-15T08:19:30.000Z</time>
      </trkpt>
      <trkpt lat="45.99587" lon="6.29548">
        <ele>1424.8100585938</ele>
        <time>2013-09-15T08:19:35.000Z</time>
      </trkpt>
      <trkpt lat="45.99588" lon="6.29535">
        <ele>1424.8100585938</ele>
        <time>2013-09-15T08:19:38.000Z</time>
      </trkpt>
      <trkpt lat="45.99597" lon="6.29517">
        <ele>1422.8900146484</ele>
        <time>2013-09-15T08:19:44.000Z</time>
      </trkpt>
      <trkpt lat="45.99603" lon="6.29514">
        <ele>1421.4499511719</ele>
        <time>2013-09-15T08:19:48.000Z</time>
      </trkpt>
      <trkpt lat="45.99608" lon="6.2951">
        <ele>1418.5600585938</ele>
        <time>2013-09-15T08:19:52.000Z</time>
      </trkpt>
      <trkpt lat="45.99619" lon="6.29496">
        <ele>1419.5200195312</ele>
        <time>2013-09-15T08:19:58.000Z</time>
      </trkpt>
      <trkpt lat="45.99625" lon="6.29496">
        <ele>1417.1199951172</ele>
        <time>2013-09-15T08:20:03.000Z</time>
      </trkpt>
      <trkpt lat="45.99627" lon="6.29486">
        <ele>1414.7199707031</ele>
        <time>2013-09-15T08:20:08.000Z</time>
      </trkpt>
      <trkpt lat="45.9963" lon="6.29483">
        <ele>1403.1800537109</ele>
        <time>2013-09-15T08:20:13.000Z</time>
      </trkpt>
      <trkpt lat="45.99636" lon="6.29463">
        <ele>1396.9300537109</ele>
        <time>2013-09-15T08:20:19.000Z</time>
      </trkpt>
      <trkpt lat="45.99633" lon="6.29438">
        <ele>1398.8599853516</ele>
        <time>2013-09-15T08:20:25.000Z</time>
      </trkpt>
      <trkpt lat="45.99632" lon="6.29432">
        <ele>1398.8599853516</ele>
        <time>2013-09-15T08:20:27.000Z</time>
      </trkpt>
      <trkpt lat="45.99629" lon="6.29421">
        <ele>1404.1400146484</ele>
        <time>2013-09-15T08:20:33.000Z</time>
      </trkpt>
      <trkpt lat="45.99628" lon="6.29403">
        <ele>1394.0500488281</ele>
        <time>2013-09-15T08:20:39.000Z</time>
      </trkpt>
      <trkpt lat="45.99627" lon="6.29397">
        <ele>1391.1700439453</ele>
        <time>2013-09-15T08:20:41.000Z</time>
      </trkpt>
      <trkpt lat="45.99627" lon="6.29381">
        <ele>1382.9899902344</ele>
        <time>2013-09-15T08:20:46.000Z</time>
      </trkpt>
      <trkpt lat="45.9963" lon="6.29358">
        <ele>1382.5100097656</ele>
        <time>2013-09-15T08:20:52.000Z</time>
      </trkpt>
      <trkpt lat="45.99627" lon="6.29339">
        <ele>1390.1999511719</ele>
        <time>2013-09-15T08:20:58.000Z</time>
      </trkpt>
      <trkpt lat="45.99623" lon="6.29324">
        <ele>1399.8199462891</ele>
        <time>2013-09-15T08:21:11.000Z</time>
      </trkpt>
      <trkpt lat="45.99622" lon="6.29309">
        <ele>1394.5300292969</ele>
        <time>2013-09-15T08:21:17.000Z</time>
      </trkpt>
      <trkpt lat="45.99623" lon="6.29295">
        <ele>1388.7600097656</ele>
        <time>2013-09-15T08:21:22.000Z</time>
      </trkpt>
      <trkpt lat="45.9963" lon="6.29288">
        <ele>1380.5899658203</ele>
        <time>2013-09-15T08:21:28.000Z</time>
      </trkpt>
      <trkpt lat="45.99634" lon="6.29281">
        <ele>1378.6700439453</ele>
        <time>2013-09-15T08:21:31.000Z</time>
      </trkpt>
      <trkpt lat="45.99642" lon="6.29263">
        <ele>1375.7800292969</ele>
        <time>2013-09-15T08:21:36.000Z</time>
      </trkpt>
      <trkpt lat="45.99644" lon="6.29258">
        <ele>1374.8199462891</ele>
        <time>2013-09-15T08:21:38.000Z</time>
      </trkpt>
      <trkpt lat="45.99651" lon="6.29231">
        <ele>1381.0699462891</ele>
        <time>2013-09-15T08:21:45.000Z</time>
      </trkpt>
      <trkpt lat="45.99651" lon="6.29225">
        <ele>1381.5500488281</ele>
        <time>2013-09-15T08:21:47.000Z</time>
      </trkpt>
      <trkpt lat="45.99652" lon="6.29207">
        <ele>1373.3800048828</ele>
        <time>2013-09-15T08:21:53.000Z</time>
      </trkpt>
      <trkpt lat="45.99652" lon="6.29202">
        <ele>1372.9000244141</ele>
        <time>2013-09-15T08:21:55.000Z</time>
      </trkpt>
      <trkpt lat="45.99649" lon="6.29192">
        <ele>1370.9799804688</ele>
        <time>2013-09-15T08:21:59.000Z</time>
      </trkpt>
      <trkpt lat="45.99649" lon="6.29179">
        <ele>1367.1300048828</ele>
        <time>2013-09-15T08:22:02.000Z</time>
      </trkpt>
      <trkpt lat="45.99645" lon="6.29159">
        <ele>1360.8800048828</ele>
        <time>2013-09-15T08:22:07.000Z</time>
      </trkpt>
      <trkpt lat="45.99643" lon="6.29148">
        <ele>1356.5600585938</ele>
        <time>2013-09-15T08:22:12.000Z</time>
      </trkpt>
      <trkpt lat="45.99643" lon="6.29129">
        <ele>1350.7900390625</ele>
        <time>2013-09-15T08:22:17.000Z</time>
      </trkpt>
      <trkpt lat="45.99642" lon="6.29111">
        <ele>1350.3100585938</ele>
        <time>2013-09-15T08:22:22.000Z</time>
      </trkpt>
      <trkpt lat="45.99636" lon="6.29084">
        <ele>1351.75</ele>
        <time>2013-09-15T08:22:28.000Z</time>
      </trkpt>
      <trkpt lat="45.99631" lon="6.2907">
        <ele>1355.5999755859</ele>
        <time>2013-09-15T08:22:31.000Z</time>
      </trkpt>
      <trkpt lat="45.99626" lon="6.29043">
        <ele>1354.1500244141</ele>
        <time>2013-09-15T08:22:37.000Z</time>
      </trkpt>
      <trkpt lat="45.99619" lon="6.29029">
        <ele>1352.2299804688</ele>
        <time>2013-09-15T08:22:41.000Z</time>
      </trkpt>
      <trkpt lat="45.99614" lon="6.29009">
        <ele>1347.4300537109</ele>
        <time>2013-09-15T08:22:46.000Z</time>
      </trkpt>
      <trkpt lat="45.99609" lon="6.2899">
        <ele>1352.2299804688</ele>
        <time>2013-09-15T08:22:51.000Z</time>
      </trkpt>
      <trkpt lat="45.99604" lon="6.28972">
        <ele>1351.75</ele>
        <time>2013-09-15T08:22:56.000Z</time>
      </trkpt>
      <trkpt lat="45.99599" lon="6.28957">
        <ele>1358.4799804688</ele>
        <time>2013-09-15T08:23:01.000Z</time>
      </trkpt>
      <trkpt lat="45.99588" lon="6.28939">
        <ele>1353.6700439453</ele>
        <time>2013-09-15T08:23:06.000Z</time>
      </trkpt>
      <trkpt lat="45.99582" lon="6.28931">
        <ele>1351.2700195312</ele>
        <time>2013-09-15T08:23:09.000Z</time>
      </trkpt>
      <trkpt lat="45.99578" lon="6.28908">
        <ele>1344.5400390625</ele>
        <time>2013-09-15T08:23:15.000Z</time>
      </trkpt>
      <trkpt lat="45.99574" lon="6.28894">
        <ele>1338.2900390625</ele>
        <time>2013-09-15T08:23:21.000Z</time>
      </trkpt>
      <trkpt lat="45.99579" lon="6.28884">
        <ele>1335.8900146484</ele>
        <time>2013-09-15T08:23:26.000Z</time>
      </trkpt>
      <trkpt lat="45.99585" lon="6.28877">
        <ele>1338.7700195312</ele>
        <time>2013-09-15T08:23:30.000Z</time>
      </trkpt>
      <trkpt lat="45.99594" lon="6.28863">
        <ele>1332.0400390625</ele>
        <time>2013-09-15T08:23:35.000Z</time>
      </trkpt>
      <trkpt lat="45.99599" lon="6.28855">
        <ele>1327.2399902344</ele>
        <time>2013-09-15T08:23:39.000Z</time>
      </trkpt>
      <trkpt lat="45.99605" lon="6.28847">
        <ele>1328.6800537109</ele>
        <time>2013-09-15T08:23:43.000Z</time>
      </trkpt>
      <trkpt lat="45.99607" lon="6.2883">
        <ele>1331.5600585938</ele>
        <time>2013-09-15T08:23:48.000Z</time>
      </trkpt>
      <trkpt lat="45.99605" lon="6.28817">
        <ele>1340.6999511719</ele>
        <time>2013-09-15T08:23:52.000Z</time>
      </trkpt>
      <trkpt lat="45.99607" lon="6.288">
        <ele>1346.4599609375</ele>
        <time>2013-09-15T08:23:55.000Z</time>
      </trkpt>
      <trkpt lat="45.99609" lon="6.28791">
        <ele>1345.5</ele>
        <time>2013-09-15T08:23:57.000Z</time>
      </trkpt>
      <trkpt lat="45.99616" lon="6.28773">
        <ele>1345.5</ele>
        <time>2013-09-15T08:24:02.000Z</time>
      </trkpt>
      <trkpt lat="45.99616" lon="6.28769">
        <ele>1343.0999755859</ele>
        <time>2013-09-15T08:24:04.000Z</time>
      </trkpt>
      <trkpt lat="45.99617" lon="6.28762">
        <ele>1340.2199707031</ele>
        <time>2013-09-15T08:24:07.000Z</time>
      </trkpt>
      <trkpt lat="45.99623" lon="6.2875">
        <ele>1336.8499755859</ele>
        <time>2013-09-15T08:24:12.000Z</time>
      </trkpt>
      <trkpt lat="45.99628" lon="6.28741">
        <ele>1337.8100585938</ele>
        <time>2013-09-15T08:24:15.000Z</time>
      </trkpt>
      <trkpt lat="45.99634" lon="6.28718">
        <ele>1332.5200195312</ele>
        <time>2013-09-15T08:24:21.000Z</time>
      </trkpt>
      <trkpt lat="45.99636" lon="6.28702">
        <ele>1331.0799560547</ele>
        <time>2013-09-15T08:24:25.000Z</time>
      </trkpt>
      <trkpt lat="45.99635" lon="6.28695">
        <ele>1334.4499511719</ele>
        <time>2013-09-15T08:24:29.000Z</time>
      </trkpt>
      <trkpt lat="45.99634" lon="6.2868">
        <ele>1338.7700195312</ele>
        <time>2013-09-15T08:24:33.000Z</time>
      </trkpt>
      <trkpt lat="45.99629" lon="6.28655">
        <ele>1334.9300537109</ele>
        <time>2013-09-15T08:24:39.000Z</time>
      </trkpt>
      <trkpt lat="45.99624" lon="6.28646">
        <ele>1338.7700195312</ele>
        <time>2013-09-15T08:24:43.000Z</time>
      </trkpt>
      <trkpt lat="45.99623" lon="6.28633">
        <ele>1336.3699951172</ele>
        <time>2013-09-15T08:24:47.000Z</time>
      </trkpt>
      <trkpt lat="45.99616" lon="6.28614">
        <ele>1331.0799560547</ele>
        <time>2013-09-15T08:24:53.000Z</time>
      </trkpt>
      <trkpt lat="45.99608" lon="6.28602">
        <ele>1331.0799560547</ele>
        <time>2013-09-15T08:24:57.000Z</time>
      </trkpt>
      <trkpt lat="45.99606" lon="6.28593">
        <ele>1326.2800292969</ele>
        <time>2013-09-15T08:25:01.000Z</time>
      </trkpt>
      <trkpt lat="45.99604" lon="6.28579">
        <ele>1323.8699951172</ele>
        <time>2013-09-15T08:25:06.000Z</time>
      </trkpt>
      <trkpt lat="45.99599" lon="6.2857">
        <ele>1320.0300292969</ele>
        <time>2013-09-15T08:25:11.000Z</time>
      </trkpt>
      <trkpt lat="45.99596" lon="6.28556">
        <ele>1313.7800292969</ele>
        <time>2013-09-15T08:25:20.000Z</time>
      </trkpt>
      <trkpt lat="45.99595" lon="6.28554">
        <ele>1312.3399658203</ele>
        <time>2013-09-15T08:25:21.000Z</time>
      </trkpt>
      <trkpt lat="45.99591" lon="6.28536">
        <ele>1306.0899658203</ele>
        <time>2013-09-15T08:25:26.000Z</time>
      </trkpt>
      <trkpt lat="45.99586" lon="6.28529">
        <ele>1308.9699707031</ele>
        <time>2013-09-15T08:25:29.000Z</time>
      </trkpt>
      <trkpt lat="45.99581" lon="6.28509">
        <ele>1307.5300292969</ele>
        <time>2013-09-15T08:25:35.000Z</time>
      </trkpt>
      <trkpt lat="45.99575" lon="6.28492">
        <ele>1314.7399902344</ele>
        <time>2013-09-15T08:25:40.000Z</time>
      </trkpt>
      <trkpt lat="45.99574" lon="6.28484">
        <ele>1317.1400146484</ele>
        <time>2013-09-15T08:25:43.000Z</time>
      </trkpt>
      <trkpt lat="45.99569" lon="6.28476">
        <ele>1320.5100097656</ele>
        <time>2013-09-15T08:25:47.000Z</time>
      </trkpt>
      <trkpt lat="45.99564" lon="6.28462">
        <ele>1319.5500488281</ele>
        <time>2013-09-15T08:25:51.000Z</time>
      </trkpt>
      <trkpt lat="45.99562" lon="6.28451">
        <ele>1316.6600341797</ele>
        <time>2013-09-15T08:25:54.000Z</time>
      </trkpt>
      <trkpt lat="45.99558" lon="6.28445">
        <ele>1315.6999511719</ele>
        <time>2013-09-15T08:25:56.000Z</time>
      </trkpt>
      <trkpt lat="45.99555" lon="6.28433">
        <ele>1310.9000244141</ele>
        <time>2013-09-15T08:26:00.000Z</time>
      </trkpt>
      <trkpt lat="45.99554" lon="6.28414">
        <ele>1307.0500488281</ele>
        <time>2013-09-15T08:26:06.000Z</time>
      </trkpt>
      <trkpt lat="45.99549" lon="6.28404">
        <ele>1309.9300537109</ele>
        <time>2013-09-15T08:26:09.000Z</time>
      </trkpt>
      <trkpt lat="45.99544" lon="6.2839">
        <ele>1304.6500244141</ele>
        <time>2013-09-15T08:26:14.000Z</time>
      </trkpt>
      <trkpt lat="45.99545" lon="6.28374">
        <ele>1304.6500244141</ele>
        <time>2013-09-15T08:26:19.000Z</time>
      </trkpt>
      <trkpt lat="45.99544" lon="6.28366">
        <ele>1305.6099853516</ele>
        <time>2013-09-15T08:26:22.000Z</time>
      </trkpt>
      <trkpt lat="45.99539" lon="6.28361">
        <ele>1311.3800048828</ele>
        <time>2013-09-15T08:26:26.000Z</time>
      </trkpt>
      <trkpt lat="45.99532" lon="6.28349">
        <ele>1315.2199707031</ele>
        <time>2013-09-15T08:26:31.000Z</time>
      </trkpt>
      <trkpt lat="45.99528" lon="6.28343">
        <ele>1316.6600341797</ele>
        <time>2013-09-15T08:26:35.000Z</time>
      </trkpt>
      <trkpt lat="45.99524" lon="6.28344">
        <ele>1321.4699707031</ele>
        <time>2013-09-15T08:26:42.000Z</time>
      </trkpt>
      <trkpt lat="45.99525" lon="6.28328">
        <ele>1310.9000244141</ele>
        <time>2013-09-15T08:27:16.000Z</time>
      </trkpt>
      <trkpt lat="45.99524" lon="6.28325">
        <ele>1310.9000244141</ele>
        <time>2013-09-15T08:27:17.000Z</time>
      </trkpt>
      <trkpt lat="45.99516" lon="6.28313">
        <ele>1312.3399658203</ele>
        <time>2013-09-15T08:27:22.000Z</time>
      </trkpt>
      <trkpt lat="45.99506" lon="6.28303">
        <ele>1314.2600097656</ele>
        <time>2013-09-15T08:27:26.000Z</time>
      </trkpt>
      <trkpt lat="45.99503" lon="6.2829">
        <ele>1312.3399658203</ele>
        <time>2013-09-15T08:27:30.000Z</time>
      </trkpt>
      <trkpt lat="45.995" lon="6.28285">
        <ele>1313.3000488281</ele>
        <time>2013-09-15T08:27:32.000Z</time>
      </trkpt>
      <trkpt lat="45.99492" lon="6.28277">
        <ele>1315.2199707031</ele>
        <time>2013-09-15T08:27:37.000Z</time>
      </trkpt>
      <trkpt lat="45.99487" lon="6.28265">
        <ele>1312.3399658203</ele>
        <time>2013-09-15T08:27:41.000Z</time>
      </trkpt>
      <trkpt lat="45.99481" lon="6.2825">
        <ele>1310.9000244141</ele>
        <time>2013-09-15T08:27:46.000Z</time>
      </trkpt>
      <trkpt lat="45.99475" lon="6.28239">
        <ele>1310.4100341797</ele>
        <time>2013-09-15T08:27:51.000Z</time>
      </trkpt>
      <trkpt lat="45.99474" lon="6.28235">
        <ele>1309.9300537109</ele>
        <time>2013-09-15T08:27:53.000Z</time>
      </trkpt>
      <trkpt lat="45.99472" lon="6.28221">
        <ele>1309.4499511719</ele>
        <time>2013-09-15T08:27:59.000Z</time>
      </trkpt>
      <trkpt lat="45.99471" lon="6.28211">
        <ele>1310.4100341797</ele>
        <time>2013-09-15T08:28:04.000Z</time>
      </trkpt>
      <trkpt lat="45.9947" lon="6.28205">
        <ele>1311.8599853516</ele>
        <time>2013-09-15T08:28:08.000Z</time>
      </trkpt>
      <trkpt lat="45.9947" lon="6.28199">
        <ele>1310.9000244141</ele>
        <time>2013-09-15T08:28:12.000Z</time>
      </trkpt>
      <trkpt lat="45.99469" lon="6.28185">
        <ele>1313.3000488281</ele>
        <time>2013-09-15T08:28:24.000Z</time>
      </trkpt>
      <trkpt lat="45.99467" lon="6.28177">
        <ele>1312.8199462891</ele>
        <time>2013-09-15T08:28:32.000Z</time>
      </trkpt>
      <trkpt lat="45.99465" lon="6.28166">
        <ele>1313.7800292969</ele>
        <time>2013-09-15T08:28:39.000Z</time>
      </trkpt>
      <trkpt lat="45.99465" lon="6.28165">
        <ele>1313.7800292969</ele>
        <time>2013-09-15T08:28:40.000Z</time>
      </trkpt>
      <trkpt lat="45.99463" lon="6.2816">
        <ele>1312.8199462891</ele>
        <time>2013-09-15T08:28:43.000Z</time>
      </trkpt>
      <trkpt lat="45.9946" lon="6.28146">
        <ele>1312.3399658203</ele>
        <time>2013-09-15T08:28:48.000Z</time>
      </trkpt>
      <trkpt lat="45.9946" lon="6.28131">
        <ele>1310.9000244141</ele>
        <time>2013-09-15T08:28:53.000Z</time>
      </trkpt>
      <trkpt lat="45.99458" lon="6.28124">
        <ele>1312.3399658203</ele>
        <time>2013-09-15T08:28:56.000Z</time>
      </trkpt>
      <trkpt lat="45.99459" lon="6.28116">
        <ele>1314.7399902344</ele>
        <time>2013-09-15T08:29:02.000Z</time>
      </trkpt>
      <trkpt lat="45.99459" lon="6.2811">
        <ele>1314.2600097656</ele>
        <time>2013-09-15T08:29:05.000Z</time>
      </trkpt>
      <trkpt lat="45.99459" lon="6.28103">
        <ele>1316.1800537109</ele>
        <time>2013-09-15T08:29:10.000Z</time>
      </trkpt>
      <trkpt lat="45.99456" lon="6.28086">
        <ele>1317.1400146484</ele>
        <time>2013-09-15T08:29:16.000Z</time>
      </trkpt>
      <trkpt lat="45.99457" lon="6.28071">
        <ele>1316.6600341797</ele>
        <time>2013-09-15T08:29:21.000Z</time>
      </trkpt>
      <trkpt lat="45.99454" lon="6.28064">
        <ele>1317.1400146484</ele>
        <time>2013-09-15T08:29:24.000Z</time>
      </trkpt>
      <trkpt lat="45.99455" lon="6.28052">
        <ele>1316.6600341797</ele>
        <time>2013-09-15T08:29:29.000Z</time>
      </trkpt>
      <trkpt lat="45.99453" lon="6.28043">
        <ele>1315.2199707031</ele>
        <time>2013-09-15T08:29:34.000Z</time>
      </trkpt>
      <trkpt lat="45.99451" lon="6.28038">
        <ele>1315.2199707031</ele>
        <time>2013-09-15T08:29:39.000Z</time>
      </trkpt>
      <trkpt lat="45.99453" lon="6.28033">
        <ele>1314.7399902344</ele>
        <time>2013-09-15T08:29:42.000Z</time>
      </trkpt>
      <trkpt lat="45.99452" lon="6.28029">
        <ele>1314.7399902344</ele>
        <time>2013-09-15T08:29:47.000Z</time>
      </trkpt>
      <trkpt lat="45.9945" lon="6.28026">
        <ele>1314.2600097656</ele>
        <time>2013-09-15T08:29:51.000Z</time>
      </trkpt>
      <trkpt lat="45.9945" lon="6.28024">
        <ele>1313.7800292969</ele>
        <time>2013-09-15T08:29:52.000Z</time>
      </trkpt>
      <trkpt lat="45.99448" lon="6.28008">
        <ele>1312.3399658203</ele>
        <time>2013-09-15T08:29:56.000Z</time>
      </trkpt>
      <trkpt lat="45.99444" lon="6.27993">
        <ele>1310.9000244141</ele>
        <time>2013-09-15T08:30:00.000Z</time>
      </trkpt>
      <trkpt lat="45.9944" lon="6.2798">
        <ele>1310.4100341797</ele>
        <time>2013-09-15T08:30:04.000Z</time>
      </trkpt>
      <trkpt lat="45.99436" lon="6.27965">
        <ele>1308.0100097656</ele>
        <time>2013-09-15T08:30:09.000Z</time>
      </trkpt>
      <trkpt lat="45.99435" lon="6.2796">
        <ele>1307.5300292969</ele>
        <time>2013-09-15T08:30:11.000Z</time>
      </trkpt>
      <trkpt lat="45.99434" lon="6.27947">
        <ele>1304.1700439453</ele>
        <time>2013-09-15T08:30:17.000Z</time>
      </trkpt>
      <trkpt lat="45.99434" lon="6.27944">
        <ele>1304.1700439453</ele>
        <time>2013-09-15T08:30:18.000Z</time>
      </trkpt>
      <trkpt lat="45.99438" lon="6.27933">
        <ele>1302.2399902344</ele>
        <time>2013-09-15T08:30:22.000Z</time>
      </trkpt>
      <trkpt lat="45.99437" lon="6.2792">
        <ele>1300.8000488281</ele>
        <time>2013-09-15T08:30:26.000Z</time>
      </trkpt>
      <trkpt lat="45.99437" lon="6.27903">
        <ele>1299.8399658203</ele>
        <time>2013-09-15T08:30:32.000Z</time>
      </trkpt>
      <trkpt lat="45.99436" lon="6.27892">
        <ele>1299.3599853516</ele>
        <time>2013-09-15T08:30:36.000Z</time>
      </trkpt>
      <trkpt lat="45.99438" lon="6.2788">
        <ele>1298.4000244141</ele>
        <time>2013-09-15T08:30:40.000Z</time>
      </trkpt>
      <trkpt lat="45.99438" lon="6.27868">
        <ele>1297.4399414062</ele>
        <time>2013-09-15T08:30:45.000Z</time>
      </trkpt>
      <trkpt lat="45.99437" lon="6.2785">
        <ele>1294.5500488281</ele>
        <time>2013-09-15T08:30:51.000Z</time>
      </trkpt>
      <trkpt lat="45.99437" lon="6.27843">
        <ele>1293.1099853516</ele>
        <time>2013-09-15T08:30:53.000Z</time>
      </trkpt>
      <trkpt lat="45.9944" lon="6.27831">
        <ele>1291.6700439453</ele>
        <time>2013-09-15T08:30:57.000Z</time>
      </trkpt>
      <trkpt lat="45.99437" lon="6.2782">
        <ele>1289.75</ele>
        <time>2013-09-15T08:31:01.000Z</time>
      </trkpt>
      <trkpt lat="45.99435" lon="6.27806">
        <ele>1286.8599853516</ele>
        <time>2013-09-15T08:31:05.000Z</time>
      </trkpt>
      <trkpt lat="45.99437" lon="6.27794">
        <ele>1285.9000244141</ele>
        <time>2013-09-15T08:31:08.000Z</time>
      </trkpt>
      <trkpt lat="45.99438" lon="6.27778">
        <ele>1284.4599609375</ele>
        <time>2013-09-15T08:31:13.000Z</time>
      </trkpt>
      <trkpt lat="45.99438" lon="6.27772">
        <ele>1284.4599609375</ele>
        <time>2013-09-15T08:31:15.000Z</time>
      </trkpt>
      <trkpt lat="45.99445" lon="6.27759">
        <ele>1282.0600585938</ele>
        <time>2013-09-15T08:31:20.000Z</time>
      </trkpt>
      <trkpt lat="45.99446" lon="6.27752">
        <ele>1281.0899658203</ele>
        <time>2013-09-15T08:31:22.000Z</time>
      </trkpt>
      <trkpt lat="45.99451" lon="6.27738">
        <ele>1278.2099609375</ele>
        <time>2013-09-15T08:31:27.000Z</time>
      </trkpt>
      <trkpt lat="45.99453" lon="6.27731">
        <ele>1278.6899414062</ele>
        <time>2013-09-15T08:31:29.000Z</time>
      </trkpt>
      <trkpt lat="45.99454" lon="6.27723">
        <ele>1277.7299804688</ele>
        <time>2013-09-15T08:31:31.000Z</time>
      </trkpt>
      <trkpt lat="45.99451" lon="6.27702">
        <ele>1277.25</ele>
        <time>2013-09-15T08:31:37.000Z</time>
      </trkpt>
      <trkpt lat="45.99448" lon="6.27684">
        <ele>1277.7299804688</ele>
        <time>2013-09-15T08:31:42.000Z</time>
      </trkpt>
      <trkpt lat="45.99448" lon="6.27681">
        <ele>1276.7700195312</ele>
        <time>2013-09-15T08:31:43.000Z</time>
      </trkpt>
      <trkpt lat="45.99452" lon="6.27668">
        <ele>1275.8100585938</ele>
        <time>2013-09-15T08:31:48.000Z</time>
      </trkpt>
      <trkpt lat="45.99463" lon="6.27661">
        <ele>1273.4000244141</ele>
        <time>2013-09-15T08:31:54.000Z</time>
      </trkpt>
      <trkpt lat="45.9947" lon="6.27655">
        <ele>1271.9599609375</ele>
        <time>2013-09-15T08:31:59.000Z</time>
      </trkpt>
      <trkpt lat="45.99483" lon="6.27649">
        <ele>1266.6700439453</ele>
        <time>2013-09-15T08:32:05.000Z</time>
      </trkpt>
      <trkpt lat="45.99485" lon="6.27648">
        <ele>1265.7099609375</ele>
        <time>2013-09-15T08:32:06.000Z</time>
      </trkpt>
      <trkpt lat="45.99491" lon="6.27649">
        <ele>1266.1899414062</ele>
        <time>2013-09-15T08:32:12.000Z</time>
      </trkpt>
      <trkpt lat="45.99494" lon="6.27647">
        <ele>1265.7099609375</ele>
        <time>2013-09-15T08:32:15.000Z</time>
      </trkpt>
      <trkpt lat="45.99488" lon="6.27638">
        <ele>1263.3100585938</ele>
        <time>2013-09-15T08:32:20.000Z</time>
      </trkpt>
      <trkpt lat="45.99481" lon="6.27632">
        <ele>1261.3900146484</ele>
        <time>2013-09-15T08:32:25.000Z</time>
      </trkpt>
      <trkpt lat="45.99474" lon="6.27625">
        <ele>1259.4599609375</ele>
        <time>2013-09-15T08:32:30.000Z</time>
      </trkpt>
      <trkpt lat="45.99465" lon="6.27625">
        <ele>1257.5400390625</ele>
        <time>2013-09-15T08:32:35.000Z</time>
      </trkpt>
      <trkpt lat="45.99463" lon="6.27625">
        <ele>1257.0600585938</ele>
        <time>2013-09-15T08:32:36.000Z</time>
      </trkpt>
      <trkpt lat="45.9945" lon="6.27611">
        <ele>1256.5799560547</ele>
        <time>2013-09-15T08:32:42.000Z</time>
      </trkpt>
      <trkpt lat="45.9944" lon="6.27602">
        <ele>1258.0200195312</ele>
        <time>2013-09-15T08:32:46.000Z</time>
      </trkpt>
      <trkpt lat="45.99435" lon="6.27599">
        <ele>1259.4599609375</ele>
        <time>2013-09-15T08:32:48.000Z</time>
      </trkpt>
      <trkpt lat="45.99429" lon="6.27587">
        <ele>1258.5</ele>
        <time>2013-09-15T08:32:54.000Z</time>
      </trkpt>
      <trkpt lat="45.99427" lon="6.27582">
        <ele>1256.0999755859</ele>
        <time>2013-09-15T08:32:57.000Z</time>
      </trkpt>
      <trkpt lat="45.99424" lon="6.27571">
        <ele>1255.1400146484</ele>
        <time>2013-09-15T08:33:02.000Z</time>
      </trkpt>
      <trkpt lat="45.99426" lon="6.27566">
        <ele>1251.7700195312</ele>
        <time>2013-09-15T08:33:05.000Z</time>
      </trkpt>
      <trkpt lat="45.99427" lon="6.27555">
        <ele>1248.4100341797</ele>
        <time>2013-09-15T08:33:10.000Z</time>
      </trkpt>
      <trkpt lat="45.99422" lon="6.27546">
        <ele>1246.9699707031</ele>
        <time>2013-09-15T08:33:14.000Z</time>
      </trkpt>
      <trkpt lat="45.99419" lon="6.27539">
        <ele>1245.5300292969</ele>
        <time>2013-09-15T08:33:17.000Z</time>
      </trkpt>
      <trkpt lat="45.99411" lon="6.27518">
        <ele>1242.6400146484</ele>
        <time>2013-09-15T08:33:24.000Z</time>
      </trkpt>
      <trkpt lat="45.99411" lon="6.27503">
        <ele>1240.2399902344</ele>
        <time>2013-09-15T08:33:29.000Z</time>
      </trkpt>
      <trkpt lat="45.99414" lon="6.27498">
        <ele>1238.3199462891</ele>
        <time>2013-09-15T08:33:32.000Z</time>
      </trkpt>
      <trkpt lat="45.99413" lon="6.27488">
        <ele>1237.3499755859</ele>
        <time>2013-09-15T08:33:37.000Z</time>
      </trkpt>
      <trkpt lat="45.99408" lon="6.27486">
        <ele>1234.4699707031</ele>
        <time>2013-09-15T08:33:40.000Z</time>
      </trkpt>
      <trkpt lat="45.99406" lon="6.27483">
        <ele>1232.5500488281</ele>
        <time>2013-09-15T08:33:42.000Z</time>
      </trkpt>
      <trkpt lat="45.99403" lon="6.2747">
        <ele>1226.7800292969</ele>
        <time>2013-09-15T08:33:48.000Z</time>
      </trkpt>
      <trkpt lat="45.99401" lon="6.27468">
        <ele>1227.2600097656</ele>
        <time>2013-09-15T08:33:49.000Z</time>
      </trkpt>
      <trkpt lat="45.99399" lon="6.27465">
        <ele>1227.7399902344</ele>
        <time>2013-09-15T08:33:51.000Z</time>
      </trkpt>
      <trkpt lat="45.99398" lon="6.27458">
        <ele>1225.8199462891</ele>
        <time>2013-09-15T08:33:55.000Z</time>
      </trkpt>
      <trkpt lat="45.99399" lon="6.27455">
        <ele>1222.4499511719</ele>
        <time>2013-09-15T08:33:58.000Z</time>
      </trkpt>
      <trkpt lat="45.99397" lon="6.2745">
        <ele>1221.0100097656</ele>
        <time>2013-09-15T08:34:02.000Z</time>
      </trkpt>
      <trkpt lat="45.99395" lon="6.27438">
        <ele>1214.7600097656</ele>
        <time>2013-09-15T08:34:08.000Z</time>
      </trkpt>
      <trkpt lat="45.99389" lon="6.27422">
        <ele>1210.9200439453</ele>
        <time>2013-09-15T08:34:14.000Z</time>
      </trkpt>
      <trkpt lat="45.99383" lon="6.2741">
        <ele>1207.0699462891</ele>
        <time>2013-09-15T08:34:18.000Z</time>
      </trkpt>
      <trkpt lat="45.99382" lon="6.27403">
        <ele>1204.1899414062</ele>
        <time>2013-09-15T08:34:21.000Z</time>
      </trkpt>
      <trkpt lat="45.99381" lon="6.27396">
        <ele>1199.8599853516</ele>
        <time>2013-09-15T08:34:28.000Z</time>
      </trkpt>
      <trkpt lat="45.99381" lon="6.27391">
        <ele>1196.9799804688</ele>
        <time>2013-09-15T08:34:33.000Z</time>
      </trkpt>
      <trkpt lat="45.99379" lon="6.27386">
        <ele>1201.7900390625</ele>
        <time>2013-09-15T08:34:39.000Z</time>
      </trkpt>
      <trkpt lat="45.99383" lon="6.27377">
        <ele>1205.1500244141</ele>
        <time>2013-09-15T08:35:02.000Z</time>
      </trkpt>
      <trkpt lat="45.99382" lon="6.27371">
        <ele>1204.1899414062</ele>
        <time>2013-09-15T08:35:08.000Z</time>
      </trkpt>
      <trkpt lat="45.99379" lon="6.27369">
        <ele>1206.1099853516</ele>
        <time>2013-09-15T08:35:11.000Z</time>
      </trkpt>
      <trkpt lat="45.99368" lon="6.27368">
        <ele>1210.4399414062</ele>
        <time>2013-09-15T08:35:17.000Z</time>
      </trkpt>
      <trkpt lat="45.99356" lon="6.27374">
        <ele>1208.5100097656</ele>
        <time>2013-09-15T08:35:22.000Z</time>
      </trkpt>
      <trkpt lat="45.9935" lon="6.27377">
        <ele>1209.9599609375</ele>
        <time>2013-09-15T08:35:25.000Z</time>
      </trkpt>
      <trkpt lat="45.99339" lon="6.27391">
        <ele>1209</ele>
        <time>2013-09-15T08:35:31.000Z</time>
      </trkpt>
      <trkpt lat="45.99333" lon="6.27402">
        <ele>1209</ele>
        <time>2013-09-15T08:35:36.000Z</time>
      </trkpt>
      <trkpt lat="45.9933" lon="6.27407">
        <ele>1208.0300292969</ele>
        <time>2013-09-15T08:35:38.000Z</time>
      </trkpt>
      <trkpt lat="45.99318" lon="6.27411">
        <ele>1206.1099853516</ele>
        <time>2013-09-15T08:35:44.000Z</time>
      </trkpt>
      <trkpt lat="45.99312" lon="6.27418">
        <ele>1202.2700195312</ele>
        <time>2013-09-15T08:35:48.000Z</time>
      </trkpt>
      <trkpt lat="45.99311" lon="6.27423">
        <ele>1201.3000488281</ele>
        <time>2013-09-15T08:35:50.000Z</time>
      </trkpt>
      <trkpt lat="45.99308" lon="6.27428">
        <ele>1199.8599853516</ele>
        <time>2013-09-15T08:35:53.000Z</time>
      </trkpt>
      <trkpt lat="45.99306" lon="6.27435">
        <ele>1197.4599609375</ele>
        <time>2013-09-15T08:35:57.000Z</time>
      </trkpt>
      <trkpt lat="45.99306" lon="6.27446">
        <ele>1196.0200195312</ele>
        <time>2013-09-15T08:36:01.000Z</time>
      </trkpt>
      <trkpt lat="45.99306" lon="6.27451">
        <ele>1193.6099853516</ele>
        <time>2013-09-15T08:36:04.000Z</time>
      </trkpt>
      <trkpt lat="45.99305" lon="6.27443">
        <ele>1191.6899414062</ele>
        <time>2013-09-15T08:36:08.000Z</time>
      </trkpt>
      <trkpt lat="45.99302" lon="6.27436">
        <ele>1188.8100585938</ele>
        <time>2013-09-15T08:36:13.000Z</time>
      </trkpt>
      <trkpt lat="45.993" lon="6.27433">
        <ele>1186.8800048828</ele>
        <time>2013-09-15T08:36:16.000Z</time>
      </trkpt>
      <trkpt lat="45.99297" lon="6.27432">
        <ele>1185.4399414062</ele>
        <time>2013-09-15T08:36:19.000Z</time>
      </trkpt>
      <trkpt lat="45.99295" lon="6.27439">
        <ele>1184</ele>
        <time>2013-09-15T08:36:23.000Z</time>
      </trkpt>
      <trkpt lat="45.99297" lon="6.27446">
        <ele>1182.0799560547</ele>
        <time>2013-09-15T08:36:28.000Z</time>
      </trkpt>
      <trkpt lat="45.99299" lon="6.27457">
        <ele>1179.6700439453</ele>
        <time>2013-09-15T08:36:33.000Z</time>
      </trkpt>
      <trkpt lat="45.993" lon="6.2746">
        <ele>1179.1899414062</ele>
        <time>2013-09-15T08:36:34.000Z</time>
      </trkpt>
      <trkpt lat="45.99302" lon="6.27466">
        <ele>1178.7099609375</ele>
        <time>2013-09-15T08:36:36.000Z</time>
      </trkpt>
      <trkpt lat="45.99304" lon="6.27476">
        <ele>1179.1899414062</ele>
        <time>2013-09-15T08:36:40.000Z</time>
      </trkpt>
      <trkpt lat="45.99304" lon="6.27487">
        <ele>1178.7099609375</ele>
        <time>2013-09-15T08:36:44.000Z</time>
      </trkpt>
      <trkpt lat="45.99305" lon="6.2749">
        <ele>1178.2299804688</ele>
        <time>2013-09-15T08:36:45.000Z</time>
      </trkpt>
      <trkpt lat="45.99306" lon="6.27495">
        <ele>1177.2700195312</ele>
        <time>2013-09-15T08:36:47.000Z</time>
      </trkpt>
      <trkpt lat="45.99308" lon="6.27508">
        <ele>1176.3100585938</ele>
        <time>2013-09-15T08:36:54.000Z</time>
      </trkpt>
      <trkpt lat="45.99308" lon="6.27512">
        <ele>1176.3100585938</ele>
        <time>2013-09-15T08:36:55.000Z</time>
      </trkpt>
      <trkpt lat="45.99307" lon="6.27522">
        <ele>1177.75</ele>
        <time>2013-09-15T08:36:59.000Z</time>
      </trkpt>
      <trkpt lat="45.99306" lon="6.27527">
        <ele>1175.8299560547</ele>
        <time>2013-09-15T08:37:02.000Z</time>
      </trkpt>
      <trkpt lat="45.99305" lon="6.27541">
        <ele>1174.3900146484</ele>
        <time>2013-09-15T08:37:08.000Z</time>
      </trkpt>
      <trkpt lat="45.99305" lon="6.27553">
        <ele>1170.5400390625</ele>
        <time>2013-09-15T08:37:13.000Z</time>
      </trkpt>
      <trkpt lat="45.99305" lon="6.27557">
        <ele>1169.0999755859</ele>
        <time>2013-09-15T08:37:15.000Z</time>
      </trkpt>
      <trkpt lat="45.99301" lon="6.27572">
        <ele>1168.1400146484</ele>
        <time>2013-09-15T08:37:21.000Z</time>
      </trkpt>
      <trkpt lat="45.99299" lon="6.27584">
        <ele>1168.1400146484</ele>
        <time>2013-09-15T08:37:25.000Z</time>
      </trkpt>
      <trkpt lat="45.99301" lon="6.276">
        <ele>1162.8499755859</ele>
        <time>2013-09-15T08:37:31.000Z</time>
      </trkpt>
      <trkpt lat="45.99301" lon="6.27605">
        <ele>1161.4100341797</ele>
        <time>2013-09-15T08:37:33.000Z</time>
      </trkpt>
      <trkpt lat="45.99302" lon="6.27619">
        <ele>1159.0100097656</ele>
        <time>2013-09-15T08:37:38.000Z</time>
      </trkpt>
      <trkpt lat="45.99301" lon="6.27629">
        <ele>1154.1999511719</ele>
        <time>2013-09-15T08:37:43.000Z</time>
      </trkpt>
      <trkpt lat="45.99302" lon="6.27633">
        <ele>1151.8000488281</ele>
        <time>2013-09-15T08:37:45.000Z</time>
      </trkpt>
      <trkpt lat="45.993" lon="6.27652">
        <ele>1153.7199707031</ele>
        <time>2013-09-15T08:37:50.000Z</time>
      </trkpt>
      <trkpt lat="45.993" lon="6.27667">
        <ele>1156.1199951172</ele>
        <time>2013-09-15T08:37:53.000Z</time>
      </trkpt>
      <trkpt lat="45.99299" lon="6.27679">
        <ele>1160.9300537109</ele>
        <time>2013-09-15T08:37:57.000Z</time>
      </trkpt>
      <trkpt lat="45.99297" lon="6.27681">
        <ele>1159.0100097656</ele>
        <time>2013-09-15T08:38:01.000Z</time>
      </trkpt>
      <trkpt lat="45.99284" lon="6.27687">
        <ele>1155.1600341797</ele>
        <time>2013-09-15T08:38:06.000Z</time>
      </trkpt>
      <trkpt lat="45.99277" lon="6.27699">
        <ele>1149.8699951172</ele>
        <time>2013-09-15T08:38:11.000Z</time>
      </trkpt>
      <trkpt lat="45.99266" lon="6.27709">
        <ele>1148.9100341797</ele>
        <time>2013-09-15T08:38:15.000Z</time>
      </trkpt>
      <trkpt lat="45.99259" lon="6.27726">
        <ele>1145.5500488281</ele>
        <time>2013-09-15T08:38:20.000Z</time>
      </trkpt>
      <trkpt lat="45.99251" lon="6.27735">
        <ele>1142.1800537109</ele>
        <time>2013-09-15T08:38:25.000Z</time>
      </trkpt>
      <trkpt lat="45.9925" lon="6.27736">
        <ele>1140.7399902344</ele>
        <time>2013-09-15T08:38:26.000Z</time>
      </trkpt>
      <trkpt lat="45.99242" lon="6.27743">
        <ele>1137.3800048828</ele>
        <time>2013-09-15T08:38:30.000Z</time>
      </trkpt>
      <trkpt lat="45.99229" lon="6.27765">
        <ele>1134.4899902344</ele>
        <time>2013-09-15T08:38:36.000Z</time>
      </trkpt>
      <trkpt lat="45.99221" lon="6.27778">
        <ele>1130.6500244141</ele>
        <time>2013-09-15T08:38:41.000Z</time>
      </trkpt>
      <trkpt lat="45.99218" lon="6.27785">
        <ele>1127.2800292969</ele>
        <time>2013-09-15T08:38:44.000Z</time>
      </trkpt>
      <trkpt lat="45.99214" lon="6.27797">
        <ele>1125.8399658203</ele>
        <time>2013-09-15T08:38:48.000Z</time>
      </trkpt>
      <trkpt lat="45.99212" lon="6.27803">
        <ele>1124.8800048828</ele>
        <time>2013-09-15T08:38:50.000Z</time>
      </trkpt>
      <trkpt lat="45.99211" lon="6.27807">
        <ele>1122</ele>
        <time>2013-09-15T08:38:52.000Z</time>
      </trkpt>
      <trkpt lat="45.99207" lon="6.27818">
        <ele>1118.1500244141</ele>
        <time>2013-09-15T08:38:57.000Z</time>
      </trkpt>
      <trkpt lat="45.99206" lon="6.27824">
        <ele>1115.75</ele>
        <time>2013-09-15T08:38:59.000Z</time>
      </trkpt>
      <trkpt lat="45.99202" lon="6.27843">
        <ele>1110.4599609375</ele>
        <time>2013-09-15T08:39:05.000Z</time>
      </trkpt>
      <trkpt lat="45.99194" lon="6.27858">
        <ele>1105.6500244141</ele>
        <time>2013-09-15T08:39:10.000Z</time>
      </trkpt>
      <trkpt lat="45.99181" lon="6.27871">
        <ele>1104.2099609375</ele>
        <time>2013-09-15T08:39:16.000Z</time>
      </trkpt>
      <trkpt lat="45.99173" lon="6.27874">
        <ele>1101.3299560547</ele>
        <time>2013-09-15T08:39:20.000Z</time>
      </trkpt>
      <trkpt lat="45.99169" lon="6.27877">
        <ele>1099.8900146484</ele>
        <time>2013-09-15T08:39:22.000Z</time>
      </trkpt>
      <trkpt lat="45.99161" lon="6.27882">
        <ele>1097.9599609375</ele>
        <time>2013-09-15T08:39:26.000Z</time>
      </trkpt>
      <trkpt lat="45.99156" lon="6.27886">
        <ele>1099.8900146484</ele>
        <time>2013-09-15T08:39:32.000Z</time>
      </trkpt>
      <trkpt lat="45.99148" lon="6.27882">
        <ele>1103.25</ele>
        <time>2013-09-15T08:39:44.000Z</time>
      </trkpt>
      <trkpt lat="45.99148" lon="6.27878">
        <ele>1102.7700195312</ele>
        <time>2013-09-15T08:39:46.000Z</time>
      </trkpt>
      <trkpt lat="45.99147" lon="6.27869">
        <ele>1097.4799804688</ele>
        <time>2013-09-15T08:39:52.000Z</time>
      </trkpt>
      <trkpt lat="45.99148" lon="6.27864">
        <ele>1094.5999755859</ele>
        <time>2013-09-15T08:39:56.000Z</time>
      </trkpt>
      <trkpt lat="45.99149" lon="6.27861">
        <ele>1091.7099609375</ele>
        <time>2013-09-15T08:39:58.000Z</time>
      </trkpt>
      <trkpt lat="45.99147" lon="6.27856">
        <ele>1089.3100585938</ele>
        <time>2013-09-15T08:40:01.000Z</time>
      </trkpt>
      <trkpt lat="45.99147" lon="6.27849">
        <ele>1084.9899902344</ele>
        <time>2013-09-15T08:40:07.000Z</time>
      </trkpt>
      <trkpt lat="45.99147" lon="6.27847">
        <ele>1084.5</ele>
        <time>2013-09-15T08:40:08.000Z</time>
      </trkpt>
      <trkpt lat="45.99146" lon="6.2784">
        <ele>1083.5400390625</ele>
        <time>2013-09-15T08:40:12.000Z</time>
      </trkpt>
      <trkpt lat="45.99144" lon="6.27837">
        <ele>1082.5799560547</ele>
        <time>2013-09-15T08:40:15.000Z</time>
      </trkpt>
      <trkpt lat="45.99143" lon="6.27835">
        <ele>1079.6999511719</ele>
        <time>2013-09-15T08:40:18.000Z</time>
      </trkpt>
      <trkpt lat="45.9914" lon="6.27822">
        <ele>1075.3699951172</ele>
        <time>2013-09-15T08:40:23.000Z</time>
      </trkpt>
      <trkpt lat="45.99134" lon="6.27803">
        <ele>1070.5699462891</ele>
        <time>2013-09-15T08:40:29.000Z</time>
      </trkpt>
      <trkpt lat="45.99133" lon="6.27799">
        <ele>1070.0799560547</ele>
        <time>2013-09-15T08:40:30.000Z</time>
      </trkpt>
      <trkpt lat="45.99132" lon="6.2778">
        <ele>1065.2800292969</ele>
        <time>2013-09-15T08:40:36.000Z</time>
      </trkpt>
      <trkpt lat="45.9913" lon="6.27774">
        <ele>1064.3199462891</ele>
        <time>2013-09-15T08:40:38.000Z</time>
      </trkpt>
      <trkpt lat="45.99129" lon="6.27759">
        <ele>1060.4699707031</ele>
        <time>2013-09-15T08:40:43.000Z</time>
      </trkpt>
      <trkpt lat="45.99125" lon="6.27743">
        <ele>1055.1800537109</ele>
        <time>2013-09-15T08:40:49.000Z</time>
      </trkpt>
      <trkpt lat="45.99125" lon="6.27732">
        <ele>1052.7800292969</ele>
        <time>2013-09-15T08:40:53.000Z</time>
      </trkpt>
      <trkpt lat="45.99124" lon="6.27721">
        <ele>1053.2600097656</ele>
        <time>2013-09-15T08:40:57.000Z</time>
      </trkpt>
      <trkpt lat="45.99127" lon="6.27706">
        <ele>1053.7399902344</ele>
        <time>2013-09-15T08:41:01.000Z</time>
      </trkpt>
      <trkpt lat="45.99125" lon="6.27701">
        <ele>1053.2600097656</ele>
        <time>2013-09-15T08:41:04.000Z</time>
      </trkpt>
      <trkpt lat="45.99118" lon="6.27706">
        <ele>1050.3800048828</ele>
        <time>2013-09-15T08:41:09.000Z</time>
      </trkpt>
      <trkpt lat="45.99108" lon="6.27715">
        <ele>1046.5300292969</ele>
        <time>2013-09-15T08:41:16.000Z</time>
      </trkpt>
      <trkpt lat="45.99105" lon="6.27719">
        <ele>1044.1300048828</ele>
        <time>2013-09-15T08:41:19.000Z</time>
      </trkpt>
      <trkpt lat="45.99099" lon="6.27724">
        <ele>1040.2800292969</ele>
        <time>2013-09-15T08:41:23.000Z</time>
      </trkpt>
      <trkpt lat="45.99093" lon="6.27728">
        <ele>1038.8399658203</ele>
        <time>2013-09-15T08:41:26.000Z</time>
      </trkpt>
      <trkpt lat="45.99084" lon="6.27733">
        <ele>1036.4399414062</ele>
        <time>2013-09-15T08:41:31.000Z</time>
      </trkpt>
      <trkpt lat="45.99076" lon="6.27737">
        <ele>1035.9599609375</ele>
        <time>2013-09-15T08:41:35.000Z</time>
      </trkpt>
      <trkpt lat="45.99072" lon="6.2774">
        <ele>1035</ele>
        <time>2013-09-15T08:41:38.000Z</time>
      </trkpt>
      <trkpt lat="45.99066" lon="6.27742">
        <ele>1034.0400390625</ele>
        <time>2013-09-15T08:41:41.000Z</time>
      </trkpt>
      <trkpt lat="45.99055" lon="6.27745">
        <ele>1032.5899658203</ele>
        <time>2013-09-15T08:41:46.000Z</time>
      </trkpt>
      <trkpt lat="45.99049" lon="6.2776">
        <ele>1028.75</ele>
        <time>2013-09-15T08:41:50.000Z</time>
      </trkpt>
      <trkpt lat="45.99047" lon="6.27772">
        <ele>1025.8599853516</ele>
        <time>2013-09-15T08:41:53.000Z</time>
      </trkpt>
      <trkpt lat="45.99047" lon="6.27797">
        <ele>1021.5399780273</ele>
        <time>2013-09-15T08:41:59.000Z</time>
      </trkpt>
      <trkpt lat="45.9905" lon="6.27818">
        <ele>1018.6500244141</ele>
        <time>2013-09-15T08:42:04.000Z</time>
      </trkpt>
      <trkpt lat="45.99054" lon="6.27837">
        <ele>1017.2100219727</ele>
        <time>2013-09-15T08:42:09.000Z</time>
      </trkpt>
      <trkpt lat="45.99051" lon="6.27855">
        <ele>1014.3300170898</ele>
        <time>2013-09-15T08:42:14.000Z</time>
      </trkpt>
      <trkpt lat="45.99047" lon="6.27867">
        <ele>1012.4099731445</ele>
        <time>2013-09-15T08:42:19.000Z</time>
      </trkpt>
      <trkpt lat="45.99046" lon="6.27875">
        <ele>1010</ele>
        <time>2013-09-15T08:42:22.000Z</time>
      </trkpt>
      <trkpt lat="45.99047" lon="6.27896">
        <ele>1006.1599731445</ele>
        <time>2013-09-15T08:42:28.000Z</time>
      </trkpt>
      <trkpt lat="45.99046" lon="6.27914">
        <ele>1004.7199707031</ele>
        <time>2013-09-15T08:42:33.000Z</time>
      </trkpt>
      <trkpt lat="45.99046" lon="6.27933">
        <ele>1002.7899780273</ele>
        <time>2013-09-15T08:42:38.000Z</time>
      </trkpt>
      <trkpt lat="45.99046" lon="6.27948">
        <ele>1000.3900146484</ele>
        <time>2013-09-15T08:42:42.000Z</time>
      </trkpt>
      <trkpt lat="45.99048" lon="6.27966">
        <ele>997.98602294922</ele>
        <time>2013-09-15T08:42:47.000Z</time>
      </trkpt>
      <trkpt lat="45.99048" lon="6.2797">
        <ele>997.98602294922</ele>
        <time>2013-09-15T08:42:48.000Z</time>
      </trkpt>
      <trkpt lat="45.99052" lon="6.27985">
        <ele>998.46600341797</ele>
        <time>2013-09-15T08:42:54.000Z</time>
      </trkpt>
      <trkpt lat="45.99052" lon="6.27988">
        <ele>997.98602294922</ele>
        <time>2013-09-15T08:42:55.000Z</time>
      </trkpt>
      <trkpt lat="45.99059" lon="6.28003">
        <ele>995.10198974609</ele>
        <time>2013-09-15T08:43:01.000Z</time>
      </trkpt>
      <trkpt lat="45.9906" lon="6.28007">
        <ele>991.25701904297</ele>
        <time>2013-09-15T08:43:05.000Z</time>
      </trkpt>
      <trkpt lat="45.9906" lon="6.2801">
        <ele>986.45001220703</ele>
        <time>2013-09-15T08:43:09.000Z</time>
      </trkpt>
      <trkpt lat="45.99063" lon="6.28015">
        <ele>983.56597900391</ele>
        <time>2013-09-15T08:43:14.000Z</time>
      </trkpt>
      <trkpt lat="45.99068" lon="6.28017">
        <ele>971.54901123047</ele>
        <time>2013-09-15T08:43:22.000Z</time>
      </trkpt>
      <trkpt lat="45.99067" lon="6.28017">
        <ele>973.95300292969</ele>
        <time>2013-09-15T08:43:27.000Z</time>
      </trkpt>
      <trkpt lat="45.9906" lon="6.28022">
        <ele>986.92999267578</ele>
        <time>2013-09-15T08:44:20.000Z</time>
      </trkpt>
      <trkpt lat="45.99069" lon="6.28031">
        <ele>987.41101074219</ele>
        <time>2013-09-15T08:44:26.000Z</time>
      </trkpt>
      <trkpt lat="45.9907" lon="6.28033">
        <ele>989.81500244141</ele>
        <time>2013-09-15T08:44:27.000Z</time>
      </trkpt>
      <trkpt lat="45.9907" lon="6.28037">
        <ele>1004.7199707031</ele>
        <time>2013-09-15T08:44:33.000Z</time>
      </trkpt>
      <trkpt lat="45.99058" lon="6.28034">
        <ele>1025.8599853516</ele>
        <time>2013-09-15T08:44:40.000Z</time>
      </trkpt>
      <trkpt lat="45.99044" lon="6.28032">
        <ele>1038.8399658203</ele>
        <time>2013-09-15T08:44:45.000Z</time>
      </trkpt>
      <trkpt lat="45.99043" lon="6.2803">
        <ele>1041.25</ele>
        <time>2013-09-15T08:44:46.000Z</time>
      </trkpt>
      <trkpt lat="45.99028" lon="6.28033">
        <ele>1045.5699462891</ele>
        <time>2013-09-15T08:44:52.000Z</time>
      </trkpt>
      <trkpt lat="45.9901" lon="6.28043">
        <ele>1042.2099609375</ele>
        <time>2013-09-15T08:44:57.000Z</time>
      </trkpt>
      <trkpt lat="45.99006" lon="6.28044">
        <ele>1041.7299804688</ele>
        <time>2013-09-15T08:44:58.000Z</time>
      </trkpt>
      <trkpt lat="45.98992" lon="6.28053">
        <ele>1031.6300048828</ele>
        <time>2013-09-15T08:45:03.000Z</time>
      </trkpt>
      <trkpt lat="45.98975" lon="6.28065">
        <ele>1018.1699829102</ele>
        <time>2013-09-15T08:45:08.000Z</time>
      </trkpt>
      <trkpt lat="45.98968" lon="6.28067">
        <ele>1012.4099731445</ele>
        <time>2013-09-15T08:45:12.000Z</time>
      </trkpt>
      <trkpt lat="45.98952" lon="6.28075">
        <ele>1008.5599975586</ele>
        <time>2013-09-15T08:45:19.000Z</time>
      </trkpt>
      <trkpt lat="45.98937" lon="6.28086">
        <ele>1001.3499755859</ele>
        <time>2013-09-15T08:45:24.000Z</time>
      </trkpt>
      <trkpt lat="45.98922" lon="6.28094">
        <ele>994.14099121094</ele>
        <time>2013-09-15T08:45:29.000Z</time>
      </trkpt>
      <trkpt lat="45.98917" lon="6.28098">
        <ele>991.25701904297</ele>
        <time>2013-09-15T08:45:31.000Z</time>
      </trkpt>
      <trkpt lat="45.98909" lon="6.28109">
        <ele>985.48901367188</ele>
        <time>2013-09-15T08:45:37.000Z</time>
      </trkpt>
      <trkpt lat="45.98906" lon="6.28115">
        <ele>984.04699707031</ele>
        <time>2013-09-15T08:45:40.000Z</time>
      </trkpt>
      <trkpt lat="45.98904" lon="6.28119">
        <ele>983.08502197266</ele>
        <time>2013-09-15T08:45:42.000Z</time>
      </trkpt>
      <trkpt lat="45.98895" lon="6.2813">
        <ele>982.1240234375</ele>
        <time>2013-09-15T08:45:46.000Z</time>
      </trkpt>
      <trkpt lat="45.98886" lon="6.28157">
        <ele>984.04699707031</ele>
        <time>2013-09-15T08:45:51.000Z</time>
      </trkpt>
      <trkpt lat="45.9888" lon="6.28174">
        <ele>988.85400390625</ele>
        <time>2013-09-15T08:45:55.000Z</time>
      </trkpt>
      <trkpt lat="45.98882" lon="6.28193">
        <ele>985.48901367188</ele>
        <time>2013-09-15T08:46:00.000Z</time>
      </trkpt>
      <trkpt lat="45.98882" lon="6.28209">
        <ele>982.1240234375</ele>
        <time>2013-09-15T08:46:04.000Z</time>
      </trkpt>
      <trkpt lat="45.98886" lon="6.28229">
        <ele>983.08502197266</ele>
        <time>2013-09-15T08:46:09.000Z</time>
      </trkpt>
      <trkpt lat="45.98894" lon="6.28245">
        <ele>984.04699707031</ele>
        <time>2013-09-15T08:46:14.000Z</time>
      </trkpt>
      <trkpt lat="45.98895" lon="6.28249">
        <ele>984.04699707031</ele>
        <time>2013-09-15T08:46:15.000Z</time>
      </trkpt>
      <trkpt lat="45.98899" lon="6.28269">
        <ele>988.37298583984</ele>
        <time>2013-09-15T08:46:21.000Z</time>
      </trkpt>
      <trkpt lat="45.98899" lon="6.28274">
        <ele>990.77600097656</ele>
        <time>2013-09-15T08:46:22.000Z</time>
      </trkpt>
      <trkpt lat="45.98903" lon="6.28299">
        <ele>992.69897460938</ele>
        <time>2013-09-15T08:46:27.000Z</time>
      </trkpt>
      <trkpt lat="45.98909" lon="6.28314">
        <ele>985.00799560547</ele>
        <time>2013-09-15T08:46:32.000Z</time>
      </trkpt>
      <trkpt lat="45.98911" lon="6.28316">
        <ele>982.1240234375</ele>
        <time>2013-09-15T08:46:33.000Z</time>
      </trkpt>
      <trkpt lat="45.98917" lon="6.2832">
        <ele>972.51098632812</ele>
        <time>2013-09-15T08:46:38.000Z</time>
      </trkpt>
      <trkpt lat="45.98915" lon="6.28312">
        <ele>966.26202392578</ele>
        <time>2013-09-15T08:46:53.000Z</time>
      </trkpt>
      <trkpt lat="45.9891" lon="6.28309">
        <ele>970.10699462891</ele>
        <time>2013-09-15T08:46:59.000Z</time>
      </trkpt>
      <trkpt lat="45.98906" lon="6.28307">
        <ele>970.10699462891</ele>
        <time>2013-09-15T08:47:11.000Z</time>
      </trkpt>
      <trkpt lat="45.98908" lon="6.28318">
        <ele>969.62701416016</ele>
        <time>2013-09-15T08:47:17.000Z</time>
      </trkpt>
      <trkpt lat="45.98903" lon="6.2833">
        <ele>977.31799316406</ele>
        <time>2013-09-15T08:47:31.000Z</time>
      </trkpt>
      <trkpt lat="45.98906" lon="6.28343">
        <ele>976.35601806641</ele>
        <time>2013-09-15T08:47:36.000Z</time>
      </trkpt>
      <trkpt lat="45.98909" lon="6.2835">
        <ele>972.03002929688</ele>
        <time>2013-09-15T08:47:40.000Z</time>
      </trkpt>
      <trkpt lat="45.98909" lon="6.28354">
        <ele>968.18499755859</ele>
        <time>2013-09-15T08:47:43.000Z</time>
      </trkpt>
      <trkpt lat="45.98912" lon="6.28358">
        <ele>962.89801025391</ele>
        <time>2013-09-15T08:47:49.000Z</time>
      </trkpt>
      <trkpt lat="45.98911" lon="6.2835">
        <ele>954.72601318359</ele>
        <time>2013-09-15T08:47:58.000Z</time>
      </trkpt>
      <trkpt lat="45.9891" lon="6.28347">
        <ele>953.76501464844</ele>
        <time>2013-09-15T08:48:00.000Z</time>
      </trkpt>
      <trkpt lat="45.98901" lon="6.28344">
        <ele>950.88098144531</ele>
        <time>2013-09-15T08:48:05.000Z</time>
      </trkpt>
      <trkpt lat="45.98901" lon="6.28342">
        <ele>949.43902587891</ele>
        <time>2013-09-15T08:48:06.000Z</time>
      </trkpt>
      <trkpt lat="45.98895" lon="6.28337">
        <ele>948.47802734375</ele>
        <time>2013-09-15T08:48:10.000Z</time>
      </trkpt>
      <trkpt lat="45.9889" lon="6.28337">
        <ele>947.99700927734</ele>
        <time>2013-09-15T08:48:13.000Z</time>
      </trkpt>
      <trkpt lat="45.98885" lon="6.28329">
        <ele>946.07501220703</ele>
        <time>2013-09-15T08:48:20.000Z</time>
      </trkpt>
      <trkpt lat="45.98884" lon="6.28328">
        <ele>946.55499267578</ele>
        <time>2013-09-15T08:48:21.000Z</time>
      </trkpt>
      <trkpt lat="45.98878" lon="6.28328">
        <ele>950.40100097656</ele>
        <time>2013-09-15T08:48:28.000Z</time>
      </trkpt>
      <trkpt lat="45.98876" lon="6.28325">
        <ele>947.99700927734</ele>
        <time>2013-09-15T08:48:34.000Z</time>
      </trkpt>
      <trkpt lat="45.98874" lon="6.2832">
        <ele>947.99700927734</ele>
        <time>2013-09-15T08:48:38.000Z</time>
      </trkpt>
      <trkpt lat="45.98868" lon="6.28323">
        <ele>941.7490234375</ele>
        <time>2013-09-15T08:48:44.000Z</time>
      </trkpt>
      <trkpt lat="45.98867" lon="6.28321">
        <ele>938.86499023438</ele>
        <time>2013-09-15T08:48:46.000Z</time>
      </trkpt>
      <trkpt lat="45.98857" lon="6.28329">
        <ele>942.71002197266</ele>
        <time>2013-09-15T08:48:51.000Z</time>
      </trkpt>
      <trkpt lat="45.98856" lon="6.28334">
        <ele>943.19097900391</ele>
        <time>2013-09-15T08:48:53.000Z</time>
      </trkpt>
      <trkpt lat="45.98855" lon="6.28347">
        <ele>947.03601074219</ele>
        <time>2013-09-15T08:49:00.000Z</time>
      </trkpt>
      <trkpt lat="45.98859" lon="6.28347">
        <ele>933.57702636719</ele>
        <time>2013-09-15T08:49:06.000Z</time>
      </trkpt>
      <trkpt lat="45.98858" lon="6.28351">
        <ele>926.84802246094</ele>
        <time>2013-09-15T08:49:12.000Z</time>
      </trkpt>
      <trkpt lat="45.98854" lon="6.28357">
        <ele>923.48400878906</ele>
        <time>2013-09-15T08:49:16.000Z</time>
      </trkpt>
      <trkpt lat="45.98855" lon="6.28365">
        <ele>922.0419921875</ele>
        <time>2013-09-15T08:49:19.000Z</time>
      </trkpt>
      <trkpt lat="45.98856" lon="6.28377">
        <ele>920.11901855469</ele>
        <time>2013-09-15T08:49:25.000Z</time>
      </trkpt>
      <trkpt lat="45.98856" lon="6.28374">
        <ele>924.44500732422</ele>
        <time>2013-09-15T08:49:30.000Z</time>
      </trkpt>
      <trkpt lat="45.98856" lon="6.28372">
        <ele>923.48400878906</ele>
        <time>2013-09-15T08:49:32.000Z</time>
      </trkpt>
      <trkpt lat="45.98851" lon="6.28373">
        <ele>911.46697998047</ele>
        <time>2013-09-15T08:49:37.000Z</time>
      </trkpt>
      <trkpt lat="45.9885" lon="6.28372">
        <ele>910.50598144531</ele>
        <time>2013-09-15T08:49:38.000Z</time>
      </trkpt>
      <trkpt lat="45.98846" lon="6.2837">
        <ele>907.14099121094</ele>
        <time>2013-09-15T08:49:42.000Z</time>
      </trkpt>
      <trkpt lat="45.98844" lon="6.2837">
        <ele>908.10302734375</ele>
        <time>2013-09-15T08:49:44.000Z</time>
      </trkpt>
      <trkpt lat="45.98842" lon="6.28365">
        <ele>903.77697753906</ele>
        <time>2013-09-15T08:49:50.000Z</time>
      </trkpt>
      <trkpt lat="45.98841" lon="6.2836">
        <ele>903.29602050781</ele>
        <time>2013-09-15T08:49:56.000Z</time>
      </trkpt>
      <trkpt lat="45.98838" lon="6.2836">
        <ele>907.62200927734</ele>
        <time>2013-09-15T08:50:01.000Z</time>
      </trkpt>
      <trkpt lat="45.98838" lon="6.28359">
        <ele>907.14099121094</ele>
        <time>2013-09-15T08:50:02.000Z</time>
      </trkpt>
      <trkpt lat="45.98828" lon="6.28362">
        <ele>910.02502441406</ele>
        <time>2013-09-15T08:50:07.000Z</time>
      </trkpt>
      <trkpt lat="45.98824" lon="6.28359">
        <ele>910.02502441406</ele>
        <time>2013-09-15T08:50:11.000Z</time>
      </trkpt>
      <trkpt lat="45.98823" lon="6.28356">
        <ele>910.50598144531</ele>
        <time>2013-09-15T08:50:13.000Z</time>
      </trkpt>
      <trkpt lat="45.98824" lon="6.28345">
        <ele>915.31201171875</ele>
        <time>2013-09-15T08:50:17.000Z</time>
      </trkpt>
      <trkpt lat="45.98818" lon="6.28344">
        <ele>916.75402832031</ele>
        <time>2013-09-15T08:50:23.000Z</time>
      </trkpt>
      <trkpt lat="45.98808" lon="6.28346">
        <ele>914.35101318359</ele>
        <time>2013-09-15T08:50:29.000Z</time>
      </trkpt>
      <trkpt lat="45.98796" lon="6.28346">
        <ele>914.35101318359</ele>
        <time>2013-09-15T08:50:48.000Z</time>
      </trkpt>
      <trkpt lat="45.98802" lon="6.28336">
        <ele>914.83197021484</ele>
        <time>2013-09-15T08:50:57.000Z</time>
      </trkpt>
      <trkpt lat="45.98803" lon="6.28328">
        <ele>911.94799804688</ele>
        <time>2013-09-15T08:51:02.000Z</time>
      </trkpt>
      <trkpt lat="45.98801" lon="6.28324">
        <ele>908.5830078125</ele>
        <time>2013-09-15T08:51:08.000Z</time>
      </trkpt>
      <trkpt lat="45.98799" lon="6.28323">
        <ele>902.81500244141</ele>
        <time>2013-09-15T08:51:11.000Z</time>
      </trkpt>
      <trkpt lat="45.98794" lon="6.28323">
        <ele>898.00897216797</ele>
        <time>2013-09-15T08:51:15.000Z</time>
      </trkpt>
      <trkpt lat="45.9879" lon="6.2832">
        <ele>890.79901123047</ele>
        <time>2013-09-15T08:51:20.000Z</time>
      </trkpt>
      <trkpt lat="45.98788" lon="6.28324">
        <ele>886.47302246094</ele>
        <time>2013-09-15T08:51:25.000Z</time>
      </trkpt>
      <trkpt lat="45.98792" lon="6.28325">
        <ele>882.14697265625</ele>
        <time>2013-09-15T08:51:29.000Z</time>
      </trkpt>
      <trkpt lat="45.98798" lon="6.2833">
        <ele>881.18597412109</ele>
        <time>2013-09-15T08:51:37.000Z</time>
      </trkpt>
      <trkpt lat="45.98792" lon="6.2834">
        <ele>880.70501708984</ele>
        <time>2013-09-15T08:51:42.000Z</time>
      </trkpt>
      <trkpt lat="45.98788" lon="6.28347">
        <ele>880.22399902344</ele>
        <time>2013-09-15T08:51:51.000Z</time>
      </trkpt>
      <trkpt lat="45.98792" lon="6.28351">
        <ele>879.74401855469</ele>
        <time>2013-09-15T08:51:55.000Z</time>
      </trkpt>
      <trkpt lat="45.9879" lon="6.28355">
        <ele>884.54998779297</ele>
        <time>2013-09-15T08:52:01.000Z</time>
      </trkpt>
      <trkpt lat="45.98788" lon="6.28355">
        <ele>884.07000732422</ele>
        <time>2013-09-15T08:52:02.000Z</time>
      </trkpt>
      <trkpt lat="45.98779" lon="6.28354">
        <ele>888.8759765625</ele>
        <time>2013-09-15T08:52:06.000Z</time>
      </trkpt>
      <trkpt lat="45.98776" lon="6.28349">
        <ele>885.51098632812</ele>
        <time>2013-09-15T08:52:10.000Z</time>
      </trkpt>
      <trkpt lat="45.98771" lon="6.28346">
        <ele>878.78198242188</ele>
        <time>2013-09-15T08:52:16.000Z</time>
      </trkpt>
      <trkpt lat="45.98772" lon="6.28348">
        <ele>873.97601318359</ele>
        <time>2013-09-15T08:52:20.000Z</time>
      </trkpt>
      <trkpt lat="45.9877" lon="6.2835">
        <ele>877.34100341797</ele>
        <time>2013-09-15T08:52:25.000Z</time>
      </trkpt>
      <trkpt lat="45.9876" lon="6.28345">
        <ele>883.10797119141</ele>
        <time>2013-09-15T08:52:53.000Z</time>
      </trkpt>
      <trkpt lat="45.98759" lon="6.28344">
        <ele>882.62799072266</ele>
        <time>2013-09-15T08:52:54.000Z</time>
      </trkpt>
      <trkpt lat="45.98745" lon="6.28346">
        <ele>869.65002441406</ele>
        <time>2013-09-15T08:53:01.000Z</time>
      </trkpt>
      <trkpt lat="45.98744" lon="6.28346">
        <ele>861.958984375</ele>
        <time>2013-09-15T08:53:04.000Z</time>
      </trkpt>
      <trkpt lat="45.98737" lon="6.28343">
        <ele>858.59399414062</ele>
        <time>2013-09-15T08:53:08.000Z</time>
      </trkpt>
      <trkpt lat="45.98735" lon="6.28341">
        <ele>855.22998046875</ele>
        <time>2013-09-15T08:53:10.000Z</time>
      </trkpt>
      <trkpt lat="45.98732" lon="6.2833">
        <ele>849.46197509766</ele>
        <time>2013-09-15T08:53:16.000Z</time>
      </trkpt>
      <trkpt lat="45.98733" lon="6.28326">
        <ele>848.02001953125</ele>
        <time>2013-09-15T08:53:18.000Z</time>
      </trkpt>
      <trkpt lat="45.98732" lon="6.28321">
        <ele>846.09802246094</ele>
        <time>2013-09-15T08:53:21.000Z</time>
      </trkpt>
      <trkpt lat="45.9873" lon="6.28307">
        <ele>843.21301269531</ele>
        <time>2013-09-15T08:53:27.000Z</time>
      </trkpt>
      <trkpt lat="45.98727" lon="6.28302">
        <ele>843.21301269531</ele>
        <time>2013-09-15T08:53:29.000Z</time>
      </trkpt>
      <trkpt lat="45.98719" lon="6.28294">
        <ele>842.25201416016</ele>
        <time>2013-09-15T08:53:34.000Z</time>
      </trkpt>
      <trkpt lat="45.98709" lon="6.28283">
        <ele>844.65600585938</ele>
        <time>2013-09-15T08:53:40.000Z</time>
      </trkpt>
      <trkpt lat="45.98705" lon="6.2827">
        <ele>846.57800292969</ele>
        <time>2013-09-15T08:53:47.000Z</time>
      </trkpt>
      <trkpt lat="45.98705" lon="6.28264">
        <ele>844.65600585938</ele>
        <time>2013-09-15T08:53:49.000Z</time>
      </trkpt>
      <trkpt lat="45.98703" lon="6.2826">
        <ele>839.36798095703</ele>
        <time>2013-09-15T08:53:53.000Z</time>
      </trkpt>
      <trkpt lat="45.98702" lon="6.28254">
        <ele>841.77099609375</ele>
        <time>2013-09-15T08:54:00.000Z</time>
      </trkpt>
      <trkpt lat="45.98702" lon="6.28248">
        <ele>837.92602539062</ele>
        <time>2013-09-15T08:54:06.000Z</time>
      </trkpt>
      <trkpt lat="45.987" lon="6.28244">
        <ele>833.11999511719</ele>
        <time>2013-09-15T08:54:09.000Z</time>
      </trkpt>
      <trkpt lat="45.98695" lon="6.28241">
        <ele>829.75500488281</ele>
        <time>2013-09-15T08:54:12.000Z</time>
      </trkpt>
      <trkpt lat="45.98685" lon="6.2823">
        <ele>828.31298828125</ele>
        <time>2013-09-15T08:54:18.000Z</time>
      </trkpt>
      <trkpt lat="45.98681" lon="6.28226">
        <ele>827.83197021484</ele>
        <time>2013-09-15T08:54:20.000Z</time>
      </trkpt>
      <trkpt lat="45.98667" lon="6.28208">
        <ele>831.67797851562</ele>
        <time>2013-09-15T08:54:26.000Z</time>
      </trkpt>
      <trkpt lat="45.98666" lon="6.28205">
        <ele>831.19702148438</ele>
        <time>2013-09-15T08:54:27.000Z</time>
      </trkpt>
      <trkpt lat="45.98659" lon="6.28188">
        <ele>834.08099365234</ele>
        <time>2013-09-15T08:54:32.000Z</time>
      </trkpt>
      <trkpt lat="45.98659" lon="6.28187">
        <ele>832.63897705078</ele>
        <time>2013-09-15T08:54:33.000Z</time>
      </trkpt>
      <trkpt lat="45.98652" lon="6.28186">
        <ele>825.90997314453</ele>
        <time>2013-09-15T08:54:38.000Z</time>
      </trkpt>
      <trkpt lat="45.98648" lon="6.28186">
        <ele>822.06402587891</ele>
        <time>2013-09-15T08:54:40.000Z</time>
      </trkpt>
      <trkpt lat="45.98639" lon="6.28186">
        <ele>815.33502197266</ele>
        <time>2013-09-15T08:54:45.000Z</time>
      </trkpt>
      <trkpt lat="45.98627" lon="6.28171">
        <ele>815.33502197266</ele>
        <time>2013-09-15T08:54:51.000Z</time>
      </trkpt>
      <trkpt lat="45.98614" lon="6.28164">
        <ele>813.41302490234</ele>
        <time>2013-09-15T08:54:56.000Z</time>
      </trkpt>
      <trkpt lat="45.98605" lon="6.28167">
        <ele>808.60601806641</ele>
        <time>2013-09-15T08:54:59.000Z</time>
      </trkpt>
      <trkpt lat="45.98595" lon="6.28158">
        <ele>805.24102783203</ele>
        <time>2013-09-15T08:55:04.000Z</time>
      </trkpt>
      <trkpt lat="45.98585" lon="6.28144">
        <ele>807.16400146484</ele>
        <time>2013-09-15T08:55:09.000Z</time>
      </trkpt>
      <trkpt lat="45.98575" lon="6.28138">
        <ele>802.83801269531</ele>
        <time>2013-09-15T08:55:13.000Z</time>
      </trkpt>
      <trkpt lat="45.98558" lon="6.28137">
        <ele>797.07000732422</ele>
        <time>2013-09-15T08:55:19.000Z</time>
      </trkpt>
      <trkpt lat="45.98549" lon="6.28132">
        <ele>791.78302001953</ele>
        <time>2013-09-15T08:55:23.000Z</time>
      </trkpt>
      <trkpt lat="45.98538" lon="6.28122">
        <ele>789.38000488281</ele>
        <time>2013-09-15T08:55:28.000Z</time>
      </trkpt>
      <trkpt lat="45.9853" lon="6.28111">
        <ele>789.38000488281</ele>
        <time>2013-09-15T08:55:33.000Z</time>
      </trkpt>
      <trkpt lat="45.98521" lon="6.28101">
        <ele>786.49597167969</ele>
        <time>2013-09-15T08:55:42.000Z</time>
      </trkpt>
      <trkpt lat="45.98513" lon="6.28098">
        <ele>781.68902587891</ele>
        <time>2013-09-15T08:55:49.000Z</time>
      </trkpt>
      <trkpt lat="45.9851" lon="6.28096">
        <ele>781.68902587891</ele>
        <time>2013-09-15T08:55:54.000Z</time>
      </trkpt>
      <trkpt lat="45.98501" lon="6.28092">
        <ele>780.24700927734</ele>
        <time>2013-09-15T08:56:02.000Z</time>
      </trkpt>
      <trkpt lat="45.98493" lon="6.28092">
        <ele>778.80499267578</ele>
        <time>2013-09-15T08:56:09.000Z</time>
      </trkpt>
      <trkpt lat="45.98484" lon="6.28089">
        <ele>775.92102050781</ele>
        <time>2013-09-15T08:56:16.000Z</time>
      </trkpt>
      <trkpt lat="45.98484" lon="6.28088">
        <ele>774.96002197266</ele>
        <time>2013-09-15T08:56:17.000Z</time>
      </trkpt>
      <trkpt lat="45.98479" lon="6.28086">
        <ele>772.55700683594</ele>
        <time>2013-09-15T08:56:21.000Z</time>
      </trkpt>
      <trkpt lat="45.98478" lon="6.28086">
        <ele>772.07598876953</ele>
        <time>2013-09-15T08:56:22.000Z</time>
      </trkpt>
      <trkpt lat="45.98474" lon="6.28084">
        <ele>770.63397216797</ele>
        <time>2013-09-15T08:56:25.000Z</time>
      </trkpt>
      <trkpt lat="45.98462" lon="6.2808">
        <ele>768.71099853516</ele>
        <time>2013-09-15T08:56:31.000Z</time>
      </trkpt>
      <trkpt lat="45.98448" lon="6.28071">
        <ele>767.27001953125</ele>
        <time>2013-09-15T08:56:38.000Z</time>
      </trkpt>
      <trkpt lat="45.98435" lon="6.28068">
        <ele>761.98199462891</ele>
        <time>2013-09-15T08:56:43.000Z</time>
      </trkpt>
      <trkpt lat="45.98423" lon="6.28064">
        <ele>758.61700439453</ele>
        <time>2013-09-15T08:56:48.000Z</time>
      </trkpt>
      <trkpt lat="45.98421" lon="6.28061">
        <ele>759.57897949219</ele>
        <time>2013-09-15T08:56:49.000Z</time>
      </trkpt>
      <trkpt lat="45.98413" lon="6.28055">
        <ele>757.65600585938</ele>
        <time>2013-09-15T08:56:52.000Z</time>
      </trkpt>
      <trkpt lat="45.98412" lon="6.28044">
        <ele>755.25299072266</ele>
        <time>2013-09-15T08:56:56.000Z</time>
      </trkpt>
      <trkpt lat="45.98419" lon="6.2802">
        <ele>753.81097412109</ele>
        <time>2013-09-15T08:57:03.000Z</time>
      </trkpt>
      <trkpt lat="45.98426" lon="6.28001">
        <ele>754.2919921875</ele>
        <time>2013-09-15T08:57:08.000Z</time>
      </trkpt>
      <trkpt lat="45.98433" lon="6.27986">
        <ele>754.2919921875</ele>
        <time>2013-09-15T08:57:13.000Z</time>
      </trkpt>
      <trkpt lat="45.98446" lon="6.27967">
        <ele>756.21398925781</ele>
        <time>2013-09-15T08:57:20.000Z</time>
      </trkpt>
      <trkpt lat="45.98455" lon="6.27953">
        <ele>758.61700439453</ele>
        <time>2013-09-15T08:57:25.000Z</time>
      </trkpt>
      <trkpt lat="45.98463" lon="6.27939">
        <ele>761.5009765625</ele>
        <time>2013-09-15T08:57:30.000Z</time>
      </trkpt>
      <trkpt lat="45.98471" lon="6.27925">
        <ele>762.46301269531</ele>
        <time>2013-09-15T08:57:35.000Z</time>
      </trkpt>
      <trkpt lat="45.98479" lon="6.27912">
        <ele>766.78900146484</ele>
        <time>2013-09-15T08:57:40.000Z</time>
      </trkpt>
      <trkpt lat="45.98486" lon="6.27901">
        <ele>765.82800292969</ele>
        <time>2013-09-15T08:57:44.000Z</time>
      </trkpt>
      <trkpt lat="45.98491" lon="6.27894">
        <ele>763.90502929688</ele>
        <time>2013-09-15T08:57:47.000Z</time>
      </trkpt>
      <trkpt lat="45.98488" lon="6.27885">
        <ele>762.94299316406</ele>
        <time>2013-09-15T08:57:51.000Z</time>
      </trkpt>
      <trkpt lat="45.98481" lon="6.27875">
        <ele>761.5009765625</ele>
        <time>2013-09-15T08:57:55.000Z</time>
      </trkpt>
      <trkpt lat="45.9848" lon="6.27866">
        <ele>760.53997802734</ele>
        <time>2013-09-15T08:57:58.000Z</time>
      </trkpt>
      <trkpt lat="45.98478" lon="6.27853">
        <ele>758.13702392578</ele>
        <time>2013-09-15T08:58:02.000Z</time>
      </trkpt>
      <trkpt lat="45.98474" lon="6.27842">
        <ele>755.25299072266</ele>
        <time>2013-09-15T08:58:06.000Z</time>
      </trkpt>
      <trkpt lat="45.98472" lon="6.2784">
        <ele>754.77197265625</ele>
        <time>2013-09-15T08:58:07.000Z</time>
      </trkpt>
      <trkpt lat="45.98459" lon="6.27831">
        <ele>751.40802001953</ele>
        <time>2013-09-15T08:58:13.000Z</time>
      </trkpt>
      <trkpt lat="45.98451" lon="6.27822">
        <ele>752.36901855469</ele>
        <time>2013-09-15T08:58:17.000Z</time>
      </trkpt>
      <trkpt lat="45.98441" lon="6.27812">
        <ele>749.48498535156</ele>
        <time>2013-09-15T08:58:22.000Z</time>
      </trkpt>
      <trkpt lat="45.98432" lon="6.27792">
        <ele>746.60101318359</ele>
        <time>2013-09-15T08:58:28.000Z</time>
      </trkpt>
      <trkpt lat="45.98431" lon="6.27785">
        <ele>744.67797851562</ele>
        <time>2013-09-15T08:58:30.000Z</time>
      </trkpt>
      <trkpt lat="45.98426" lon="6.27769">
        <ele>746.11999511719</ele>
        <time>2013-09-15T08:58:34.000Z</time>
      </trkpt>
      <trkpt lat="45.98424" lon="6.27766">
        <ele>748.52398681641</ele>
        <time>2013-09-15T08:58:35.000Z</time>
      </trkpt>
      <trkpt lat="45.98413" lon="6.27764">
        <ele>747.08197021484</ele>
        <time>2013-09-15T08:58:40.000Z</time>
      </trkpt>
      <trkpt lat="45.98402" lon="6.27758">
        <ele>745.15899658203</ele>
        <time>2013-09-15T08:58:45.000Z</time>
      </trkpt>
      <trkpt lat="45.98393" lon="6.27745">
        <ele>740.35302734375</ele>
        <time>2013-09-15T08:58:50.000Z</time>
      </trkpt>
      <trkpt lat="45.98389" lon="6.2773">
        <ele>734.58502197266</ele>
        <time>2013-09-15T08:58:55.000Z</time>
      </trkpt>
      <trkpt lat="45.98378" lon="6.27714">
        <ele>730.73901367188</ele>
        <time>2013-09-15T08:59:01.000Z</time>
      </trkpt>
      <trkpt lat="45.98372" lon="6.27694">
        <ele>725.93298339844</ele>
        <time>2013-09-15T08:59:07.000Z</time>
      </trkpt>
      <trkpt lat="45.9837" lon="6.27673">
        <ele>724.01000976562</ele>
        <time>2013-09-15T08:59:12.000Z</time>
      </trkpt>
      <trkpt lat="45.9837" lon="6.27659">
        <ele>722.08697509766</ele>
        <time>2013-09-15T08:59:16.000Z</time>
      </trkpt>
      <trkpt lat="45.9838" lon="6.27638">
        <ele>720.16497802734</ele>
        <time>2013-09-15T08:59:22.000Z</time>
      </trkpt>
      <trkpt lat="45.98386" lon="6.27622">
        <ele>718.72302246094</ele>
        <time>2013-09-15T08:59:27.000Z</time>
      </trkpt>
      <trkpt lat="45.98394" lon="6.27599">
        <ele>717.76098632812</ele>
        <time>2013-09-15T08:59:33.000Z</time>
      </trkpt>
      <trkpt lat="45.98399" lon="6.27581">
        <ele>716.79998779297</ele>
        <time>2013-09-15T08:59:38.000Z</time>
      </trkpt>
      <trkpt lat="45.98405" lon="6.27564">
        <ele>715.35797119141</ele>
        <time>2013-09-15T08:59:43.000Z</time>
      </trkpt>
      <trkpt lat="45.9841" lon="6.27543">
        <ele>714.39697265625</ele>
        <time>2013-09-15T08:59:49.000Z</time>
      </trkpt>
      <trkpt lat="45.98414" lon="6.2753">
        <ele>713.43597412109</ele>
        <time>2013-09-15T08:59:53.000Z</time>
      </trkpt>
      <trkpt lat="45.9842" lon="6.27508">
        <ele>711.99401855469</ele>
        <time>2013-09-15T08:59:59.000Z</time>
      </trkpt>
      <trkpt lat="45.98421" lon="6.27502">
        <ele>711.03198242188</ele>
        <time>2013-09-15T09:00:01.000Z</time>
      </trkpt>
      <trkpt lat="45.98431" lon="6.27495">
        <ele>709.10998535156</ele>
        <time>2013-09-15T09:00:05.000Z</time>
      </trkpt>
      <trkpt lat="45.98442" lon="6.27492">
        <ele>710.07098388672</ele>
        <time>2013-09-15T09:00:10.000Z</time>
      </trkpt>
      <trkpt lat="45.98446" lon="6.2749">
        <ele>710.07098388672</ele>
        <time>2013-09-15T09:00:14.000Z</time>
      </trkpt>
      <trkpt lat="45.98449" lon="6.27492">
        <ele>709.59002685547</ele>
        <time>2013-09-15T09:00:19.000Z</time>
      </trkpt>
      <trkpt lat="45.98456" lon="6.27498">
        <ele>710.07098388672</ele>
        <time>2013-09-15T09:00:24.000Z</time>
      </trkpt>
      <trkpt lat="45.98464" lon="6.27498">
        <ele>712.95501708984</ele>
        <time>2013-09-15T09:00:29.000Z</time>
      </trkpt>
      <trkpt lat="45.98466" lon="6.27493">
        <ele>712.47399902344</ele>
        <time>2013-09-15T09:00:32.000Z</time>
      </trkpt>
      <trkpt lat="45.98468" lon="6.2747">
        <ele>720.16497802734</ele>
        <time>2013-09-15T09:00:39.000Z</time>
      </trkpt>
      <trkpt lat="45.98468" lon="6.27466">
        <ele>721.60699462891</ele>
        <time>2013-09-15T09:00:40.000Z</time>
      </trkpt>
      <trkpt lat="45.98465" lon="6.27444">
        <ele>718.72302246094</ele>
        <time>2013-09-15T09:00:46.000Z</time>
      </trkpt>
      <trkpt lat="45.98464" lon="6.27441">
        <ele>717.76098632812</ele>
        <time>2013-09-15T09:00:47.000Z</time>
      </trkpt>
      <trkpt lat="45.98454" lon="6.27422">
        <ele>708.14801025391</ele>
        <time>2013-09-15T09:00:54.000Z</time>
      </trkpt>
      <trkpt lat="45.98449" lon="6.27415">
        <ele>707.66802978516</ele>
        <time>2013-09-15T09:00:57.000Z</time>
      </trkpt>
      <trkpt lat="45.98442" lon="6.27392">
        <ele>713.916015625</ele>
        <time>2013-09-15T09:01:04.000Z</time>
      </trkpt>
      <trkpt lat="45.98442" lon="6.27376">
        <ele>712.95501708984</ele>
        <time>2013-09-15T09:01:09.000Z</time>
      </trkpt>
      <trkpt lat="45.98434" lon="6.2736">
        <ele>713.43597412109</ele>
        <time>2013-09-15T09:01:15.000Z</time>
      </trkpt>
      <trkpt lat="45.98423" lon="6.27339">
        <ele>716.32000732422</ele>
        <time>2013-09-15T09:01:21.000Z</time>
      </trkpt>
      <trkpt lat="45.98415" lon="6.27323">
        <ele>719.68402099609</ele>
        <time>2013-09-15T09:01:26.000Z</time>
      </trkpt>
      <trkpt lat="45.98407" lon="6.2731">
        <ele>716.79998779297</ele>
        <time>2013-09-15T09:01:31.000Z</time>
      </trkpt>
      <trkpt lat="45.98402" lon="6.27294">
        <ele>710.55200195312</ele>
        <time>2013-09-15T09:01:37.000Z</time>
      </trkpt>
      <trkpt lat="45.98399" lon="6.27286">
        <ele>699.49597167969</ele>
        <time>2013-09-15T09:01:42.000Z</time>
      </trkpt>
      <trkpt lat="45.984" lon="6.27278">
        <ele>694.69000244141</ele>
        <time>2013-09-15T09:01:45.000Z</time>
      </trkpt>
      <trkpt lat="45.98403" lon="6.27267">
        <ele>683.63500976562</ele>
        <time>2013-09-15T09:01:50.000Z</time>
      </trkpt>
      <trkpt lat="45.98409" lon="6.27256">
        <ele>678.82800292969</ele>
        <time>2013-09-15T09:01:54.000Z</time>
      </trkpt>
      <trkpt lat="45.9841" lon="6.27252">
        <ele>680.27001953125</ele>
        <time>2013-09-15T09:01:55.000Z</time>
      </trkpt>
      <trkpt lat="45.98419" lon="6.27234">
        <ele>687.47998046875</ele>
        <time>2013-09-15T09:02:01.000Z</time>
      </trkpt>
      <trkpt lat="45.9843" lon="6.27214">
        <ele>686.03802490234</ele>
        <time>2013-09-15T09:02:09.000Z</time>
      </trkpt>
      <trkpt lat="45.98441" lon="6.27199">
        <ele>685.07702636719</ele>
        <time>2013-09-15T09:02:15.000Z</time>
      </trkpt>
      <trkpt lat="45.98449" lon="6.27182">
        <ele>680.27001953125</ele>
        <time>2013-09-15T09:02:21.000Z</time>
      </trkpt>
      <trkpt lat="45.98453" lon="6.27174">
        <ele>680.27001953125</ele>
        <time>2013-09-15T09:02:24.000Z</time>
      </trkpt>
      <trkpt lat="45.98458" lon="6.27164">
        <ele>683.63500976562</ele>
        <time>2013-09-15T09:02:29.000Z</time>
      </trkpt>
      <trkpt lat="45.98455" lon="6.27148">
        <ele>687.47998046875</ele>
        <time>2013-09-15T09:02:35.000Z</time>
      </trkpt>
      <trkpt lat="45.98452" lon="6.27144">
        <ele>687.96099853516</ele>
        <time>2013-09-15T09:02:38.000Z</time>
      </trkpt>
      <trkpt lat="45.98452" lon="6.27122">
        <ele>682.67297363281</ele>
        <time>2013-09-15T09:02:45.000Z</time>
      </trkpt>
      <trkpt lat="45.98454" lon="6.27105">
        <ele>678.34698486328</ele>
        <time>2013-09-15T09:02:50.000Z</time>
      </trkpt>
      <trkpt lat="45.98455" lon="6.27086">
        <ele>674.98297119141</ele>
        <time>2013-09-15T09:02:56.000Z</time>
      </trkpt>
      <trkpt lat="45.98457" lon="6.2707">
        <ele>672.58001708984</ele>
        <time>2013-09-15T09:03:01.000Z</time>
      </trkpt>
      <trkpt lat="45.98459" lon="6.27052">
        <ele>671.61798095703</ele>
        <time>2013-09-15T09:03:06.000Z</time>
      </trkpt>
      <trkpt lat="45.98462" lon="6.2703">
        <ele>669.69598388672</ele>
        <time>2013-09-15T09:03:12.000Z</time>
      </trkpt>
      <trkpt lat="45.98462" lon="6.27022">
        <ele>669.21502685547</ele>
        <time>2013-09-15T09:03:14.000Z</time>
      </trkpt>
      <trkpt lat="45.98461" lon="6.27012">
        <ele>668.73400878906</ele>
        <time>2013-09-15T09:03:18.000Z</time>
      </trkpt>
      <trkpt lat="45.98457" lon="6.27009">
        <ele>664.40802001953</ele>
        <time>2013-09-15T09:03:23.000Z</time>
      </trkpt>
      <trkpt lat="45.98451" lon="6.27004">
        <ele>651.91101074219</ele>
        <time>2013-09-15T09:03:34.000Z</time>
      </trkpt>
      <trkpt lat="45.98449" lon="6.27001">
        <ele>650.46899414062</ele>
        <time>2013-09-15T09:03:36.000Z</time>
      </trkpt>
      <trkpt lat="45.98445" lon="6.26998">
        <ele>655.75701904297</ele>
        <time>2013-09-15T09:03:41.000Z</time>
      </trkpt>
      <trkpt lat="45.98445" lon="6.26995">
        <ele>659.12097167969</ele>
        <time>2013-09-15T09:03:43.000Z</time>
      </trkpt>
      <trkpt lat="45.98445" lon="6.26979">
        <ele>662.96600341797</ele>
        <time>2013-09-15T09:03:48.000Z</time>
      </trkpt>
      <trkpt lat="45.98454" lon="6.2697">
        <ele>664.88897705078</ele>
        <time>2013-09-15T09:03:52.000Z</time>
      </trkpt>
      <trkpt lat="45.98467" lon="6.26962">
        <ele>666.81201171875</ele>
        <time>2013-09-15T09:03:57.000Z</time>
      </trkpt>
      <trkpt lat="45.98479" lon="6.26954">
        <ele>667.2919921875</ele>
        <time>2013-09-15T09:04:02.000Z</time>
      </trkpt>
      <trkpt lat="45.98486" lon="6.26951">
        <ele>668.73400878906</ele>
        <time>2013-09-15T09:04:04.000Z</time>
      </trkpt>
      <trkpt lat="45.985" lon="6.26945">
        <ele>668.73400878906</ele>
        <time>2013-09-15T09:04:09.000Z</time>
      </trkpt>
      <trkpt lat="45.98503" lon="6.26944">
        <ele>669.69598388672</ele>
        <time>2013-09-15T09:04:10.000Z</time>
      </trkpt>
      <trkpt lat="45.98514" lon="6.26927">
        <ele>666.33099365234</ele>
        <time>2013-09-15T09:04:16.000Z</time>
      </trkpt>
      <trkpt lat="45.98511" lon="6.26911">
        <ele>669.69598388672</ele>
        <time>2013-09-15T09:04:20.000Z</time>
      </trkpt>
      <trkpt lat="45.98507" lon="6.26886">
        <ele>683.63500976562</ele>
        <time>2013-09-15T09:04:26.000Z</time>
      </trkpt>
      <trkpt lat="45.98507" lon="6.26875">
        <ele>687.47998046875</ele>
        <time>2013-09-15T09:04:29.000Z</time>
      </trkpt>
      <trkpt lat="45.9851" lon="6.26863">
        <ele>680.27001953125</ele>
        <time>2013-09-15T09:04:34.000Z</time>
      </trkpt>
      <trkpt lat="45.98512" lon="6.26849">
        <ele>676.90600585938</ele>
        <time>2013-09-15T09:04:39.000Z</time>
      </trkpt>
      <trkpt lat="45.98513" lon="6.26842">
        <ele>676.42498779297</ele>
        <time>2013-09-15T09:04:41.000Z</time>
      </trkpt>
      <trkpt lat="45.98518" lon="6.26818">
        <ele>673.541015625</ele>
        <time>2013-09-15T09:04:49.000Z</time>
      </trkpt>
      <trkpt lat="45.98523" lon="6.26804">
        <ele>673.05999755859</ele>
        <time>2013-09-15T09:04:54.000Z</time>
      </trkpt>
      <trkpt lat="45.98528" lon="6.2679">
        <ele>672.09899902344</ele>
        <time>2013-09-15T09:05:00.000Z</time>
      </trkpt>
      <trkpt lat="45.98532" lon="6.26783">
        <ele>674.02099609375</ele>
        <time>2013-09-15T09:05:05.000Z</time>
      </trkpt>
      <trkpt lat="45.98536" lon="6.26779">
        <ele>675.46301269531</ele>
        <time>2013-09-15T09:05:08.000Z</time>
      </trkpt>
      <trkpt lat="45.98541" lon="6.2677">
        <ele>673.05999755859</ele>
        <time>2013-09-15T09:05:12.000Z</time>
      </trkpt>
      <trkpt lat="45.98552" lon="6.26751">
        <ele>672.58001708984</ele>
        <time>2013-09-15T09:05:19.000Z</time>
      </trkpt>
      <trkpt lat="45.98562" lon="6.26735">
        <ele>673.05999755859</ele>
        <time>2013-09-15T09:05:25.000Z</time>
      </trkpt>
      <trkpt lat="45.98573" lon="6.2672">
        <ele>672.58001708984</ele>
        <time>2013-09-15T09:05:31.000Z</time>
      </trkpt>
      <trkpt lat="45.98584" lon="6.26703">
        <ele>670.65698242188</ele>
        <time>2013-09-15T09:05:37.000Z</time>
      </trkpt>
      <trkpt lat="45.9859" lon="6.26693">
        <ele>669.69598388672</ele>
        <time>2013-09-15T09:05:42.000Z</time>
      </trkpt>
      <trkpt lat="45.98599" lon="6.26679">
        <ele>672.09899902344</ele>
        <time>2013-09-15T09:05:47.000Z</time>
      </trkpt>
      <trkpt lat="45.98608" lon="6.26664">
        <ele>672.09899902344</ele>
        <time>2013-09-15T09:05:53.000Z</time>
      </trkpt>
      <trkpt lat="45.98615" lon="6.26653">
        <ele>672.09899902344</ele>
        <time>2013-09-15T09:05:57.000Z</time>
      </trkpt>
      <trkpt lat="45.98625" lon="6.26638">
        <ele>676.42498779297</ele>
        <time>2013-09-15T09:06:02.000Z</time>
      </trkpt>
      <trkpt lat="45.98635" lon="6.26623">
        <ele>683.15399169922</ele>
        <time>2013-09-15T09:06:07.000Z</time>
      </trkpt>
      <trkpt lat="45.98644" lon="6.26605">
        <ele>691.32501220703</ele>
        <time>2013-09-15T09:06:12.000Z</time>
      </trkpt>
      <trkpt lat="45.98646" lon="6.26602">
        <ele>691.80603027344</ele>
        <time>2013-09-15T09:06:13.000Z</time>
      </trkpt>
      <trkpt lat="45.9865" lon="6.26588">
        <ele>697.57397460938</ele>
        <time>2013-09-15T09:06:17.000Z</time>
      </trkpt>
      <trkpt lat="45.98657" lon="6.26566">
        <ele>696.13201904297</ele>
        <time>2013-09-15T09:06:24.000Z</time>
      </trkpt>
      <trkpt lat="45.98658" lon="6.2656">
        <ele>692.76702880859</ele>
        <time>2013-09-15T09:06:26.000Z</time>
      </trkpt>
      <trkpt lat="45.98666" lon="6.26541">
        <ele>684.11499023438</ele>
        <time>2013-09-15T09:06:33.000Z</time>
      </trkpt>
      <trkpt lat="45.98673" lon="6.26532">
        <ele>680.27001953125</ele>
        <time>2013-09-15T09:06:37.000Z</time>
      </trkpt>
      <trkpt lat="45.98682" lon="6.2652">
        <ele>675.94396972656</ele>
        <time>2013-09-15T09:06:42.000Z</time>
      </trkpt>
      <trkpt lat="45.98686" lon="6.26515">
        <ele>674.02099609375</ele>
        <time>2013-09-15T09:06:44.000Z</time>
      </trkpt>
      <trkpt lat="45.98692" lon="6.2651">
        <ele>673.05999755859</ele>
        <time>2013-09-15T09:06:47.000Z</time>
      </trkpt>
      <trkpt lat="45.98701" lon="6.26502">
        <ele>668.73400878906</ele>
        <time>2013-09-15T09:06:52.000Z</time>
      </trkpt>
      <trkpt lat="45.98704" lon="6.26497">
        <ele>667.2919921875</ele>
        <time>2013-09-15T09:06:56.000Z</time>
      </trkpt>
      <trkpt lat="45.98703" lon="6.26495">
        <ele>667.77301025391</ele>
        <time>2013-09-15T09:06:57.000Z</time>
      </trkpt>
      <trkpt lat="45.98707" lon="6.26489">
        <ele>669.21502685547</ele>
        <time>2013-09-15T09:07:02.000Z</time>
      </trkpt>
      <trkpt lat="45.98712" lon="6.26484">
        <ele>668.25402832031</ele>
        <time>2013-09-15T09:07:06.000Z</time>
      </trkpt>
      <trkpt lat="45.98713" lon="6.26483">
        <ele>668.25402832031</ele>
        <time>2013-09-15T09:07:07.000Z</time>
      </trkpt>
      <trkpt lat="45.98715" lon="6.26476">
        <ele>667.77301025391</ele>
        <time>2013-09-15T09:07:12.000Z</time>
      </trkpt>
      <trkpt lat="45.98717" lon="6.26473">
        <ele>667.2919921875</ele>
        <time>2013-09-15T09:07:14.000Z</time>
      </trkpt>
      <trkpt lat="45.98722" lon="6.26464">
        <ele>663.92700195312</ele>
        <time>2013-09-15T09:07:19.000Z</time>
      </trkpt>
      <trkpt lat="45.98727" lon="6.26462">
        <ele>661.52398681641</ele>
        <time>2013-09-15T09:07:22.000Z</time>
      </trkpt>
      <trkpt lat="45.98729" lon="6.26453">
        <ele>657.67901611328</ele>
        <time>2013-09-15T09:07:26.000Z</time>
      </trkpt>
      <trkpt lat="45.9873" lon="6.26449">
        <ele>657.67901611328</ele>
        <time>2013-09-15T09:07:29.000Z</time>
      </trkpt>
      <trkpt lat="45.98736" lon="6.26443">
        <ele>658.64001464844</ele>
        <time>2013-09-15T09:07:33.000Z</time>
      </trkpt>
      <trkpt lat="45.98744" lon="6.26437">
        <ele>659.12097167969</ele>
        <time>2013-09-15T09:07:39.000Z</time>
      </trkpt>
      <trkpt lat="45.98747" lon="6.26434">
        <ele>660.08197021484</ele>
        <time>2013-09-15T09:07:41.000Z</time>
      </trkpt>
      <trkpt lat="45.98753" lon="6.26422">
        <ele>659.12097167969</ele>
        <time>2013-09-15T09:07:47.000Z</time>
      </trkpt>
      <trkpt lat="45.98755" lon="6.26419">
        <ele>658.64001464844</ele>
        <time>2013-09-15T09:07:48.000Z</time>
      </trkpt>
      <trkpt lat="45.98761" lon="6.26413">
        <ele>657.67901611328</ele>
        <time>2013-09-15T09:07:51.000Z</time>
      </trkpt>
      <trkpt lat="45.98765" lon="6.26416">
        <ele>661.04400634766</ele>
        <time>2013-09-15T09:07:55.000Z</time>
      </trkpt>
      <trkpt lat="45.98753" lon="6.26432">
        <ele>658.64001464844</ele>
        <time>2013-09-15T09:08:01.000Z</time>
      </trkpt>
      <trkpt lat="45.98748" lon="6.26441">
        <ele>659.60198974609</ele>
        <time>2013-09-15T09:08:04.000Z</time>
      </trkpt>
      <trkpt lat="45.98743" lon="6.26453">
        <ele>660.08197021484</ele>
        <time>2013-09-15T09:08:08.000Z</time>
      </trkpt>
      <trkpt lat="45.98745" lon="6.26478">
        <ele>664.88897705078</ele>
        <time>2013-09-15T09:08:14.000Z</time>
      </trkpt>
      <trkpt lat="45.98747" lon="6.26487">
        <ele>666.81201171875</ele>
        <time>2013-09-15T09:08:16.000Z</time>
      </trkpt>
      <trkpt lat="45.98753" lon="6.26505">
        <ele>670.65698242188</ele>
        <time>2013-09-15T09:08:21.000Z</time>
      </trkpt>
      <trkpt lat="45.9876" lon="6.26522">
        <ele>674.50201416016</ele>
        <time>2013-09-15T09:08:26.000Z</time>
      </trkpt>
      <trkpt lat="45.98763" lon="6.26527">
        <ele>674.50201416016</ele>
        <time>2013-09-15T09:08:28.000Z</time>
      </trkpt>
      <trkpt lat="45.98774" lon="6.26514">
        <ele>665.84997558594</ele>
        <time>2013-09-15T09:08:32.000Z</time>
      </trkpt>
      <trkpt lat="45.98784" lon="6.26497">
        <ele>659.60198974609</ele>
        <time>2013-09-15T09:08:38.000Z</time>
      </trkpt>
      <trkpt lat="45.9879" lon="6.26489">
        <ele>657.67901611328</ele>
        <time>2013-09-15T09:08:41.000Z</time>
      </trkpt>
      <trkpt lat="45.988" lon="6.26481">
        <ele>656.23699951172</ele>
        <time>2013-09-15T09:08:45.000Z</time>
      </trkpt>
      <trkpt lat="45.98809" lon="6.26468">
        <ele>650.46899414062</ele>
        <time>2013-09-15T09:08:51.000Z</time>
      </trkpt>
      <trkpt lat="45.98817" lon="6.26464">
        <ele>651.42999267578</ele>
        <time>2013-09-15T09:08:55.000Z</time>
      </trkpt>
      <trkpt lat="45.98826" lon="6.26463">
        <ele>653.35302734375</ele>
        <time>2013-09-15T09:08:59.000Z</time>
      </trkpt>
      <trkpt lat="45.98834" lon="6.26464">
        <ele>653.833984375</ele>
        <time>2013-09-15T09:09:02.000Z</time>
      </trkpt>
      <trkpt lat="45.98846" lon="6.26464">
        <ele>655.27600097656</ele>
        <time>2013-09-15T09:09:05.000Z</time>
      </trkpt>
      <trkpt lat="45.9886" lon="6.26458">
        <ele>654.31500244141</ele>
        <time>2013-09-15T09:09:11.000Z</time>
      </trkpt>
      <trkpt lat="45.98872" lon="6.26452">
        <ele>655.27600097656</ele>
        <time>2013-09-15T09:09:16.000Z</time>
      </trkpt>
      <trkpt lat="45.98884" lon="6.26445">
        <ele>655.27600097656</ele>
        <time>2013-09-15T09:09:21.000Z</time>
      </trkpt>
      <trkpt lat="45.98894" lon="6.26437">
        <ele>653.35302734375</ele>
        <time>2013-09-15T09:09:26.000Z</time>
      </trkpt>
      <trkpt lat="45.98908" lon="6.26431">
        <ele>652.87298583984</ele>
        <time>2013-09-15T09:09:32.000Z</time>
      </trkpt>
      <trkpt lat="45.98909" lon="6.26429">
        <ele>653.833984375</ele>
        <time>2013-09-15T09:09:33.000Z</time>
      </trkpt>
      <trkpt lat="45.98915" lon="6.26421">
        <ele>654.79498291016</ele>
        <time>2013-09-15T09:09:37.000Z</time>
      </trkpt>
      <trkpt lat="45.98923" lon="6.2641">
        <ele>655.27600097656</ele>
        <time>2013-09-15T09:09:42.000Z</time>
      </trkpt>
      <trkpt lat="45.98928" lon="6.26402">
        <ele>655.27600097656</ele>
        <time>2013-09-15T09:09:47.000Z</time>
      </trkpt>
      <trkpt lat="45.98933" lon="6.26397">
        <ele>657.19799804688</ele>
        <time>2013-09-15T09:09:51.000Z</time>
      </trkpt>
      <trkpt lat="45.98934" lon="6.26386">
        <ele>659.60198974609</ele>
        <time>2013-09-15T09:09:55.000Z</time>
      </trkpt>
      <trkpt lat="45.9894" lon="6.26374">
        <ele>666.81201171875</ele>
        <time>2013-09-15T09:10:00.000Z</time>
      </trkpt>
      <trkpt lat="45.98952" lon="6.26362">
        <ele>670.65698242188</ele>
        <time>2013-09-15T09:10:05.000Z</time>
      </trkpt>
      <trkpt lat="45.98954" lon="6.2636">
        <ele>670.65698242188</ele>
        <time>2013-09-15T09:10:06.000Z</time>
      </trkpt>
      <trkpt lat="45.98967" lon="6.26355">
        <ele>675.46301269531</ele>
        <time>2013-09-15T09:10:12.000Z</time>
      </trkpt>
      <trkpt lat="45.98968" lon="6.26355">
        <ele>676.90600585938</ele>
        <time>2013-09-15T09:10:13.000Z</time>
      </trkpt>
      <trkpt lat="45.98977" lon="6.26353">
        <ele>679.30902099609</ele>
        <time>2013-09-15T09:10:19.000Z</time>
      </trkpt>
      <trkpt lat="45.98979" lon="6.26346">
        <ele>678.34698486328</ele>
        <time>2013-09-15T09:10:24.000Z</time>
      </trkpt>
      <trkpt lat="45.98984" lon="6.26343">
        <ele>676.90600585938</ele>
        <time>2013-09-15T09:10:28.000Z</time>
      </trkpt>
      <trkpt lat="45.98996" lon="6.26341">
        <ele>674.02099609375</ele>
        <time>2013-09-15T09:10:37.000Z</time>
      </trkpt>
      <trkpt lat="45.99001" lon="6.26341">
        <ele>676.42498779297</ele>
        <time>2013-09-15T09:10:43.000Z</time>
      </trkpt>
      <trkpt lat="45.9901" lon="6.2634">
        <ele>674.50201416016</ele>
        <time>2013-09-15T09:10:48.000Z</time>
      </trkpt>
      <trkpt lat="45.99014" lon="6.26334">
        <ele>671.61798095703</ele>
        <time>2013-09-15T09:11:00.000Z</time>
      </trkpt>
      <trkpt lat="45.99018" lon="6.2633">
        <ele>672.58001708984</ele>
        <time>2013-09-15T09:11:07.000Z</time>
      </trkpt>
      <trkpt lat="45.99027" lon="6.26328">
        <ele>670.65698242188</ele>
        <time>2013-09-15T09:11:12.000Z</time>
      </trkpt>
      <trkpt lat="45.99034" lon="6.26328">
        <ele>679.30902099609</ele>
        <time>2013-09-15T09:11:21.000Z</time>
      </trkpt>
      <trkpt lat="45.99035" lon="6.26329">
        <ele>679.30902099609</ele>
        <time>2013-09-15T09:11:22.000Z</time>
      </trkpt>
      <trkpt lat="45.9904" lon="6.26337">
        <ele>684.11499023438</ele>
        <time>2013-09-15T09:11:27.000Z</time>
      </trkpt>
      <trkpt lat="45.9905" lon="6.26333">
        <ele>694.69000244141</ele>
        <time>2013-09-15T09:11:37.000Z</time>
      </trkpt>
      <trkpt lat="45.99052" lon="6.26329">
        <ele>696.13201904297</ele>
        <time>2013-09-15T09:11:42.000Z</time>
      </trkpt>
      <trkpt lat="45.9906" lon="6.26328">
        <ele>693.24798583984</ele>
        <time>2013-09-15T09:11:49.000Z</time>
      </trkpt>
      <trkpt lat="45.99066" lon="6.26327">
        <ele>691.80603027344</ele>
        <time>2013-09-15T09:11:51.000Z</time>
      </trkpt>
      <trkpt lat="45.99078" lon="6.26323">
        <ele>695.65100097656</ele>
        <time>2013-09-15T09:11:58.000Z</time>
      </trkpt>
      <trkpt lat="45.99084" lon="6.2632">
        <ele>699.97698974609</ele>
        <time>2013-09-15T09:12:03.000Z</time>
      </trkpt>
      <trkpt lat="45.99089" lon="6.26316">
        <ele>698.05401611328</ele>
        <time>2013-09-15T09:12:07.000Z</time>
      </trkpt>
      <trkpt lat="45.99092" lon="6.26305">
        <ele>701.41900634766</ele>
        <time>2013-09-15T09:12:14.000Z</time>
      </trkpt>
      <trkpt lat="45.99095" lon="6.26293">
        <ele>706.22601318359</ele>
        <time>2013-09-15T09:12:19.000Z</time>
      </trkpt>
      <trkpt lat="45.99097" lon="6.26275">
        <ele>705.26397705078</ele>
        <time>2013-09-15T09:12:26.000Z</time>
      </trkpt>
      <trkpt lat="45.99099" lon="6.26273">
        <ele>704.30297851562</ele>
        <time>2013-09-15T09:12:27.000Z</time>
      </trkpt>
      <trkpt lat="45.99101" lon="6.26269">
        <ele>703.82299804688</ele>
        <time>2013-09-15T09:12:29.000Z</time>
      </trkpt>
      <trkpt lat="45.99102" lon="6.2626">
        <ele>698.53497314453</ele>
        <time>2013-09-15T09:12:35.000Z</time>
      </trkpt>
      <trkpt lat="45.991" lon="6.26257">
        <ele>695.65100097656</ele>
        <time>2013-09-15T09:12:40.000Z</time>
      </trkpt>
      <trkpt lat="45.991" lon="6.26251">
        <ele>692.76702880859</ele>
        <time>2013-09-15T09:12:45.000Z</time>
      </trkpt>
      <trkpt lat="45.99104" lon="6.26247">
        <ele>692.28698730469</ele>
        <time>2013-09-15T09:12:48.000Z</time>
      </trkpt>
      <trkpt lat="45.9911" lon="6.26243">
        <ele>690.36401367188</ele>
        <time>2013-09-15T09:12:53.000Z</time>
      </trkpt>
      <trkpt lat="45.99118" lon="6.26241">
        <ele>688.44097900391</ele>
        <time>2013-09-15T09:12:57.000Z</time>
      </trkpt>
      <trkpt lat="45.99128" lon="6.26235">
        <ele>688.92199707031</ele>
        <time>2013-09-15T09:13:02.000Z</time>
      </trkpt>
      <trkpt lat="45.99139" lon="6.26238">
        <ele>692.28698730469</ele>
        <time>2013-09-15T09:13:08.000Z</time>
      </trkpt>
      <trkpt lat="45.99149" lon="6.26242">
        <ele>695.65100097656</ele>
        <time>2013-09-15T09:13:13.000Z</time>
      </trkpt>
      <trkpt lat="45.99158" lon="6.2625">
        <ele>699.49597167969</ele>
        <time>2013-09-15T09:13:18.000Z</time>
      </trkpt>
      <trkpt lat="45.99164" lon="6.26258">
        <ele>705.26397705078</ele>
        <time>2013-09-15T09:13:24.000Z</time>
      </trkpt>
      <trkpt lat="45.9917" lon="6.26259">
        <ele>707.18701171875</ele>
        <time>2013-09-15T09:13:28.000Z</time>
      </trkpt>
      <trkpt lat="45.99178" lon="6.26252">
        <ele>706.22601318359</ele>
        <time>2013-09-15T09:13:36.000Z</time>
      </trkpt>
      <trkpt lat="45.99179" lon="6.26251">
        <ele>705.74499511719</ele>
        <time>2013-09-15T09:13:37.000Z</time>
      </trkpt>
      <trkpt lat="45.99181" lon="6.26246">
        <ele>704.30297851562</ele>
        <time>2013-09-15T09:13:40.000Z</time>
      </trkpt>
      <trkpt lat="45.99189" lon="6.26238">
        <ele>703.82299804688</ele>
        <time>2013-09-15T09:13:46.000Z</time>
      </trkpt>
      <trkpt lat="45.99193" lon="6.26226">
        <ele>701.41900634766</ele>
        <time>2013-09-15T09:13:51.000Z</time>
      </trkpt>
      <trkpt lat="45.99202" lon="6.26214">
        <ele>698.53497314453</ele>
        <time>2013-09-15T09:13:57.000Z</time>
      </trkpt>
      <trkpt lat="45.99203" lon="6.26212">
        <ele>698.05401611328</ele>
        <time>2013-09-15T09:13:58.000Z</time>
      </trkpt>
      <trkpt lat="45.99214" lon="6.26205">
        <ele>699.01599121094</ele>
        <time>2013-09-15T09:14:03.000Z</time>
      </trkpt>
      <trkpt lat="45.99233" lon="6.26198">
        <ele>702.86102294922</ele>
        <time>2013-09-15T09:14:09.000Z</time>
      </trkpt>
      <trkpt lat="45.99247" lon="6.2619">
        <ele>705.74499511719</ele>
        <time>2013-09-15T09:14:14.000Z</time>
      </trkpt>
      <trkpt lat="45.99261" lon="6.26184">
        <ele>707.66802978516</ele>
        <time>2013-09-15T09:14:19.000Z</time>
      </trkpt>
      <trkpt lat="45.99271" lon="6.2618">
        <ele>709.59002685547</ele>
        <time>2013-09-15T09:14:24.000Z</time>
      </trkpt>
      <trkpt lat="45.99275" lon="6.26181">
        <ele>711.51300048828</ele>
        <time>2013-09-15T09:14:30.000Z</time>
      </trkpt>
      <trkpt lat="45.99279" lon="6.26174">
        <ele>709.10998535156</ele>
        <time>2013-09-15T09:14:36.000Z</time>
      </trkpt>
      <trkpt lat="45.99285" lon="6.2617">
        <ele>712.47399902344</ele>
        <time>2013-09-15T09:14:41.000Z</time>
      </trkpt>
      <trkpt lat="45.99291" lon="6.26162">
        <ele>710.55200195312</ele>
        <time>2013-09-15T09:14:48.000Z</time>
      </trkpt>
      <trkpt lat="45.99296" lon="6.26153">
        <ele>709.10998535156</ele>
        <time>2013-09-15T09:14:53.000Z</time>
      </trkpt>
      <trkpt lat="45.99306" lon="6.2614">
        <ele>708.14801025391</ele>
        <time>2013-09-15T09:14:59.000Z</time>
      </trkpt>
      <trkpt lat="45.99309" lon="6.2613">
        <ele>706.22601318359</ele>
        <time>2013-09-15T09:15:03.000Z</time>
      </trkpt>
      <trkpt lat="45.99318" lon="6.26118">
        <ele>703.34197998047</ele>
        <time>2013-09-15T09:15:09.000Z</time>
      </trkpt>
      <trkpt lat="45.99329" lon="6.26104">
        <ele>701.41900634766</ele>
        <time>2013-09-15T09:15:15.000Z</time>
      </trkpt>
      <trkpt lat="45.99338" lon="6.26092">
        <ele>701.41900634766</ele>
        <time>2013-09-15T09:15:20.000Z</time>
      </trkpt>
      <trkpt lat="45.99351" lon="6.26077">
        <ele>699.97698974609</ele>
        <time>2013-09-15T09:15:27.000Z</time>
      </trkpt>
      <trkpt lat="45.99363" lon="6.26066">
        <ele>698.53497314453</ele>
        <time>2013-09-15T09:15:32.000Z</time>
      </trkpt>
      <trkpt lat="45.99374" lon="6.26055">
        <ele>697.57397460938</ele>
        <time>2013-09-15T09:15:38.000Z</time>
      </trkpt>
      <trkpt lat="45.99384" lon="6.26043">
        <ele>700.4580078125</ele>
        <time>2013-09-15T09:15:43.000Z</time>
      </trkpt>
      <trkpt lat="45.99389" lon="6.2603">
        <ele>701.41900634766</ele>
        <time>2013-09-15T09:15:47.000Z</time>
      </trkpt>
      <trkpt lat="45.99392" lon="6.26013">
        <ele>701.90002441406</ele>
        <time>2013-09-15T09:15:52.000Z</time>
      </trkpt>
      <trkpt lat="45.99392" lon="6.25995">
        <ele>701.41900634766</ele>
        <time>2013-09-15T09:15:57.000Z</time>
      </trkpt>
      <trkpt lat="45.99395" lon="6.25979">
        <ele>698.05401611328</ele>
        <time>2013-09-15T09:16:02.000Z</time>
      </trkpt>
      <trkpt lat="45.99395" lon="6.25969">
        <ele>695.16998291016</ele>
        <time>2013-09-15T09:16:05.000Z</time>
      </trkpt>
      <trkpt lat="45.99395" lon="6.25961">
        <ele>694.208984375</ele>
        <time>2013-09-15T09:16:07.000Z</time>
      </trkpt>
      <trkpt lat="45.99393" lon="6.25946">
        <ele>692.28698730469</ele>
        <time>2013-09-15T09:16:11.000Z</time>
      </trkpt>
      <trkpt lat="45.99395" lon="6.2593">
        <ele>690.84399414062</ele>
        <time>2013-09-15T09:16:15.000Z</time>
      </trkpt>
      <trkpt lat="45.99394" lon="6.25926">
        <ele>690.36401367188</ele>
        <time>2013-09-15T09:16:16.000Z</time>
      </trkpt>
      <trkpt lat="45.99392" lon="6.259">
        <ele>687.47998046875</ele>
        <time>2013-09-15T09:16:22.000Z</time>
      </trkpt>
      <trkpt lat="45.99397" lon="6.2588">
        <ele>688.44097900391</ele>
        <time>2013-09-15T09:16:27.000Z</time>
      </trkpt>
      <trkpt lat="45.994" lon="6.25869">
        <ele>687.47998046875</ele>
        <time>2013-09-15T09:16:30.000Z</time>
      </trkpt>
      <trkpt lat="45.99406" lon="6.25845">
        <ele>685.55700683594</ele>
        <time>2013-09-15T09:16:37.000Z</time>
      </trkpt>
      <trkpt lat="45.99412" lon="6.25826">
        <ele>686.51898193359</ele>
        <time>2013-09-15T09:16:42.000Z</time>
      </trkpt>
      <trkpt lat="45.99419" lon="6.25807">
        <ele>684.11499023438</ele>
        <time>2013-09-15T09:16:47.000Z</time>
      </trkpt>
      <trkpt lat="45.99424" lon="6.25788">
        <ele>681.23101806641</ele>
        <time>2013-09-15T09:16:52.000Z</time>
      </trkpt>
      <trkpt lat="45.9943" lon="6.25768">
        <ele>681.23101806641</ele>
        <time>2013-09-15T09:16:58.000Z</time>
      </trkpt>
      <trkpt lat="45.99437" lon="6.25752">
        <ele>681.23101806641</ele>
        <time>2013-09-15T09:17:03.000Z</time>
      </trkpt>
      <trkpt lat="45.99442" lon="6.25735">
        <ele>681.71197509766</ele>
        <time>2013-09-15T09:17:07.000Z</time>
      </trkpt>
      <trkpt lat="45.99446" lon="6.25718">
        <ele>682.19299316406</ele>
        <time>2013-09-15T09:17:12.000Z</time>
      </trkpt>
      <trkpt lat="45.99455" lon="6.25694">
        <ele>681.71197509766</ele>
        <time>2013-09-15T09:17:18.000Z</time>
      </trkpt>
      <trkpt lat="45.99459" lon="6.25674">
        <ele>681.23101806641</ele>
        <time>2013-09-15T09:17:23.000Z</time>
      </trkpt>
      <trkpt lat="45.99462" lon="6.25655">
        <ele>681.71197509766</ele>
        <time>2013-09-15T09:17:28.000Z</time>
      </trkpt>
      <trkpt lat="45.99466" lon="6.25635">
        <ele>680.7509765625</ele>
        <time>2013-09-15T09:17:33.000Z</time>
      </trkpt>
      <trkpt lat="45.99471" lon="6.25619">
        <ele>680.27001953125</ele>
        <time>2013-09-15T09:17:37.000Z</time>
      </trkpt>
      <trkpt lat="45.99474" lon="6.25603">
        <ele>677.38598632812</ele>
        <time>2013-09-15T09:17:41.000Z</time>
      </trkpt>
      <trkpt lat="45.99477" lon="6.25588">
        <ele>675.46301269531</ele>
        <time>2013-09-15T09:17:45.000Z</time>
      </trkpt>
      <trkpt lat="45.99487" lon="6.25572">
        <ele>674.50201416016</ele>
        <time>2013-09-15T09:17:50.000Z</time>
      </trkpt>
      <trkpt lat="45.99498" lon="6.25556">
        <ele>676.42498779297</ele>
        <time>2013-09-15T09:17:55.000Z</time>
      </trkpt>
      <trkpt lat="45.99504" lon="6.25543">
        <ele>674.98297119141</ele>
        <time>2013-09-15T09:17:59.000Z</time>
      </trkpt>
      <trkpt lat="45.9951" lon="6.25528">
        <ele>672.09899902344</ele>
        <time>2013-09-15T09:18:04.000Z</time>
      </trkpt>
      <trkpt lat="45.99516" lon="6.25512">
        <ele>666.33099365234</ele>
        <time>2013-09-15T09:18:09.000Z</time>
      </trkpt>
      <trkpt lat="45.9952" lon="6.25502">
        <ele>661.52398681641</ele>
        <time>2013-09-15T09:18:14.000Z</time>
      </trkpt>
      <trkpt lat="45.99526" lon="6.25495">
        <ele>662.48602294922</ele>
        <time>2013-09-15T09:18:21.000Z</time>
      </trkpt>
      <trkpt lat="45.9953" lon="6.25488">
        <ele>663.44702148438</ele>
        <time>2013-09-15T09:18:25.000Z</time>
      </trkpt>
      <trkpt lat="45.99531" lon="6.25485">
        <ele>662.96600341797</ele>
        <time>2013-09-15T09:18:26.000Z</time>
      </trkpt>
      <trkpt lat="45.99535" lon="6.25477">
        <ele>662.00500488281</ele>
        <time>2013-09-15T09:18:30.000Z</time>
      </trkpt>
      <trkpt lat="45.99543" lon="6.2546">
        <ele>659.60198974609</ele>
        <time>2013-09-15T09:18:35.000Z</time>
      </trkpt>
      <trkpt lat="45.99549" lon="6.25445">
        <ele>660.08197021484</ele>
        <time>2013-09-15T09:18:39.000Z</time>
      </trkpt>
      <trkpt lat="45.99557" lon="6.25423">
        <ele>658.64001464844</ele>
        <time>2013-09-15T09:18:45.000Z</time>
      </trkpt>
      <trkpt lat="45.99566" lon="6.25405">
        <ele>657.19799804688</ele>
        <time>2013-09-15T09:18:51.000Z</time>
      </trkpt>
      <trkpt lat="45.99572" lon="6.25388">
        <ele>655.75701904297</ele>
        <time>2013-09-15T09:18:57.000Z</time>
      </trkpt>
      <trkpt lat="45.99577" lon="6.2537">
        <ele>657.19799804688</ele>
        <time>2013-09-15T09:19:03.000Z</time>
      </trkpt>
      <trkpt lat="45.99586" lon="6.25352">
        <ele>658.15997314453</ele>
        <time>2013-09-15T09:19:10.000Z</time>
      </trkpt>
      <trkpt lat="45.9959" lon="6.25342">
        <ele>659.60198974609</ele>
        <time>2013-09-15T09:19:14.000Z</time>
      </trkpt>
      <trkpt lat="45.99599" lon="6.25325">
        <ele>661.52398681641</ele>
        <time>2013-09-15T09:19:21.000Z</time>
      </trkpt>
      <trkpt lat="45.99608" lon="6.25313">
        <ele>666.33099365234</ele>
        <time>2013-09-15T09:19:26.000Z</time>
      </trkpt>
      <trkpt lat="45.99615" lon="6.25303">
        <ele>669.21502685547</ele>
        <time>2013-09-15T09:19:30.000Z</time>
      </trkpt>
      <trkpt lat="45.99619" lon="6.25293">
        <ele>669.69598388672</ele>
        <time>2013-09-15T09:19:36.000Z</time>
      </trkpt>
      <trkpt lat="45.99623" lon="6.25283">
        <ele>670.65698242188</ele>
        <time>2013-09-15T09:19:43.000Z</time>
      </trkpt>
      <trkpt lat="45.99629" lon="6.25271">
        <ele>670.65698242188</ele>
        <time>2013-09-15T09:19:50.000Z</time>
      </trkpt>
      <trkpt lat="45.99635" lon="6.25261">
        <ele>677.38598632812</ele>
        <time>2013-09-15T09:19:55.000Z</time>
      </trkpt>
      <trkpt lat="45.99639" lon="6.25248">
        <ele>677.86700439453</ele>
        <time>2013-09-15T09:20:01.000Z</time>
      </trkpt>
      <trkpt lat="45.99636" lon="6.2524">
        <ele>678.82800292969</ele>
        <time>2013-09-15T09:20:12.000Z</time>
      </trkpt>
      <trkpt lat="45.99632" lon="6.25232">
        <ele>679.30902099609</ele>
        <time>2013-09-15T09:20:19.000Z</time>
      </trkpt>
      <trkpt lat="45.9963" lon="6.25228">
        <ele>680.27001953125</ele>
        <time>2013-09-15T09:20:22.000Z</time>
      </trkpt>
      <trkpt lat="45.99626" lon="6.25213">
        <ele>680.7509765625</ele>
        <time>2013-09-15T09:20:27.000Z</time>
      </trkpt>
      <trkpt lat="45.99625" lon="6.25199">
        <ele>682.67297363281</ele>
        <time>2013-09-15T09:20:31.000Z</time>
      </trkpt>
      <trkpt lat="45.99625" lon="6.25195">
        <ele>682.19299316406</ele>
        <time>2013-09-15T09:20:32.000Z</time>
      </trkpt>
      <trkpt lat="45.99625" lon="6.25173">
        <ele>681.71197509766</ele>
        <time>2013-09-15T09:20:38.000Z</time>
      </trkpt>
      <trkpt lat="45.99626" lon="6.25164">
        <ele>680.7509765625</ele>
        <time>2013-09-15T09:20:41.000Z</time>
      </trkpt>
      <trkpt lat="45.99627" lon="6.25144">
        <ele>681.23101806641</ele>
        <time>2013-09-15T09:20:47.000Z</time>
      </trkpt>
      <trkpt lat="45.99628" lon="6.25141">
        <ele>681.23101806641</ele>
        <time>2013-09-15T09:20:48.000Z</time>
      </trkpt>
      <trkpt lat="45.99628" lon="6.25128">
        <ele>680.7509765625</ele>
        <time>2013-09-15T09:20:52.000Z</time>
      </trkpt>
      <trkpt lat="45.99632" lon="6.2511">
        <ele>682.67297363281</ele>
        <time>2013-09-15T09:20:58.000Z</time>
      </trkpt>
      <trkpt lat="45.99635" lon="6.25095">
        <ele>685.07702636719</ele>
        <time>2013-09-15T09:21:03.000Z</time>
      </trkpt>
      <trkpt lat="45.99639" lon="6.2508">
        <ele>686.51898193359</ele>
        <time>2013-09-15T09:21:08.000Z</time>
      </trkpt>
      <trkpt lat="45.99642" lon="6.2506">
        <ele>686.51898193359</ele>
        <time>2013-09-15T09:21:14.000Z</time>
      </trkpt>
      <trkpt lat="45.99648" lon="6.25044">
        <ele>688.92199707031</ele>
        <time>2013-09-15T09:21:19.000Z</time>
      </trkpt>
      <trkpt lat="45.99653" lon="6.25021">
        <ele>692.76702880859</ele>
        <time>2013-09-15T09:21:26.000Z</time>
      </trkpt>
      <trkpt lat="45.99656" lon="6.25001">
        <ele>692.76702880859</ele>
        <time>2013-09-15T09:21:32.000Z</time>
      </trkpt>
      <trkpt lat="45.99658" lon="6.24981">
        <ele>690.84399414062</ele>
        <time>2013-09-15T09:21:38.000Z</time>
      </trkpt>
      <trkpt lat="45.99664" lon="6.24962">
        <ele>692.76702880859</ele>
        <time>2013-09-15T09:21:44.000Z</time>
      </trkpt>
      <trkpt lat="45.99667" lon="6.24947">
        <ele>690.36401367188</ele>
        <time>2013-09-15T09:21:49.000Z</time>
      </trkpt>
    </trkseg>
  </trk>
</gpx>